     2              OBSERVATION DATA    GPS                 RINEX VERSION / TYPE
TRRINEXO V2.4.6 UX                                          PGM / RUN BY / DATE
                                                            COMMENT
Original Marker Name: octi                                  COMMENT
Campaign Name: STRC 1995                                    COMMENT
4-Character Station Name: OCTI                              COMMENT
6-Character Antenna Code: TRMSST                            COMMENT
Vertical Measurement Point: TGP                             COMMENT
Vertical Offset to Rinex Ref. Point: 0.0629                 COMMENT
Radial Measurement Point: NGP                               COMMENT
Radial Offset to Rinex Ref. Point: 0.2334                   COMMENT
Antenna Height from Field Measurement: 1.4790 m             COMMENT
Original XYZ: -2354477.2197 -4826952.8037 3429223.1557      COMMENT
New XYZ position is based on association with SCEC monument COMMENT
E1C8V0N9+0011. Position of that monument is believed to be  COMMENT
valid to within 1 m horizontally; vertical accuracy         COMMENT
should be no worse than 3-times this value.                 COMMENT
                                                            COMMENT
Revised Rinex header created by UCSD GPS archive for        COMMENT
GSAC on 10-Apr-1999 (1999:100) 04:47:20 GMT                 COMMENT
For assistance contact dagnew@ucsd.edu or hjohnson@ucsd.edu COMMENT
                                                            COMMENT
OCOTILLO 1935                                               MARKER NAME
OCOTILLO                                                    MARKER NUMBER
W. Gallaher UNAVCO                                          OBSERVER / AGENCY
1057 TRIMBLE 4000 SST 4.81                                  REC # / TYPE / VERS
271 TR 4000SST L1/L2 GEO                                    ANT # / TYPE
 -2354461.0000 -4826980.0000  3429223.0000                  APPROX POSITION XYZ
        1.3976        0.0000        0.0000                  ANTENNA: DELTA H/E/N
     1     2     0                                          WAVELENGTH FACT L1/2
     3    C1    L1    L2                                    # / TYPES OF OBSERV
    30                                                      INTERVAL
  1995     2    16    16     2    0.000000                  TIME OF FIRST OBS
  1995     2    16    23    59   60.000000                  TIME OF LAST OBS
     0                                                      # OF SATELLITES
                                                            END OF HEADER
 95  2 16 16  2  0.0000000  0  6 25 15  1 14 22 29
  21367641.508          -0.54418
  21646394.000          -0.37416
  24544502.273          -0.14715
  21751072.648          -0.05517
  23081778.992          -0.40016
  23391731.000          -0.41515
 95  2 16 16  2 30.0000000  0  6 25 15  1 14 22 29
  21371555.250       20566.491 7        -0.11219
  21650873.812       23535.725 6        -0.10617
  24551422.977       36359.661 5        -0.26515
  21730711.070     -107010.336 7        -0.25418
  23059023.688     -119565.191 5        -0.01315
  23374033.922      -92992.468 6        -0.13615
 95  2 16 16  3  0.0000000  0  6 25 15  1 14 22 29
  21375538.016       41504.143 7     16314.904 9
  21655438.891       47537.272 6     18702.356 7
  24558341.523       72712.160 5     28326.230 5
  21710385.672     -213810.792 7    -83221.398 8
  23036311.484     -238937.676 6    -93017.530 5
  23356351.586     -185910.593 6    -72403.892 5
 95  2 16 16  3 30.0000000  0  6 25 15  1 14 22 29
  21379590.945       62795.984 7     32905.913 9
  21660095.250       72002.074 6     37765.798 7
  24565258.320      109050.658 5     56641.829 5
  21690102.547     -320397.606 7   -166276.067 8
  23013632.937     -358111.383 6   -185880.148 5
  23338684.766     -278760.193 6   -144754.256 5
 95  2 16 16  4  0.0000000  0  6 25 15  1 14 22 29
  21383708.672       84438.929 7     49770.504 9
  21664839.508       96936.500 6     57195.176 7
  24572176.594      145376.594 5     84947.626 4
  21669860.742     -426772.039 7   -249165.246 8
  22990992.695     -477090.111 6   -278590.851 5
  23321027.172     -371540.022 5   -217050.259 5
 95  2 16 16  4 30.0000000  0  6 25 15  1 14 22 29
  21387895.664      106432.740 7     66908.503 9
  21669672.469      122340.959 6     76990.811 7
  24579081.312      181682.283 5    113237.684 4
  21649658.086     -532933.067 7   -331888.136 7
  22968386.914     -595874.912 6   -371150.428 5
  23303385.211     -464246.382 5   -289288.989 5
 95  2 16 16  5  0.0000000  0  6 25 15  1 14 22 29
  21392147.477      128770.801 7     84314.746 9
  21674589.938      148201.906 6     97142.157 7
  24585974.141      217937.047 5    141488.054 4
  21629495.148     -638892.468 7   -414453.914 7
  22945816.211     -714480.794 6   -463570.598 5
  23285754.773     -556892.595 6   -361480.835 5
 95  2 16 16  5 30.0000000  0  6 25 15  1 14 22 29
  21396459.180      151444.270 7    101982.352 9
  21679602.070      174511.866 6    117643.380 7
  24592868.523      254123.299 5    169685.010 4
  21609371.125     -744644.359 7   -496857.995 8
  22923280.352     -832914.252 6   -555856.415 5
  23268138.062     -649485.395 6   -433631.068 5
 95  2 16 16  6  0.0000000  0  6 25 15  1 14 22 29
  21400844.922      174477.607 7    119930.374 9
  21684691.812      201277.622 7    138499.768 7
  24599736.617      290256.661 5    197840.775 4
  21589290.719     -850174.932 7   -579089.620 8
  22900779.930     -951152.247 6   -647989.903 5
  23250529.711     -742006.417 6   -505725.389 5
 95  2 16 16  6 30.0000000  0  6 25 15  1 14 22 29
  21405295.805      197874.320 7    138161.534 9
  21689872.422      228491.411 6    159705.278 7
  24606602.914      326336.279 5    225954.651 4
  21569254.047     -955466.680 7   -661135.149 8
  22878318.414    -1069183.877 6   -739962.597 5
  23232938.703     -834460.647 6   -577767.656 5
 95  2 16 16  7  0.0000000  0  6 25 15  1 14 22 29
  21409819.133      221635.366 7    156676.594 9
  21695134.375      256154.452 6    181260.838 7
  24613466.820      362384.438 5    254044.000 5
  21549264.344    -1060512.739 7   -742989.236 8
  22855900.953    -1186986.539 6   -831756.871 5
  23215359.102     -926841.472 6   -649752.723 5
 95  2 16 16  7 30.0000000  0  6 25 15  1 14 22 29
  21414404.242      245742.686 7    175461.487 9
  21700487.461      284256.512 6    203158.494 7
  24620320.320      398408.130 4    282114.294 5
  21529322.680    -1165305.514 7   -824645.951 8
  22833529.805    -1304557.481 6   -923370.607 5
  23197793.945    -1019153.193 6   -721683.942 5
 95  2 16 16  8  0.0000000  0  6 25 15  1 14 22 29
  21419059.695      270205.949 7    194523.723 9
  21705914.227      312805.098 6    225404.082 7
  24627180.398      434418.565 4    310174.218 5
  21509429.930    -1269840.048 7   -906101.444 8
  22811202.969    -1421891.765 6  -1014799.923 5
  23180239.039    -1111387.922 6   -793555.163 5
 95  2 16 16  8 30.0000000  0  6 25 15  1 14 22 29
  21423779.320      294998.769 7    213842.759 9
  21711430.812      341790.795 6    247990.279 7
  24634029.164      470413.531 5    338222.102 5
  21489587.438    -1374119.585 7   -987358.235 8
  22788913.281    -1539003.235 6  -1106055.604 5
  23162702.336    -1203558.835 6   -865376.662 5
 95  2 16 16  9  0.0000000  0  6 25 15  1 14 22 29
  21428558.656      320118.268 7    233416.353 9
  21717032.891      371212.956 6    270916.583 7
  24640874.641      506395.989 4    366260.230 4
  21469789.125    -1478152.604 7  -1068422.933 8
  22766672.844    -1655898.145 6  -1197142.545 5
  23145172.258    -1295667.619 6   -937149.750 5
 95  2 16 16  9 30.0000000  0  6 25 15  1 14 22 29
  21433400.852      345569.791 7    253248.675 9
  21722715.305      401067.728 6    294179.977 7
  24647723.797      542363.559 5    394286.775 3
  21450040.383    -1581937.163 7  -1149294.032 8
  22744464.617    -1772594.392 6  -1288074.689 5
  23127654.484    -1387717.799 6  -1008877.178 5
 95  2 16 16 10  0.0000000  0  6 25 15  1 14 22 29
  21438306.547      371351.980 7    273338.640 9
  21728476.602      431348.602 6    317775.412 7
  24654571.734      578318.041 5    422303.109 3
  21430334.133    -1685485.971 7  -1229981.426 8
  22722292.531    -1889103.042 6  -1378860.654 6
  23110150.156    -1479726.077 6  -1080571.944 5
 95  2 16 16 10 30.0000000  0  6 25 15  1 14 22 29
  21443278.875      397477.913 7    293696.463 8
  21734323.414      462070.818 6    341714.746 7
  24661397.039      614287.000 4    450330.755 2
  21410678.070    -1788779.302 7  -1310469.734 8
  22700163.469    -2005400.254 6  -1469481.832 6
  23092650.562    -1571673.217 6  -1152219.083 5
 95  2 16 16 11  0.0000000  0  6 25 15  1 14 22 29
  21448318.039      423958.361 7    314330.533 9
  21740254.719      493238.279 6    366001.019 7
  24668252.547      650279.213 5    478376.499 2
  21391074.555    -1891814.020 7  -1390756.543 8
  22678075.445    -2121473.167 6  -1559928.262 6
  23075164.953    -1663547.923 6  -1223809.770 5
 95  2 16 16 11 30.0000000  0  6 25 15  1 14 22 29
  21453422.141      450776.614 7    335227.838 9
  21746265.078      524833.971 6    390620.982 6
  24675107.945      686277.106 5    506426.722 2
  21371513.594    -1994600.109 7  -1470849.611 8
  22656030.430    -2237328.953 6  -1650205.491 6
  23057696.094    -1755358.387 6  -1295350.399 5
 95  2 16 16 12  0.0000000  0  6 25 15  1 14 22 29
  21458583.453      477905.192 7    356366.940 9
  21752358.961      556849.142 6    415567.808 6
  24681950.422      722257.916 5    534463.590 1
  21352000.969    -2097145.530 7  -1550755.141 8
  22634023.898    -2352951.178 6  -1740300.730 5
  23040234.891    -1847115.323 6  -1366849.315 5
 95  2 16 16 12 30.0000000  0  6 25 15  1 14 22 29
  21463807.695      505341.001 7    377745.450 9
  21758526.242      589285.284 6    440842.679 6
  24688789.016      758218.386 5    562484.617 2
  21332532.000    -2199448.265 7  -1630471.567 8
  22612076.547    -2468315.723 6  -1830195.186 6
  23022789.602    -1938794.104 6  -1438287.333 5
 95  2 16 16 13  0.0000000  0  6 25 15  1 14 22 29
  21469082.422      533070.216 7    399352.585 9
  21764777.930      622126.294 6    466433.019 6
  24695631.031      794136.773 5    590472.862 3
  21313110.523    -2301517.370 7  -1710005.943 8
  22590169.562    -2583425.029 6  -1919890.745 6
  23005357.352    -2030408.670 6  -1509675.313 5
 95  2 16 16 13 30.0000000  0  6 25 15  1 14 22 29
  21474414.984      561093.743 7    421189.055 9
  21771107.539      655378.968 6    492344.136 6
  24702450.437      830013.116 4    618428.300 2
  21293731.914    -2403333.869 7  -1789343.492 8
  22568317.516    -2698259.384 6  -2009372.053 6
  22987937.492    -2121953.219 6  -1581008.731 5
 95  2 16 16 14  0.0000000  0  6 25 15  1 14 22 29
  21479805.250      589411.462 7    443254.771 9
  21777510.961      689037.869 6    518571.783 6
  24709273.797      865850.159 4    646353.118 2
  21274409.180    -2504891.603 7  -1868479.402 8
  22546517.539    -2812808.647 6  -2098631.203 5
  22970524.492    -2213435.766 6  -1652293.852 5
 95  2 16 16 14 30.0000000  0  6 25 15  1 14 22 29
  21485253.742      618047.844 7    465568.791 9
  21783995.625      723102.608 6    545115.688 6
  24716088.680      901665.646 4    674261.184 2
  21255134.109    -2606168.031 7  -1947396.108 8
  22524776.555    -2927077.920 6  -2187672.194 5
  22953131.703    -2304849.406 6  -1723525.275 5
 95  2 16 16 15  0.0000000  0  6 25 15  1 14 22 29
  21490762.023      646995.074 7    488125.032 9
  21790553.555      757568.031 6    571971.795 6
  24722902.414      937450.878 4    702145.647 2
  21235917.719    -2707159.047 7  -2026090.415 8
  22503078.336    -3041074.536 6  -2276500.727 6
  22935744.242    -2396219.491 6  -1794722.761 5
 95  2 16 16 15 30.0000000  0  6 25 15  1 14 22 29
  21496333.148      676267.718 7    510934.850 9
  21797187.945      792445.468 6    599148.967 6
  24729705.078      973219.423 5    730017.095 2
  21216757.328    -2807853.900 7  -2104553.947 8
  22481439.094    -3154798.925 6  -2365117.124 6
  22918366.023    -2487539.347 6  -1865881.096 5
 95  2 16 16 16  0.0000000  0  6 25 15  1 14 22 29
  21501961.953      705859.147 7    533993.063 9
  21803904.773      827722.264 6    626637.314 6
  24736514.969     1008969.300 5    757874.028 1
  21197648.359    -2908263.092 7  -2182794.892 8
  22459846.516    -3268268.449 6  -2453534.930 6
  22900998.805    -2578817.749 6  -1937007.133 5
 95  2 16 16 16 30.0000000  0  6 25 15  1 14 22 29
  21507652.211      735757.514 7    557290.443 9
  21810689.852      863391.405 6
  24743310.594     1044698.109 5
  21178594.594    -3008397.815 7  -2260821.955 8
  22438301.422    -3381494.191 6  -2541762.783 5
  22883635.695    -2670057.986 6  -2008103.440 5
 95  2 16 16 17  0.0000000  0  6 25 15  1 14 22 29
  21513400.016      765954.089 7    580820.206 9
  21817551.898      899453.502 6    682531.674 6
  24750100.984     1080406.928 5    813539.450 3
  21159589.102    -3108271.239 7  -2338645.406 8
  22416802.891    -3494467.498 6  -2629793.920 6
  22866277.781    -2761255.842 6  -2079166.709 5
 95  2 16 16 17 30.0000000  0  6 25 15  1 14 22 29
  21519204.961      796460.266 7    604591.212 9
  21824488.008      935908.269 6    710937.923 6
  24756897.477     1116102.542 5    841354.052 4
  21140635.102    -3207871.042 7  -2416255.645 8
  22395354.734    -3607182.169 6  -2717623.515 6
  22848938.273    -2852391.773 6  -2150181.722 5
 95  2 16 16 18  0.0000000  0  5 25 15 14 22 29
  21525065.062      827253.715 7    628586.063 8
  21831497.109      972739.703 6    739637.677 6
  21121734.258    -3307195.863 7  -2493651.623 8
  22373960.680    -3719614.962 6  -2805233.487 6
  22831602.836    -2943468.821 6  -2221150.867 5
 95  2 16 16 18 30.0000000  0  5 25 15 14 22 29
  21530978.219      858332.709 7    652803.414 8
  21838577.297     1009945.316 6    768629.001 6
  21102887.414    -3406241.225 7  -2570829.837 8
  22352618.711    -3831748.102 6  -2892609.964 6
  22814285.742    -3034476.825 6  -2292066.215 5
 95  2 16 16 18 59.9990000  0  5 25 15 14 22 29
  21536950.448      889709.466 7    677252.792 8
  21845729.558     1047534.061 6    797918.872 6
  21084095.894    -3504982.891 7  -2647771.399 8
  22331342.964    -3943558.655 6  -2979735.057 6
  22796990.753    -3125386.655 6  -2362905.053 5
 95  2 16 16 19 29.9990000  0  5 25 15 14 22 29
  21542977.175      921385.271 7    701935.192 8
  21852954.854     1085508.496 6    827509.266 6
  21065367.651    -3603408.530 7  -2724466.710 8
  22310127.722    -4055038.692 6  -3066602.620 6
  22779705.370    -3216206.501 6  -2433673.766 5
 95  2 16 16 19 59.9990000  0  5 25 15 14 22 29
  21549062.261      953354.662 7    726846.362 8
  21860252.847     1123856.751 6    857390.955 6
  21046696.276    -3701525.396 7  -2800921.411 8
  22288976.706    -4166201.090 6  -3153222.658 6
  22762436.065    -3306947.763 6  -2504381.244 5
 95  2 16 16 20 29.9990000  0  5 25 15 14 22 29
  21555196.800      985604.705 7    751976.224 8
  21867620.737     1162562.030 6    887550.850 6
  21028079.737    -3799356.862 7  -2877153.724 8
  22267871.706    -4277104.610 6  -3239640.972 6
  22745183.581    -3397631.187 6  -2575043.659 5
 95  2 16 16 20 59.9990000  0  5 25 15 14 22 29
  21561389.237     1018144.377 7    777331.763 8
  21875060.175     1201641.219 6    918002.096 6
  21009521.229    -3896876.744 7  -2953143.246 8
  22246821.214    -4387743.167 6  -3325852.845 6
  22727936.253    -3488256.721 6  -2645660.967 5
 95  2 16 16 21 29.9990000  0  5 25 15 14 22 29
  21567634.651     1050963.055 7    802904.714 8
  21882560.573     1241082.749 6    948735.697 6
  20991023.026    -3994088.069 7  -3028892.342 8
  22225812.253    -4498131.762 6  -3411869.937 6
  22710701.245    -3578845.432 6  -2716249.567 5
 95  2 16 16 21 59.9990000  0  5 25 15 14 22 29
  21573933.370     1084059.074 7    828693.776 8
  21890136.456     1280884.844 6    979750.250 6
  20972581.104    -4090995.075 7  -3104404.308 8
  22204847.894    -4608285.821 6  -3497704.250 6
  22693470.917    -3669386.627 6  -2786801.148 5
 95  2 16 16 22 29.9990000  0  5 25 15 14 22 29
  21580283.972     1117434.253 7    854700.365 8
  21897783.729     1321058.537 6   1011054.365 6
  20954201.183    -4187584.815 7  -3179669.049 9
  22183943.347    -4718161.882 6  -3583321.957 6
  22676252.011    -3759870.372 6  -2857307.966 6
 95  2 16 16 22 59.9990000  0  5 25 15 14 22 29
  21586687.769     1151087.181 7    880923.378 8
  21905490.995     1361587.651 6   1042635.415 6
  20935881.128    -4283869.437 7  -3254696.026 8
  22163090.284    -4827729.403 6  -3668699.259 6
  22659041.261    -3850314.138 6  -2927783.633 5
 95  2 16 16 23 29.9990000  0  5 25 15 14 22 29
  21593146.667     1185029.505 7    907371.894 8
  21913272.651     1402463.110 6   1074486.354 6
  20917611.511    -4379870.091 7  -3329501.737 9
  22142304.604    -4936971.035 6  -3753822.607 6
  22641834.472    -3940715.276 6  -2998226.085 5
 95  2 16 16 23 59.9990000  0  5 25 15 14 22 29
  21599659.050     1219247.895 7    934035.529 8
  21921111.378     1443672.226 6   1106597.285 6
  20899392.792    -4475608.499 7  -3404103.098 9
  22121579.362    -5045878.748 6  -3838685.748 6
  22624638.878    -4031093.218 6  -3068650.468 6
 95  2 16 16 24 29.9990000  0  5 25 15 14 22 29
  21606223.065     1253744.446 7    960915.916 8
  21929020.331     1485214.183 6   1138967.571 6
  20881223.792    -4571083.315 7  -3478499.062 9
  22100923.011    -5154432.776 6  -3923273.311 6
  22607444.823    -4121451.290 6  -3139059.357 6
 95  2 16 16 24 59.9990000  0  5 25 15 14 22 29
  21612842.229     1288533.856 7    988024.503 8
  21936991.565     1527103.622 6   1171608.612 6
  20863113.167    -4666262.919 7  -3552664.991 9
  22080332.136    -5262633.034 6  -4007585.199 6
  22590260.948    -4211749.319 6  -3209421.466 6
 95  2 16 16 25 29.9990000  0  5 25 15 14 22 29
  21619513.847     1323588.434 7   1015339.719 8
  21945024.128     1569329.172 6   1204511.564 6
  20845056.956    -4761144.850 7  -3626598.975 9
  22059806.417    -5370504.477 6  -4091640.853 6
  22573088.636    -4301984.076 6  -3279734.267 6
 95  2 16 16 25 59.9990000  0  5 25 15 14 22 29
  21626232.987     1358897.659 7   1042853.353 8
  21953124.354     1611887.655 6   1237673.952 6
  20827062.222    -4855708.555 7  -3700284.988 9
  22039335.706    -5478067.252 6  -4175455.993 6
  22555934.479    -4392144.134 6  -3349988.856 6
 95  2 16 16 26 29.9990000  0  5 25 15 14 22 29
  21633000.526     1394466.297 7   1070569.127 8
  21961289.519     1654779.200 6   1271095.859 6
  20809130.956    -4949932.745 7  -3773706.436 9
  22018930.315    -5585315.632 6  -4259026.151 6
  22538796.839    -4482202.883 6  -3420164.520 6
 95  2 16 16 26 59.9990000  0  5 25 15 14 22 29
  21639816.659     1430286.558 7   1098480.970 8
  21969514.612     1698012.370 6   1304783.959 6
  20791272.589    -5043798.340 7  -3846848.466 9
  21998580.878    -5692233.764 6  -4342338.979 6
  22521676.823    -4572151.188 6  -3490254.122 6
 95  2 16 16 27 29.9990000  0  5 25 15 14 22 29
  21646679.651     1466344.697 7   1126578.173 8
  21977802.597     1741576.500 6   1338729.968 6
  20773472.229    -5137318.836 7  -3919721.591 9
  21978303.495    -5798814.197 6  -4425388.661 6
  22504578.894    -4662018.411 6  -3560280.544 6
 95  2 16 16 27 59.9990000  0  5 25 15 14 22 29
  21653586.128     1502643.051 7   1154862.555 8
  21986155.690     1785471.791 6   1372934.017 6
  20755745.120    -5230481.051 7  -3992315.531 9
  21958083.409    -5905036.635 6  -4508159.389 6
  22487493.112    -4751808.090 6  -3630246.538 6
 95  2 16 16 28 29.9990000  0  5 25 15 14 22 29
  21660536.761     1539169.350 7   1183324.558 8
  21994574.308     1829700.925 6   1407398.207 6
  20738085.800    -5323274.378 7  -4064622.035 9
  21937947.683    -6010869.912 6  -4590626.872 6
  22470418.440    -4841530.509 6  -3700160.125 6
 95  2 16 16 28 59.9990000  0  5 25 15 14 22 29
  21667529.331     1575907.189 7   1211951.404 8
  22003049.417     1874247.789 6   1442109.955 6
  20720497.440    -5415711.538 7  -4136650.997 9
  21917877.815    -6116330.039 6  -4672803.607 6
  22453353.347    -4931208.892 6  -3770039.387 6
 95  2 16 16 29 29.9990000  0  5 25 15 14 22 29
  21674565.065     1612888.984 7   1240768.329 8
  22011589.589     1919117.514 6   1477073.310 6
  20702976.854    -5507782.270 7  -4208394.428 8
  21897881.456    -6221422.709 6  -4754693.999 6
  22436295.409    -5020835.008 6  -3839877.930 6
 95  2 16 16 29 59.9990000  0  5 25 15 14 22 29
  21681650.972     1650123.581 7   1269782.249 8
  22020191.214     1964303.157 6   1512282.832 6
  20685525.370    -5599487.951 7  -4279853.411 9
  21877948.800    -6326160.691 6  -4836307.999 6
  22419254.534    -5110409.664 6  -3909676.374 6
 95  2 16 16 30 29.9990000  0  5 25 15 14 22 29
  21688785.019     1687610.379 7   1298992.691 8
  22028846.034     2009797.667 6   1547733.033 6
  20668138.440    -5690859.945 7  -4351052.377 8
  21858083.995    -6430563.574 6  -4917660.896 6
  22402218.761    -5199931.116 6  -3979433.358 6
 95  2 16 16 30 59.9990000  0  5 25 15 14 22 29
  21695972.081     1725372.904 7   1328417.983 7
  22037562.659     2055612.570 6   1583432.874 6
  20650813.433    -5781901.985 7  -4421994.231 9
  21838277.722    -6534637.273 6  -4998757.286 6
  22385198.034    -5289381.119 6  -4049134.670 6
 95  2 16 16 31 29.9990000  0  5 25 15 14 22 29
  21703207.784     1763400.713 7   1358049.991 7
  22046338.050     2101729.592 6   1619368.137 6
  20633549.011    -5872628.555 7  -4492690.272 9
  21818535.495    -6638390.076 6  -5079603.620 6
  22368184.253    -5378781.367 6  -4118797.209 6
 95  2 16 16 31 59.9990000  0  5 25 15 14 22 29
  21710491.440     1801681.734 7   1387879.321 8
  22055175.159     2148146.834 6   1655537.326 6
  20616345.214    -5963035.684 7  -4563137.399 9
  21798859.972    -6741794.506 6  -5160178.502 6
  22351177.722    -5468127.713 6  -4188417.732 6
 95  2 16 16 32 29.9990000  0  5 25 15 14 22 29
  21717824.347     1840207.817 7   1417899.580 7
  22064062.269     2194867.729 6   1691943.127 6
  20599203.839    -6053110.605 7  -4633325.663 9
  21779248.776    -6844832.197 6  -5240467.611 6
  22334190.034    -5557410.522 6  -4257988.752 6
 95  2 16 16 32 59.9990000  0  5 25 15 14 22 29
  21725202.854     1878982.862 7   1448113.831 8
  22073009.019     2241889.491 6   1728583.378 6
  20582134.519    -6142816.689 7  -4703226.522 9
  21759717.651    -6947484.396 6  -5320456.317 6
  22317210.737    -5646639.745 6  -4327518.022 6
 95  2 16 16 33 29.9990000  0  5 25 15 14 22 29
  21732626.808     1918000.848 7   1478517.412 7
  22082017.597     2289201.416 6   1765449.761 6
  20565136.308    -6232142.931 7
  21740257.112    -7049735.663 6  -5400132.625 6
  22300235.284    -5735821.305 6
 95  2 16 16 33 59.9990000  0  5 25 15 14 22 29
  21740095.886     1957242.896 7   1509095.579 7
  22091073.190     2336803.097 6   1802541.889 6
  20548210.948    -6321087.728 7  -4842139.040 8
  21720875.534    -7151584.115 6  -5479495.052 6
  22283279.612    -5824939.935 6  -4466453.243 6
 95  2 16 16 34 29.9990000  0  5 25 15 14 22 29
  21747603.190     1996703.499 7   1539844.050 7
  22100186.448     2384687.903 6   1839854.650 6
  20531354.831    -6409653.738 7  -4911151.529 8
  21701571.042    -7253043.872 6  -5558554.590 6
  22266336.964    -5913993.472 6  -4535845.603 6
 95  2 16 16 34 59.9990000  0  5 25 15 14 22 29
  21755155.222     2036378.388 7   1570759.500 7
  22109348.394     2432853.956 6   1877386.566 6
  20514577.808    -6497840.848 7  -4979868.766 8
  21682335.464    -7354111.839 6  -5637308.847 6
  22249398.534    -6002976.533 6  -4605183.047 6
 95  2 16 16 35 29.9990000  0  5 25 15 14 22 29
  21762740.714     2076252.076 7   1601829.853 7
  22118572.097     2481301.820 6   1915138.072 6
  20497863.347    -6585658.350 7  -5048298.003 9
  21663180.792    -7454789.218 6  -5715758.727 6
  22232484.151    -6091881.926 6  -4674459.977 6
 95  2 16 16 35 59.9990000  0  5 25 15 14 22 29
  21770366.581     2116322.154 7   1633053.242 7
  22127838.464     2530029.621 6   1953107.699 6
  20481221.597    -6673105.834 7  -5116438.910 8
  21644095.628    -7555079.631 6  -5793907.089 6
  22215582.737    -6180713.701 6  -4743679.544 6
 95  2 16 16 36 29.9990000  0  5 25 15 14 22 29
  21778031.956     2156600.303 7   1664438.771 7
  22137170.534     2579037.109 6   1991295.260 6
  20464653.597    -6760177.062 7  -5184286.633 8
  21625081.058    -7654977.617 6  -5871749.651 6
  22198689.558    -6269483.319 6  -4812850.677 6
 95  2 16 16 36 59.9990000  0  5 25 15 14 22 29
  21785735.823     2197087.050 7   1695986.841 7
  22146549.378     2628325.053 6   2029701.367 6
  20448158.581    -6846864.784 7  -5251835.525 8
  21606150.175    -7754481.216 6  -5949284.897 6
  22181803.659    -6358197.313 6  -4881978.479 6
 95  2 16 16 37 29.9990000  0  5 25 15 14 22 29
  21793482.605     2237793.809 7   1727706.345 7
  22155980.573     2677889.350 6   2068322.810 6
  20431731.347    -6933178.825 7  -5319093.229 8
  21587292.800    -7853590.029 6  -6026512.522 6
  22164936.183    -6446865.509 6  -4951070.563 6
 95  2 16 16 37 59.9990000  0  5 25 15 14 22 29
  21801269.745     2278713.642 7   1759591.880 7
  22165458.979     2727710.104 6   2107144.097 6
  20415377.761    -7019137.261 7  -5386073.834 8
  21568501.229    -7952317.690 6  -6103443.151 6
  22148064.175    -6535500.647 6  -5020136.904 6
 95  2 16 16 38 29.9990000  0  5 25 15 14 22 29
  21809094.433     2319840.220 7   1791638.514 7
  22174988.058     2777782.513 6   2146161.477 6
  20399087.761    -7104737.555 7  -5452775.369 8
  21549786.612    -8050665.432 6  -6180077.732 6
  22131203.870    -6624100.976 6  -5089176.132 6
 95  2 16 16 38 59.9990000  0  5 25 15 14 22 29
  21816961.472     2361180.844 7   1823851.943 7
  22184567.737     2828108.559 6   2185376.494 6
  20382864.987    -7189971.371 7  -5519191.332 8
  21531151.136    -8148610.590 6  -6256398.622 6
  22114354.339    -6712655.029 6  -5158179.300 6
 95  2 16 16 39 29.9990000  0  5 25 15 14 22 29
  21824870.261     2402741.130 7   1856236.531 7
  22194190.503     2878683.910 6   2224785.767 6
  20366719.503    -7274819.764 7  -5585306.970 9
  21512593.472    -8246132.375 6  -6332389.607 6
  22097512.792    -6801156.980 6  -5227141.851 6
 95  2 16 16 39 59.9990000  0  5 25 15 14 22 29
  21832818.339     2444508.047 7   1888782.127 7
  22203862.745     2929505.804 6   2264387.162 6
  20350654.253    -7359254.328 7  -5651100.147 9
  21494114.058    -8343226.671 6  -6408047.492 6
  22080683.706    -6889594.785 6  -5296054.432 6
 95  2 16 16 40 29.9990000  0  5 25 15 14 22 29
  21840806.651     2486487.987 7   1921493.716 7
  22213581.894     2980580.117 6   2304185.255 6
  20334671.714    -7443255.629 7  -5716555.711 9
  21475723.362    -8439868.537 6  -6483352.820 6
  22063869.292    -6977952.040 6  -5364904.240 6
 95  2 16 16 40 59.9980000  0  5 25 15 14 22 29
  21848834.232     2528670.204 7   1954362.920 7
  22223345.787     3031894.461 6   2344170.371 6
  20318765.639    -7526832.585 7  -5781680.618 9
  21457420.709    -8536054.204 6  -6558302.688 6
  22047070.982    -7066225.267 6  -5433688.581 6
 95  2 16 16 41 29.9980000  0  5 25 15 14 22 29
  21856901.162     2571058.076 7   1987392.371 7
  22233158.842     3083456.562 6   2384348.561 6
  20302937.311    -7609996.000 7  -5846483.286 9
  21439204.732    -8631798.476 7  -6632908.605 6
  22030291.264    -7154408.622 6  -5502402.885 6
 95  2 16 16 41 59.9980000  0  5 25 15 14 22 29
  21865002.553     2613635.477 7   2020569.500 7
  22243014.764     3135260.784 6   2424715.402 5
  20287187.209    -7692770.144 7  -5910982.629 9
  21421066.482    -8727111.523 6  -6707178.499 7
  22013524.803    -7242504.976 6  -5571049.389 6
 95  2 16 16 42 29.9980000  0  5 25 15 14 22 29
  21873144.006     2656407.616 7   2053898.392 7
  22252918.459     3187299.339 6   2465264.839 6
  20271506.396    -7775168.245 7  -5975188.944 9
  21403008.881    -8821995.149 7  -6781113.786 6
  21996780.115    -7330526.791 6  -5639637.808 6
 95  2 16 16 42 59.9980000  0  5 25 15 14 22 29
  21881317.857     2699371.451 7   2087376.646 7
  22262861.896     3239562.792 6   2505989.528 5
  20255897.170    -7857197.040 7  -6039107.501 9
  21385029.943    -8916471.189 7  -6854731.471 7
  21980038.287    -7418495.138 6  -5708184.570 6
 95  2 16 16 43 29.9980000  0  5 25 15 14 22 29
  21889528.412     2742518.368 7   2120997.556 7
  22272851.295     3292047.105 6   2546886.302 5
  20240359.998    -7938844.658 7  -6102729.029 9
  21367128.631    -9010539.889 7  -6928031.742 7
  21963307.889    -7506421.393 6  -5776698.523 6
 95  2 16 16 43 59.9980000  0  5 25 15 14 22 29
  21897772.787     2785846.632 7   2154759.779 7
  22282880.850     3344752.354 6   2587955.251 6
  20224903.701    -8020079.024 7  -6166028.538 9
  21349306.990    -9104189.043 7  -7001005.102 7
  21946581.240    -7594309.493 6  -5845182.740 6
 95  2 16 16 44 29.9980000  0  5 25 15 14 22 29
  21906056.826     2829375.525 7   2188678.337 7
  22292956.654     3397682.855 6   2629199.699 6
  20209528.076    -8100878.092 7  -6228988.863 9
  21331568.990    -9197404.364 7  -7073640.412 7
  21929864.857    -7682157.807 6  -5913635.965 6
 95  2 16 16 44 59.9980000  0  5 25 15 14 22 29
  21914370.693     2873067.320 7   2222723.824 7
  22303065.186     3450821.241 6   2670606.150 5
  20194232.193    -8181263.983 7  -6291627.228 9
  21313911.982    -9290193.443 7  -7145943.572 7
  21913150.514    -7769979.490 6  -5982068.446 6
 95  2 16 16 45 29.9980000  0  5 25 15 14 22 29
  21922718.670     2916925.381 7   2256898.882 7
  22313217.842     3504178.165 5   2712182.900 5
  20179017.389    -8261221.452 7  -6353931.770 9
  21296339.764    -9382534.920 7  -7217897.958 7
  21896447.537    -7857752.980 6  -6050463.366 6
 95  2 16 16 45 59.9980000  0  5 25 15 14 22 29
  21931096.701     2960951.388 7   2291204.801 7
  22323409.787     3557750.282 6   2753927.293 6
  20163882.381    -8340749.782 7  -6415901.903 9
  21278852.732    -9474429.522 7  -7289504.136 7
  21879759.240    -7945479.094 6  -6118821.372 6
 95  2 16 16 46 29.9980000  0  5 25 15 14 22 29
  21939501.248     3005135.963 7   2325634.286 7
  22333645.912     3611527.385 6   2795831.442 6
  20148826.568    -8419874.279 7  -6477557.369 9
  21261449.975    -9565881.509 7  -7360765.405 7
  21863069.342    -8033150.746 6  -6187136.951 6
 95  2 16 16 46 59.9980000  0  6 25 15 18 14 22 29
  21947937.623     3049462.372 7   2360174.300 7
  22343918.139     3665500.182 6   2837888.075 5
  24244790.123          -0.98613
  20133845.365    -8498603.344 7  -6538904.704 8
  21244128.896    -9656897.345 7  -7431686.830 7
  21846399.834    -8120757.307 6  -6255401.806 6
 95  2 16 16 47 29.9980000  0  6 25 15 18 14 22 29
  21956404.873     3093954.724 7   2394843.610 7
  22354226.881     3719675.833 6   2880102.779 5
  24223183.045     -113534.449 3
  20118943.076    -8576914.312 7  -6599926.249 8
  21226895.686    -9747465.355 7  -7502259.302 7
  21829743.615    -8208289.034 6  -6323608.343 6
 95  2 16 16 47 59.9980000  0  6 25 15 18 14 22 29
  21964904.865     3138623.146 7   2429650.126 7
  22364572.693     3774052.170 5   2922473.863 5
  24201579.053     -227059.283 3
  20104120.654    -8654807.006 7  -6660621.863 9
  21209750.772    -9837569.515 7  -7572470.319 7
  21813100.451    -8295742.900 6  -6391754.213 6
 95  2 16 16 48 29.9980000  0  6 25 15 18 14 22 29
  21973439.412     3183472.289 7   2464597.457 7
  22374962.225     3828622.159 5   2964995.826 5
  24179969.803     -340603.592 3        -0.06112
  20089373.146    -8732291.608 7  -6720999.483 8
  21192690.045    -9927208.351 7  -7642318.746 7
  21796480.771    -8383114.552 6  -6459836.021 6
 95  2 16 16 48 59.9980000  0  6 25 15 18 14 22 29
  21982009.920     3228505.333 7   2499688.096 7
  22385379.951     3883381.851 6   3007665.630 5
  24158360.490     -454171.952 3    -88494.869 1
  20074708.209    -8809354.603 7  -6781048.587 8
  21175725.146   -10016380.176 7  -7711803.275 7
  21779861.209    -8470421.353 6  -6527867.301 6
 95  2 16 16 49 29.9980000  0  6 25 15 18 14 22 29
  21990613.725     3273718.945 7   2534919.436 6
  22395835.201     3938327.799 6   3050480.549 5
  24136742.115     -567760.510 3   -177005.459 2
  20060126.022    -8885984.443 7  -6840760.165 9
  21158845.248   -10105091.178 7  -7780928.719 7
  21763257.967    -8557672.393 6  -6595855.123 6
 95  2 16 16 49 59.9980000  0  6 25 15 18 14 22 29
  21999250.686     3319113.466 7   2570291.732 7
  22406326.412     3993463.107 6   3093443.029 5
  24115129.256     -681366.932 2   -265529.950 2
  20045627.818    -8962169.994 7  -6900125.542 8
  21142048.381   -10193344.530 7  -7849697.551 7
  21746669.295    -8644854.217 6  -6663789.023 6
 95  2 16 16 50 29.9980000  0  6 25 15 18 14 22 29
  22007919.545     3364659.655 7   2605782.221 6
  22416851.975     4048772.048 6   3136540.822 5
  24093500.639     -795007.333 2   -354080.917 2
  20031214.912    -9037918.475 7  -6959150.347 8
  21125337.021   -10281170.474 7  -7918133.348 7
  21730088.717    -8731981.019 6  -6731680.029 6
 95  2 16 16 50 59.9980000  0  6 25 15 18 14 22 29
  22016614.678     3410356.865 7   2641390.384 6
  22427410.600     4104262.563 5   3179780.094 5
  24071874.037     -908642.496 2   -442627.840 2
  20016890.857    -9113203.587 7  -7017814.082 8
  21108707.787   -10368550.353 7
  21713521.014    -8819039.455 6
 95  2 16 16 51 29.9980000  0  6 25 15 18 14 22 29
  22025336.748     3456200.004 7   2677112.257 6
  22438004.209     4159927.743 5   3223155.450 5
  24050256.412    -1022262.134 3   -531162.616 1
  20002653.787    -9188018.949 7  -7076111.776 8
  21092167.107   -10455469.390 7  -8053950.658 7
  21696968.311    -8906018.447 6  -6867293.609 6
 95  2 16 16 51 59.9980000  0  6 25 15 18 14 22 29
  22034087.881     3502177.457 7   2712938.794 6
  22448628.186     4215758.850 6   3266660.108 5
  24028642.389    -1135857.664 3   -619678.627 1
  19988503.240    -9262374.223 7  -7134050.959 8
  21075717.826   -10541905.905 7  -8121303.775 7
  21680433.326    -8992924.584 6  -6935012.690 6
 95  2 16 16 52 29.9980000  0  6 25 15 18 14 22 29
  22042859.701     3548280.181 7   2748862.939 7
  22459284.381     4271747.370 5   3310287.433 5
  24007027.975    -1249435.719 3   -708181.033 1
  19974434.881    -9336285.614 7  -7191644.261 8
  21059369.107   -10627846.892 7  -8188270.778 7
  21663905.748    -9079772.309 6  -7002686.242 6
 95  2 16 16 52 59.9980000  0  6 25 15 18 14 22 29
  22051660.154     3594520.812 7   2784894.539 6
  22469969.318     4327903.261 5   3354045.181 5
  23985422.928    -1362988.371 3   -796663.615 1
  19960457.389    -9409740.735 7  -7248882.041 8
  21043113.365   -10713258.409 7  -8254825.209 7
  21647393.998    -9166551.849 6  -7070306.660 6
 95  2 16 16 53 29.9980000  0  6 25 15 18 14 22 29
  22060482.787     3640891.297 6   2821027.333 6
  22480685.834     4384215.466 5   3397924.714 5
  23963804.818    -1476548.617 3   -885152.100 1
  19946563.764    -9482775.301 7  -7305792.106 8
  21026955.537   -10798160.599 7  -8320982.752 7
  21630887.670    -9253282.626 7  -7137889.089 6
 95  2 16 16 53 59.9980000  0  6 25 15 18 14 22 29
  22069331.990     3687390.177 6   2857260.164 6
  22491430.373     4440672.637 5   3441917.201 5
  23942195.022    -1590135.593 4   -973661.443 4
  19932736.990    -9555421.020 7  -7362399.173 8
  21010890.084   -10882585.495 7  -8386768.385 7
  21614393.662    -9339978.505 7  -7205444.312 6
 95  2 16 16 54 29.9980000  0  6 25 15 18 14 22 29
  22078213.162     3734049.909 6   2893618.330 6
  22502201.287     4497285.690 5   3486031.165 5
  23920571.600    -1703762.178 4  -1062201.607 2
  19918989.209    -9627669.889 7  -7418697.008 8
  20994918.154   -10966527.739 7  -8452177.917 7
  21597904.779    -9426619.343 7  -7272956.657 6
 95  2 16 16 54 59.9980000  0  6 25 15 18 14 22 29
  22087121.045     3780868.909 6   2930100.606 6
  22513002.732     4554043.431 5   3530257.879 5
  23898937.725    -1817439.907 4  -1150781.681 1
  19905317.943    -9699516.131 7  -7474681.095 8
  20979032.646   -11049996.747 7  -8517218.695 7
  21581426.568    -9513206.688 7  -7340427.323 6
 95  2 16 16 55 29.9980000  0  6 25 15 18 14 22 29
  22096062.826     3827854.213 6   2966712.466 6
  22523829.623     4610945.560 5   3574597.090 5
  23877299.545    -1931159.180 4  -1239394.094 2
  19891723.186    -9770949.957 7  -7530343.830 8
  20963238.592   -11133003.999 7  -8581899.659 7
  21564961.053    -9599730.722 7  -7407848.642 6
 95  2 16 16 55 59.9980000  0  6 25 15 18 14 22 29
  22105034.459     3875008.222 6   3003455.789 6
  22534689.529     4667998.196 5   3619053.562 5
  23855652.732    -2044904.540 4  -1328026.854 2
  19878221.014    -9841919.725 7  -7585644.962 8
  20947535.498   -11215519.391 7  -8646197.357 7
  21548508.897    -9686179.181 7  -7475211.069 6
 95  2 16 16 56 29.9980000  0  6 25 15 18 14 22 29
  22114033.889     3922297.083 6   3040304.199 6
  22545570.428     4725192.947 5   3663620.794 5
  23834005.178    -2158685.387 5  -1416687.258 1
  19864804.975    -9912400.850 7  -7640565.332 8
  20931933.068   -11297524.649 7  -8710097.535 7
  21532073.428    -9772563.175 6  -7542523.269 7
 95  2 16 16 56 59.9980000  0  6 25 15 18 14 22 29
  22123052.873     3969701.975 6   3077243.020 6
  22556481.764     4782524.833 5   3708294.887 5
  23812351.365    -2272472.173 5  -1505352.290 2
  19851491.084    -9982378.761 7  -7695093.581 8
  20916421.732   -11379025.971 7  -8773605.052 7
  21515642.553    -9858890.075 7  -7609790.982 7
 95  2 16 16 57 29.9980000  0  6 25 15 18 14 22 29
  22132097.678     4017217.905 6   3114268.357 6
  22567416.975     4839988.292 5   3753071.485 5
  23790696.842    -2386261.035 5  -1594018.966 1
  19838270.076   -10051853.377 7  -7749229.651 8
  20901010.389   -11460013.190 7  -8836711.969 7
  21499227.225    -9945166.997 7  -7677019.748 7
 95  2 16 16 57 59.9980000  0  6 25 15 18 14 22 29
  22141158.897     4064837.168 6   3151374.209 6
  22578373.037     4897575.947 5   3797944.876 5
  23769043.873    -2500062.328 5  -1682695.362 1
  19825143.709   -10120829.348 7  -7802977.171 8
  20885699.084   -11540474.237 7  -8899408.867 7
  21482816.365   -10031404.193 7  -7744217.564 7
 95  2 16 16 58 29.9980000  0  6 25 15 18 14 22 29
  22150240.967     4112567.313 6   3188566.471 6
  22589358.115     4955285.780 5   3842913.451 5
  23747386.053    -2613865.618 5  -1771373.303 1
  19812108.857   -10189327.847 7  -7856352.634 8
  20870485.311   -11620423.894 7  -8961707.291 7
  21466416.154   -10117598.997 7  -7811382.334 7
 95  2 16 16 58 59.9980000  0  6 25 15 18 14 22 29
  22159348.123     4160423.540 6   3225856.984 6
  22600359.951     5013113.473 5   3887973.865 5
  23725732.764    -2727662.864 5  -1860046.516 1
  19799160.568   -10257359.799 7  -7909364.558 8
  20855365.397   -11699881.799 7  -9023622.530 7
  21450025.162   -10203744.519 7  -7878508.706 7
 95  2 16 16 59 29.9980000  0  6 25 15 18 14 22 29
  22168475.100     4208402.247 6   3263242.949 6
  22611390.326     5071066.260 5   3933131.763 5
  23704076.279    -2841470.222 4  -1948727.590 1
  19786308.279   -10324921.685 7  -7962010.189 8
  20840339.998   -11778836.735 7  -9085145.841 7
  21433641.936   -10289828.923 7  -7945587.460 7
 95  2 16 16 59 59.9980000  0  6 25 15 18 14 22 29
  22177628.951     4256480.825 6   3300706.714 6
  22622439.084     5129123.239 5   3978370.839 5
  23682408.639    -2955307.484 3  -2037431.945 1
  19773531.982   -10392042.051 7  -8014311.790 8
  20825405.967   -11857323.953 7  -9146304.701 7
  21417270.264   -10375856.015 7  -8012621.552 7
 95  2 16 17  0 29.9980000  0  6 25 15 18 14 22 29
  22186796.342     4304665.943 6   3338253.504 6
  22633505.045     5187288.967 5   4023694.661 5
  23660740.584    -3069158.251 3  -2126146.889 1
  19760845.881   -10458713.968 7  -8066263.945 8
  20810558.342   -11935338.497 7  -9207095.237 8
  21400914.146   -10461806.056 7  -8079595.601 7
 95  2 16 17  0 59.9980000  0  6 25 15 18 14 22 29
  22195985.522     4352958.160 6   3375883.748 6
  22644597.545     5245568.586 5   4069107.234 5
  23639077.436    -3183029.782 3  -2214877.916 1
  19748250.037   -10524923.596 7  -8117855.873 8
  20795804.365   -12012857.356 7  -9267499.522 8
  21384575.146   -10547666.187 7  -8146499.598 7
 95  2 16 17  1 29.9980000  0  6 25 15 18 14 22 29
  22205194.912     4401347.234 6   3413589.463 6
  22655707.014     5303945.784 5   4114595.833 5
  23617403.154    -3296932.802 3  -2303633.512 1
  19735732.779   -10590685.217 7  -8169098.702 8
  20781151.537   -12089881.168 7  -9327518.059 8
  21368251.975   -10633447.828 7  -8213342.429 7
 95  2 16 17  1 59.9980000  0  6 25 15 18 14 22 29
  22214426.662     4449857.096 6   3451389.299 6
  22666832.264     5362425.471 5   4160164.275 5
  23595729.975    -3410830.205 3  -2392384.760 1
  19723306.248   -10655985.506 7  -8219982.052 8
  20766589.178   -12166396.601 7  -9387140.448 8
  21351945.701   -10719148.239 7  -8280121.967 7
 95  2 16 17  2 29.9980000  0  6 25 15 18 14 22 29
  22223677.897     4498477.275 6   3489275.095 6
  22677982.521     5420999.278 5   4205806.088 5
  23574059.811    -3524723.007 3  -2481132.406 2
  19710972.287   -10720814.542 7  -8270498.193 8
  20752124.889   -12242396.618 7  -9446361.221 8
  21335647.240   -10804789.780 7  -8346855.637 7
 95  2 16 17  2 59.9970000  0  6 25 15 18 14 22 29
  22232952.868     4547210.025 6   3527248.611 6
  22689143.993     5479669.725 5   4251523.196 5
  23552385.571    -3638601.857 3  -2569869.137 2
  19698725.923   -10785155.470 7  -8320633.991 8
  20737765.915   -12317866.773 7  -9505169.109 8
  21319362.142   -10890370.608 7  -8413541.988 7
 95  2 16 17  3 29.9970000  0  6 25 15 18 14 22 29
  22242244.673     4596048.432 6   3565304.450 6
  22700328.165     5538427.020 5   4297307.957 5
  23530716.665    -3752476.329 3  -2658602.477 2
  19686569.290   -10849027.761 7  -8370404.613 8
  20723506.306   -12392815.388 7  -9563570.593 8
  21303082.665   -10975915.693 7  -8480200.500 7
 95  2 16 17  3 59.9970000  0  6 25 15 18 14 22 29
  22251556.938     4644982.414 6   3603434.758 6
  22711526.813     5597275.478 5   4343163.746 5
  23509052.196    -3866348.311 4  -2747333.891 2
  19674509.196   -10912413.722 7  -8419796.272 8
  20709346.087   -12467219.376 7  -9621547.704 8
  21286809.087   -11061416.064 7  -8546824.164 7
 95  2 16 17  4 29.9970000  0  6 25 15 18 14 22 29
  22260882.626     4693991.877 6   3641623.869 6
  22722743.454     5656209.213 5   4389085.987 5
  23487374.462    -3980250.636 3  -2836088.950 3
  19662538.876   -10975310.935 7  -8468807.095 8
  20695291.329   -12541074.249 7  -9679096.930 8
  21270550.985   -11146869.608 7  -8613411.339 7
 95  2 16 17  4 59.9970000  0  6 25 15 18 14 22 29
  22270221.868     4743077.147 6   3679872.061 6
  22733970.704     5715226.955 5   4435073.697 5
  23465693.829    -4094187.887 3  -2924871.173 3
  19650662.056   -11037729.738 7  -8517445.127 8
  20681339.368   -12614383.588 7  -9736221.061 8
  21254304.142   -11232264.187 7  -8679952.571 7
 95  2 16 17  5 29.9970000  0  6 25 15 18 14 22 29
  22279578.767     4792236.132 6   3718177.679 6
  22745215.431     5774323.095 5   4481122.506 5
  23443998.079    -4208170.870 3  -3013689.029 2
  19638874.110   -11099672.218 7  -8565711.995 8
  20667491.821   -12687150.174 7  -9792922.263 8
  21238059.899   -11317605.146 7  -8746452.016 7
 95  2 16 17  5 59.9970000  0  6 25 15 18 14 22 29
  22288942.806     4841453.208 6   3756528.579 6
  22756475.360     5833484.293 5   4527221.979 5
  23422299.149    -4322206.567 4  -3102548.013 3
  19627180.704   -11161132.258 7  -8613602.949 8
  20653746.142   -12759395.892 7  -9849217.590 8
  21221832.446   -11402890.455 7  -8812908.100 7
 95  2 16 17  6 29.9970000  0  6 25 15 18 14 22 29
  22298327.165     4890751.362 6   3794942.643 6
  22767745.118     5892712.010 5   4573373.274 5
  23400593.079    -4436279.611 4  -3191436.060 4
  19615577.563   -11222108.726 7  -8661117.090 8
  20640095.610   -12831124.971 7  -9905110.355 8
  21205611.485   -11488111.345 7  -8879313.980 7
 95  2 16 17  6 59.9970000  0  6 25 15 18 14 22 29
  22307728.399     4940159.067 6   3833442.076 6
  22779035.462     5952018.460 5   4619585.973 5
  23378881.563    -4550363.154 3  -3280332.317 4
  19604066.970   -11282590.495 7  -8708245.754 8
  20626549.790   -12902322.010 7  -9960588.544 8
  21189412.337   -11573242.071 7  -8945649.604 7
 95  2 16 17  7 29.9970000  0  6 25 15 18 14 22 29
  22317148.001     4989656.406 6   3872011.351 6
  22790326.384     6011382.876 5   4665843.798 5
  23357172.579    -4664463.880 4  -3369241.938 2
  19592650.235   -11342584.397 7  -8754994.254 8
  20613097.876   -12972998.073 7 -10015660.767 8
  21173230.618   -11658301.058 7  -9011929.333 7
 95  2 16 17  7 59.9970000  0  6 25 15 18 14 22 29
  22326582.829     5039242.666 6   3910649.921 6
  22801630.235     6070805.987 5   4712147.369 5
  23335460.884    -4778562.466 5  -3458149.894 4
  19581327.079   -11402089.620 7  -8801361.975 8
  20599754.048   -13043145.391 7 -10070320.985 8
  21157058.907   -11743269.447 7  -9078138.466 7
 95  2 16 17  8 29.9970000  0  6 25 15 18 14 22 29
  22336037.110     5088927.761 6   3949365.504 6
  22812955.587     6130291.120 5   4758499.274 5
  23313746.407    -4892653.639 5  -3547052.070 1
  19570094.235   -11461115.545 7  -8847356.202 8
  20586507.954   -13112753.032 7 -10124560.679 8
  21140908.579   -11828146.012 7  -9144276.046 7
 95  2 16 17  8 59.9970000  0  6 25 15 18 14 22 29
  22345507.837     5138687.935 6   3988139.586 6
  22824282.782     6189826.814 5   4804890.559 5
  23292038.282    -5006735.222 5  -3635946.822 1
  19558956.337   -11519657.122 7  -8892973.026 8
  20573361.735   -13181824.845 7 -10178382.853 8
  21124771.126   -11912945.945 7  -9210353.907 7
 95  2 16 17  9 29.9970000  0  6 25 15 18 14 22 29
  22354990.642     5188519.830 6   4026969.555 6
  22835627.134     6249415.513 5   4851323.166 5
  23270334.712    -5120800.258 5  -3724828.650 3
  19547915.298   -11577692.230 7  -8938195.194 8
  20560314.923   -13250359.044 7 -10231786.099 8
  21108647.915   -11997672.260 7  -9276374.401 7
 95  2 16 17  9 59.9970000  0  6 25 15 18 14 22 29
  22364484.962     5238418.290 6   4065851.399 6
  22846976.103     6309047.997 5   4897789.875 5
  23248625.290    -5234870.584 5  -3813714.589 3
  19536965.134   -11635220.331 7  -8983022.290 8
  20547374.939   -13318365.364 7 -10284778.023 8
  21092541.540   -12082337.877 7  -9342347.602 7
 95  2 16 17 10 29.9970000  0  6 25 15 18 14 22 29
  22373995.181     5288396.722 6   4104795.534 6
  22858328.892     6368732.688 5   4944297.260 5
  23226919.196    -5348940.749 4  -3902600.410 1
  19526117.470   -11692215.951 7  -9027434.476 8
  20534537.321   -13385834.832 7 -10337351.627 8
  21076442.360   -12166943.304 7  -9408273.899 7
 95  2 16 17 10 59.9970000  0  6 25 15 18 14 22 29
  22383517.931     5338427.223 6   4143780.274 6
  22869694.345     6428450.192 5   4990830.198 4
  23205205.313    -5463030.716 4  -3991501.675 1
  19515371.728   -11748684.444 7  -9071435.906 8
  20521802.399   -13452784.195 7 -10389519.951 8
  21060345.493   -12251499.818 7  -9474162.091 7
 95  2 16 17 11 29.9970000  0  6 25 15 18 14 22 29
  22393046.188     5388516.215 6   4182810.586 6
  22881062.798     6488200.639 5   5037388.832 5
  23183484.985    -5577151.706 4  -4080427.123 2
  19504725.431   -11804644.460 7  -9115041.128 8
  20509157.118   -13519212.565 7 -10441282.304 8
  21044266.806   -12336005.309 7  -9540010.519 7
 95  2 16 17 11 59.9970000  0  6 25 15 18 14 22 29
  22402589.673     5438662.683 6   4221885.689 6
  22892441.446     6547981.201 5   5083970.951 4
  23161768.220    -5691300.123 4  -4169373.911 1
  19494171.282   -11860121.618 7  -9158270.091 8
  20496614.337   -13585108.676 7 -10492629.909 8
  21028190.681   -12420466.056 7  -9605824.090 7
 95  2 16 17 12 29.9970000  0  6 25 15 18 14 22 29
  22412147.040     5488878.111 6   4261014.523 6
  22903823.806     6607797.676 5   5130580.983 2
  23140046.079    -5805461.567 5  -4258330.862 2
  19483702.149   -11915121.576 7  -9201127.216 8
  20484184.274   -13650446.599 7 -10543542.559 8
  21012130.540   -12504871.022 7  -9671594.187 7
 95  2 16 17 12 59.9970000  0  6 25 15 18 14 22 29
  22421713.048     5539148.131 6   4300185.898 6
  22915207.642     6667634.289 5   5177206.763 3
  23118317.673    -5919643.403 5  -4347303.714 2
  19473321.032   -11969663.166 7  -9243627.171 8
  20471861.517   -13715222.180 7 -10594017.027 8
  20996077.985   -12589242.180 7  -9737337.942 7
 95  2 16 17 13 29.9970000  0  6 25 15 18 14 22 29
  22431292.892     5589493.763 6   4339416.191 6
  22926599.946     6727501.466 4   5223856.332 3
  23096590.524    -6033826.823 5  -4436277.764 3
  19463036.329   -12023726.718 7  -9285754.631 8
  20459640.056   -13779418.190 7 -10644039.881 8
  20980028.095   -12673574.656 7  -9803051.553 7
 95  2 16 17 13 59.9970000  0  6 25 15 18 14 22 29
  22440887.556     5639909.783 6   4378701.330 6
  22937996.954     6787382.809 4   5270516.953 2
  23074857.681    -6148020.224 5  -4525259.657 2
  19452840.126   -12077297.826 7  -9327498.364 8
  20447535.735   -13843046.687 7 -10693620.515 8
  20963988.438   -12757866.666 7  -9868733.631 7
 95  2 16 17 14 29.9970000  0  6 25 15 18 14 22 29
  22450498.040     5690409.041 6   4418051.345 6
  22949395.704     6847280.535 4   5317190.324 3
  23053126.806    -6262220.974 4  -4614247.261 2
  19442748.032   -12130344.237 7  -9368833.244 8
  20435530.454   -13906110.445 7 -10742761.087 8
  20947961.704   -12842096.778 7  -9934367.482 7
 95  2 16 17 14 59.9970000  0  6 25 15 18 14 22 29
  22460120.774     5740987.219 6   4457462.846 6
  22960794.290     6907191.267 4   5363873.809 4
  23031396.001    -6376422.927 5  -4703235.775 1
  19432753.212   -12182852.062 7  -9409748.450 8
  20423638.173   -13968634.824 7 -10791481.367 8
  20931945.282   -12926248.127 7  -9999939.957 7
 95  2 16 17 15 29.9970000  0  6 25 15 18 14 22 29
  22469758.110     5791632.612 6   4496926.730 6
  22972197.907     6967104.410 4   5410559.202 3
  23009659.657    -6490645.293 5  -4792240.226 2
  19422865.907   -12234826.610 7  -9450248.105 8
  20411830.415   -14030644.784 7 -10839800.792 8
  20915952.431   -13010306.549 7 -10065440.019 7
 95  2 16 17 15 59.9970000  0  6 25 15 18 14 22 29
  22479409.548     5842347.931 6   4536445.095 6
  22983599.634     7027026.499 4   5457251.545 4
  22987921.259    -6604885.815 5  -4881258.775 2
  19413075.306   -12286259.571 7  -9490325.754 8
  20400139.423   -14092119.706 7 -10887703.310 8
  20899974.860   -13094254.231 7 -10130853.795 7
 95  2 16 17 16 29.9970000  0  6 25 15 18 14 22 29
  22489069.173     5893111.810 6   4576001.291 6
  22995009.376     7086956.034 4   5503949.709 3
  22966175.110    -6719142.548 5  -4970289.967 2
  19403391.259   -12337166.284 7  -9529993.332 8
  20388540.798   -14153047.421 7 -10935179.431 8
  20884020.149   -13178100.972 7 -10196188.909 8
 95  2 16 17 16 59.9970000  0  6 25 15 18 14 22 29
  22498739.126     5943915.017 6   4615588.143 6
  23006409.501     7146903.775 5   5550662.052 3
  22944436.079    -6833399.557 5  -5059321.384 2
  19393803.798   -12387533.819 7  -9569240.772 8
  20377060.899   -14213397.554 7 -10982205.492 8
  20868083.095   -13261844.293 7 -10261443.434 7
 95  2 16 17 17 29.9970000  0  6 25 15 18 14 22 29
  22508405.454     5994724.013 6   4655179.505 6
  23017819.134     7206842.327 5   5597367.241 5
  22922688.306    -6947687.845 5  -5148377.171 4
  19384319.649   -12437392.157 7  -9608091.438 8
  20365681.438   -14273167.611 7 -11028779.541 8
  20852159.259   -13345531.059 7 -10326653.895 8
 95  2 16 17 17 59.9970000  0  6 25 15 18 14 22 29
  22518080.603     6045557.159 6   4694789.682 5
  23029228.353     7266782.654 5   5644073.789 2
  22900937.399    -7061990.846 5  -5237444.400 3
  19374926.274   -12486736.122 7  -9646541.287 8
  20354424.978   -14332329.410 7 -11074879.620 8
  20836248.087   -13429157.969 7 -10391817.708 8
 95  2 16 17 18 29.9970000  0  6 25 15 18 14 22 29
  22527755.407     6096407.397 6   4734413.188 5
  23040632.384     7326708.352 5   5690768.935 4
  22879181.282    -7176320.620 5  -5326532.507 3
  19365630.540   -12535585.742 7  -9684605.934 8
  20343280.829   -14390905.980 7 -11120523.683 8
  20820340.071   -13512736.066 7 -10456943.494 8
 95  2 16 17 18 59.9970000  0  7 25 15 18 14 22 29 19
  22537442.751     6147309.632 6   4774077.211 5
  23052032.189     7386628.671 5   5737459.893 4
  22857422.899    -7290663.253 5  -5415630.616 4
  19356433.845   -12583927.479 7  -9722274.826 8
  20332239.743   -14448900.909 7 -11165714.516 8
  20804452.110   -13596245.294 7 -10522015.614 8
  23790191.431     -128404.557 4
 95  2 16 17 19 29.9970000  0  7 25 15 18 14 22 29 19
  22547146.024     6198298.209 6   4813808.507 6
  23063432.009     7446555.230 5   5784155.718 4
  22835661.634    -7405008.850 5  -5504731.067 3
  19347331.735   -12631754.610 7  -9759542.732 8
  20321314.978   -14506321.365 7 -11210457.707 8
  20788578.532   -13679664.511 7 -10587017.598 8
  23765780.681     -256661.178 4        -0.41111
 95  2 16 17 19 59.9970000  0  7 25 15 18 14 22 29 19
  22556864.571     6249367.347 6   4853602.571 5
  23074834.946     7506470.636 5   5830842.850 4
  22813902.431    -7519372.678 5  -5593845.697 2
  19338324.368   -12679076.205 7  -9796416.717 8
  20310494.712   -14563193.159 7 -11254773.375 8
  20772720.189   -13762993.350 7 -10651949.157 8
  23741401.892     -384771.732 4    -99826.817 1
 95  2 16 17 20 29.9970000  0  7 25 15 18 14 22 29 19
  22566595.540     6300506.723 6   4893451.361 5
  23086237.892     7566370.362 5   5877517.746 4
  22792138.189    -7633735.424 5  -5682959.504 3
  19329417.360   -12725878.650 7  -9832886.164 8
  20299777.384   -14619526.397 7 -11298669.385 9
  20756876.564   -13846234.729 7 -10716812.564 8
  23717054.868     -512729.102 3   -199533.814 1
 95  2 16 17 20 59.9970000  0  7 25 15 18 14 22 29 19
  22576336.657     6351698.655 6   4933341.111 5
  23097629.595     7626253.782 5   5924179.939 4
  22770373.696    -7748085.075 5  -5772063.121 3
  19320610.673   -12772158.528 7  -9868948.414 8
  20289157.767   -14675313.898 7 -11342140.154 9
  20741052.993   -13929401.189 7 -10781617.594 8
  23692732.696     -640531.675 3   -299120.198 1
 95  2 16 17 21 29.9970000  0  7 25 15 18 14 22 29 19
  22586082.071     6402907.997 6   4973244.425 5
  23109020.454     7686104.704 5   5970816.801 3
  22748615.017    -7862433.860 5  -5861166.020 4
  19311906.024   -12817920.520 7  -9904607.119 8
  20278647.454   -14730541.637 7 -11385174.743 9
  20725235.938   -14012511.653 7 -10846378.977 8
  23668435.579     -768205.514 3   -398606.255 1
 95  2 16 17 21 59.9970000  0  7 25 15 18 14 22 29 19
  22595828.478     6454134.207 6   5013160.883 6
  23120400.868     7745929.679 4   6017433.447 3
  22726860.938    -7976757.777 5  -5950249.549 4
  19303298.540   -12863150.637 7  -9939851.376 7
  20268249.204   -14785176.343 7 -11427747.234 9
  20709436.751   -14095558.135 7 -10911090.513 8
  23644167.829     -895739.040 3   -497982.990 1
 95  2 16 17 22 29.9970000  0  7 25 15 18 14 22 29 19
  22605579.017     6505363.968 6   5053080.096 5
  23131784.298     7805721.799 5   6064024.480 2
  22705111.493    -8091054.092 5  -6039311.568 4
  19294794.118   -12907845.836 7  -9974678.811 7
  20257965.603   -14839217.420 7 -11469857.156 8
  20693641.259   -14178549.476 7 -10975759.088 8
  23619921.298    -1023147.793 3   -597262.501 2
 95  2 16 17 22 59.9970000  0  7 25 15 18 14 22 29 19
  22615331.478     6556611.350 6   5093013.043 5
  23143154.415     7865486.674 4   6110594.301 3
  22683362.876    -8205336.070 5  -6128362.404 4
  19286393.157   -12951989.542 7 -10009076.510 7
  20247799.563   -14892646.784 7 -11511490.423 8
  20677863.149   -14261464.497 7 -11040368.176 8
  23595701.001    -1150429.861 3   -696443.274 1
 95  2 16 17 23 29.9970000  0  7 25 15 18 14 22 29 19
  22625089.813     6607895.265 6   5132974.457 5
  23154521.563     7925222.687 3   6157141.610 3
  22661621.524    -8319612.103 5  -6217408.623 4
  19278104.064   -12995561.961 7 -10043029.059 7
  20237748.626   -14945461.772 7 -11552644.953 8
  20662102.798   -14344282.109 7 -11104901.369 8
  23571504.298    -1277580.844 3   -795521.897 3
 95  2 16 17 23 59.9960000  0  7 25 15 18 14 22 29 19
  22634855.512     6659211.947 6   5172961.402 5
  23165878.012     7984914.596 3   6203654.557 3
  22639872.340    -8433894.927 5  -6306460.128 3
  19269917.934   -13038575.591 7 -10076546.190 8
  20227806.191   -14997703.278 7 -11593352.616 8
  20646362.027   -14427004.383 7 -11169360.282 8
  23547331.770    -1404604.578 2   -894501.373 4
 95  2 16 17 24 29.9960000  0  7 25 15 18 14 22 29 19
  22644626.606     6710564.334 5   5212976.158 5
  23177230.801     8044562.381 3   6250133.089 1
  22618118.691    -8548205.328 5  -6395533.121 4
  19261838.590   -13081038.417 7 -10109634.127 7
  20217967.918   -15049394.005 7 -11633631.104 8
  20630638.980   -14509636.173 7 -11233748.681 8
  23523191.387    -1531500.749 3   -993381.413 4
 95  2 16 17 24 59.9960000  0  7 25 15 18 14 22 29 19
  22654407.762     6761941.644 6   5253010.334 5
  23188574.395     8104160.360 3   6296572.881 1
  22596362.910    -8662545.777 5  -6484629.541 4
  19253860.113   -13122961.603 7 -10142301.565 7
  20208238.504   -15100536.643 7 -11673482.507 8
  20614930.402   -14592175.842 7 -11298065.298 8
  23499070.871    -1658258.592 2  -1092153.698 4
 95  2 16 17 25 29.9960000  0  7 25 15 18 14 22 29 19
  22664182.910     6813327.416 5   5293051.108 5
  23199906.832     8163703.723 3   6342970.058 2
  22574597.098    -8776909.622 5  -6573744.200 4
  19245983.481   -13164356.061 7 -10174557.005 8
  20198607.738   -15151144.311 7 -11712917.051 8
  20599240.488   -14674632.083 7 -11362316.912 8
  23474970.348    -1784871.925 2  -1190813.359 3
 95  2 16 17 25 59.9960000  0  7 25 15 18 14 22 29 19
  22673958.691     6864706.248 5   5333086.460 5
  23211224.246     8223196.898 3   6389328.120 2
  22552831.145    -8891285.703 5  -6662868.367 3
  19238205.762   -13205228.126 7 -10206405.386 7
  20189080.895   -15201204.043 7 -11751924.625 8
  20583564.676   -14757013.259 7 -11426510.035 8
  23450912.168    -1911332.534 3  -1289354.003 5
 95  2 16 17 26 29.9960000  0  7 25 15 18 14 22 29 19
  22683733.606     6916065.498 5   5373106.569 5
  23222536.129     8282634.728 3   6435643.069 2
  22531064.465    -9005672.281 5  -6752000.705 5
  19230526.668   -13245581.828 7 -10237849.850 7
  20179667.473   -15250679.687 7 -11790477.076 8
  20567899.824   -14839318.260 7 -11490643.792 8
  23426870.246    -2037640.191 3  -1387775.502 4
 95  2 16 17 26 59.9960000  0  7 25 15 18 14 22 29 19
  22693501.223     6967396.142 5   5413104.372 5
  23233833.441     8342004.489 3   6481905.003 2
  22509295.496    -9120072.156 5  -6841143.437 4
  19222942.129   -13285421.114 7 -10268893.472 7
  20170363.090   -15299568.987 7 -11828572.619 8
  20552254.676   -14921550.597 7 -11554720.942 8
  23402866.449    -2163808.523 3  -1486088.465 4
 95  2 16 17 27 29.9960000  0  7 25 15 18 14 22 29 19
  22703267.293     7018723.183 5   5453099.367 5
  23245125.199     8401310.003 3   6528116.832 2
  22487527.645    -9234474.775 5  -6930288.318 4
  19215458.902   -13324734.621 7 -10299527.396 7
  20161178.168   -15347857.612 7 -11866200.107 8
  20536622.410   -15003696.577 7 -11618730.790 8
  23378883.637    -2289828.627 3  -1584285.848 4
 95  2 16 17 27 59.9960000  0  7 25 15 18 14 22 29 19
  22713038.254     7070066.867 5   5493107.349 5
  23256394.941     8460539.959 5   6574269.809 2
  22465753.981    -9348886.745 5  -7019440.486 5
  19208076.066   -13363532.928 7 -10329759.865 7
  20152106.434   -15395542.015 7 -11903356.777 8
  20521003.559   -15085762.631 7 -11682678.354 8
  23354930.684    -2415716.711 4  -1682380.395 4
 95  2 16 17 28 29.9960000  0  7 25 15 18 14 22 29 19
  22722817.418     7121464.906 5   5533157.664 5
  23267650.754     8519706.208 5   6620373.150 2
  22443985.543    -9463281.905 5  -7108579.518 4
  19200799.645   -13401791.477 7 -10359571.748 7
  20143140.184   -15442624.333 7 -11940044.294 8
  20505407.254   -15167724.486 7 -11746544.732 8
  23330998.731    -2541460.002 3  -1780362.140 4
 95  2 16 17 28 59.9960000  0  7 25 15 18 14 22 29 19
  22732611.949     7172925.723 5   5573256.912 5
  23278897.191     8578803.559 5   6666422.813 2
  22422216.020    -9577660.821 5  -7197705.905 5
  19193623.238   -13439495.822 7 -10388951.778 7
  20134289.926   -15489133.858 7 -11976285.463 8
  20489831.262   -15249589.635 7 -11810335.743 8
  23307100.387    -2667055.208 5  -1878228.446 4
 95  2 16 17 29 29.9960000  0  7 25 15 18 14 22 29 19
  22742412.473     7224423.882 5   5613385.262 5
  23290125.840     8637816.125 5   6712406.399 2
  22400452.770    -9692045.117 5  -7286836.480 5
  19186547.777   -13476661.693 7 -10417912.212 8
  20125550.418   -15535087.522 7 -12012093.496 8
  20474264.613   -15331377.712 7 -11874066.703 8
  23283221.457    -2792524.787 5  -1975996.895 2
 95  2 16 17 29 59.9960000  0  7 25 15 18 14 22 29 19
  22752217.691     7275945.164 5   5653531.631 5
  23301346.168     8696752.438 5   6758330.530 2
  22378687.363    -9806418.494 5  -7375958.550 4
  19179581.941   -13513281.653 7 -10446447.273 7
  20116909.527   -15580480.032 7 -12047464.269 9
  20458717.020   -15413086.222 7 -11937735.665 8
  23259372.230    -2917860.991 4  -2073661.399 3
 95  2 16 17 30 29.9960000  0  7 25 15 18 14 22 29 19
  22762024.613     7327478.932 5   5693687.724 5
  23312545.871     8755625.762 5   6804205.612 1
  22356930.309    -9920765.958 5  -7465060.421 4
  19172720.996   -13549348.220 7 -10474551.119 7
  20108380.676   -15625293.017 7 -12082383.466 9
  20443186.457   -15494701.230 7 -12001331.763 8
  23235550.621    -3043039.331 4  -2171202.862 4
 95  2 16 17 30 59.9960000  0  7 25 15 18 14 22 29 19
  22771825.207     7378998.601 5   5733832.848 5
  23323736.332     8814425.831 4   6850023.609 2
  22335168.410   -10035113.382 5  -7554162.293 4
  19165953.871   -13584885.862 7 -10502242.807 7
  20099967.652   -15669524.559 7 -12116849.590 8
  20427671.879   -15576232.422 7 -12064862.544 8
  23211757.168    -3168063.205 4  -2268624.021 2
 95  2 16 17 31 29.9960000  0  7 25 15 18 14 22 29 19
  22781629.527     7430488.575 5   5773954.812 5
  23334906.832     8873142.776 3   6895776.848 2
  22313408.035   -10149468.776 5  -7643270.378 5
  19159292.504   -13619908.649 7 -10529533.318 7
  20091659.395   -15713171.812 7 -12150860.430 8
  20412170.902   -15657686.609 7 -12128333.331 8
  23187995.723    -3292939.623 3  -2365930.269 1
 95  2 16 17 31 59.9960000  0  7 25 15 18 14 22 29 19
  22791419.270     7481944.889 5   5814050.568 5
  23346067.520     8931763.161 4   6941454.788 3
  22291643.254   -10263845.206 5  -7732394.828 4
  19152725.801   -13654414.816 7 -10556421.259 7
  20083465.285   -15756240.791 7 -12184420.668 8
  20396681.730   -15739074.643 7 -12191752.560 8
  23164265.566    -3417661.980 5  -2463116.452 2
 95  2 16 17 32 29.9960000  0  7 25 15 18 14 22 29 19
  22801206.395     7533385.765 5   5854134.290 5
  23357205.207     8990287.481 3   6987057.896 2
  22269870.988   -10378254.470 5  -7821544.869 4
  19146260.324   -13688386.860 7 -10582893.007 7
  20075380.629   -15798725.401 7 -12217525.561 8
  20381211.957   -15820379.500 7 -12255106.981 8
  23140561.238    -3542220.300 3  -2560174.807 1
 95  2 16 17 32 59.9960000  0  7 25 15 18 14 22 29 19
  22810991.527     7584805.929 5   5894201.872 5
  23368322.730     9048709.269 3   7032581.104 4
  22248094.543   -10492694.447 5  -7910718.843 5
  19139902.230   -13721801.245 7 -10608930.215 8
  20067401.191   -15840643.602 7 -12250189.095 8
  20365759.207   -15901590.228 7 -12318388.052 8
  23116886.207    -3666617.074 3  -2657107.333 1
 95  2 16 17 33 29.9960000  0  7 25 15 18 14 22 29 19
  22820779.434     7636220.905 6   5934265.416 5
  23379415.762     9107037.368 3   7078031.319 4
  22226316.840   -10607140.669 5  -7999897.683 5
  19133655.449   -13754626.920 7 -10634508.682 8
  20059536.215   -15881980.514 7 -12282399.677 8
  20350324.457   -15982695.307 7 -12381586.802 8
  23093242.574    -3790845.885 3  -2753908.936 2
 95  2 16 17 33 59.9960000  0  7 25 15 18 14 22 29 19
  22830557.660     7687634.523 5   5974327.901 4
  23390499.621     9165262.270 3   7123401.097 3
  22204535.707   -10721591.918 5  -8089080.408 5
  19127518.285   -13786885.625 7 -10659645.362 8
  20051776.215   -15922750.104 7 -12314168.197 8
  20334911.652   -16063698.561 7 -12444706.208 8
  23069633.840    -3914924.175 3  -2850593.295 2
 95  2 16 17 34 29.9960000  0  7 25 15 18 14 22 29 19
  22840342.887     7739034.055 5   6014379.405 5
  23401557.988          -0.15912
  22182758.676   -10836043.706 5  -8178263.586 4
  19121480.105   -13818603.852 7 -10684360.892 8
  20044128.426   -15962969.169 7 -12345507.743 8
  20319511.176   -16144608.371 7 -12507752.801 8
  23046050.527    -4038884.369 3  -2947185.595 1
 95  2 16 17 34 59.9960000  0  7 25 15 18 14 22 29 19
  22850124.184     7790443.692 5   6054438.788 4
  23412596.160       58003.834 2        -0.24112
  22160985.434   -10950456.303 5  -8267416.231 5
  19115552.902   -13849769.311 7 -10708645.691 8
  20036581.379   -16002607.030 7 -12376394.395 8
  20304134.715   -16225423.395 7 -12570725.535 8
  23022482.551    -4162710.150 4  -3043673.226 2
 95  2 16 17 35 29.9960000  0  7 25 15 18 14 22 29 19
  22859911.473     7841874.139 5   6094514.377 5
  23423617.168      115902.208 2     45115.131 2
  22139218.981   -11064841.313 5  -8356547.342 5
  19109720.551   -13880407.680 7 -10732519.777 8
  20029154.949   -16041644.122 7 -12406812.926 8
  20288770.684   -16306162.940 7 -12633639.462 8
  22998943.207    -4286411.141 3  -3140063.566 3
 95  2 16 17 35 59.9960000  0  7 25 15 18 14 22 29 19
  22869698.660     7893319.757 5   6134601.798 5
  23434612.668      173688.677 2     90143.272 3
  22117456.066   -11179203.562 5  -8445660.726 5
  19103988.137   -13910530.736 7 -10755992.307 8
  20021840.707   -16080075.649 7 -12436759.578 8
  20273421.910   -16386824.577 7 -12696492.670 8
  22975431.652    -4409985.028 3  -3236354.834 3
 95  2 16 17 36 29.9960000  0  7 25 15 18 14 22 29 19
  22879491.434     7944766.815 5   6174690.315 5
  23445580.121      231361.480 3    135082.844 2
  22095696.270   -11293541.276 5  -8534754.988 4
  19098360.481   -13940121.788 7 -10779050.296 8
  20014643.215   -16117888.568 7 -12466224.200 9
  20258085.137   -16467407.768 7 -12759284.761 8
  22951944.215    -4533410.160 3  -3332530.236 3
 95  2 16 17 36 59.9960000  0  7 25 15 18 14 22 29 19
  22889276.301     7996207.233 5   6214773.667 5
  23456540.090      288919.624 3    179933.074 2
  22073943.191   -11407867.829 5  -8623840.571 5
  19092828.449   -13969172.351 7 -10801687.119 8
  20007570.809   -16155078.262 7 -12495203.191 9
  20242768.191   -16547906.973 7 -12822011.403 8
  22928487.395    -4656673.199 4  -3428579.310 3
 95  2 16 17 37 29.9960000  0  7 25 15 18 14 22 29 19
  22899066.348     8047636.711 5   6254848.491 5
  23467471.871      346368.635 3    224698.251 1
  22052188.902   -11522184.030 5  -8712918.059 5
  19087405.215   -13997665.174 7 -10823889.341 8
  20000611.106   -16191650.686 7 -12523701.183 8
  20227474.387   -16628282.496 7 -12884641.677 8
  22905059.316    -4779763.580 3  -3524493.818 3
 95  2 16 17 37 59.9960000  0  7 25 15 18 14 22 29 19
  22908844.012     8099031.230 5   6294896.069 5
  23478376.230      403697.125 3    269369.555 1
  22030436.965   -11636488.181 5  -8801986.166 5
  19082093.270   -14025594.348 7 -10845652.366 8
  19993760.496   -16227628.823 7 -12551736.106 8
  20212204.996   -16708524.089 7 -12947167.588 8
  22881675.004    -4902674.130 4  -3620268.242 2
 95  2 16 17 38 29.9960000  0  7 25 15 18 14 22 29 19
  22918613.824     8150387.148 5   6334913.574 5
  23489268.340      460902.471 3    313944.894 1
  22008688.621   -11750779.023 5  -8891043.886 5
  19076888.270   -14052955.054 7 -10866972.429 8
  19987025.816   -16263019.516 7 -12579313.271 9
  20196959.051   -16788635.652 7 -13009592.182 8
  22858321.043    -5025401.486 4  -3715899.879 2
 95  2 16 17 38 59.9960000  0  7 25 15 18 14 22 29 19
  22928383.684     8201712.916 5   6374907.585 5
  23500128.160      517983.556 3    358423.380 2
  21986942.066   -11865054.516 5  -8980089.674 5
  19071788.590   -14079747.105 7 -10887849.377 8
  19980402.684   -16297830.583 7 -12606438.785 8
  20181739.199   -16868616.826 7 -13071915.171 8
  22835001.027    -5147952.084 5  -3811393.810 2
 95  2 16 17 39 29.9960000  0  7 25 15 18 14 22 29 19
  22938150.762     8253010.133 5   6414879.355 4
  23510967.832      574935.748 3
  21965199.324   -11979308.732 5  -9069118.872 5
  19066794.004   -14105979.792 7 -10908290.459 8
  19973890.082   -16332067.442 7 -12633116.858 8
  20166540.285   -16948490.215 7 -13134154.173 8
  22811714.176    -5270317.030 5  -3906743.057 4
 95  2 16 17 39 59.9960000  0  7 25 15 18 14 22 29 19
  22947905.074     8304279.642 5   6454829.533 4
  23521772.363      631744.248 3
  21943460.832   -12093547.675 5  -9158136.189 5
  19061903.184   -14131682.366 7 -10928318.478 8
  19967484.559   -16365730.120 7 -12659347.513 8
  20151350.887   -17028302.702 7 -13196345.712 8
  22788460.934    -5392505.750 5  -4001954.974 5
 95  2 16 17 40 29.9960000  0  7 25 15 18 14 22 29 19
  22957659.590     8355555.252 5   6494784.481 4
  23532564.340      688434.729 3        -0.38611
  21921726.051   -12207755.028 5  -9247128.864 5
  19057115.652   -14156838.617 7 -10947920.777 8
  19961189.824   -16398791.310 7 -12685109.479 8
  20136177.293   -17108047.749 7 -13258484.699 8
  22765243.520    -5514505.125 5  -4097019.356 3
 95  2 16 17 40 59.9960000  0  7 25 15 18 14 22 29 19
  22967417.105     8406830.359 5   6534739.031 5
  23543325.098      744992.037 3     44069.963 1
  21899995.176   -12321959.886 5  -9336119.605 5
  19052433.145   -14181464.414 7 -10967109.739 8
  19955009.059   -16431268.751 7 -12710416.567 8
  20121012.035   -17187734.784 7 -13320578.496 8
  22742061.301    -5636333.982 5  -4191950.880 4
 95  2 16 17 41 29.9960000  0  7 25 15 18 14 22 29 19
  22977174.910     8458098.525 5   6574688.187 4
  23554065.902      801412.158 3     88033.385 1
  21878261.410   -12436177.953 5  -9425120.638 5
  19047847.020   -14205566.777 7 -10985890.831 8
  19948942.488   -16463153.857 7 -12735262.104 8
  20105861.168   -17267356.012 7 -13382621.010 8
  22718907.895    -5757999.362 5  -4286755.025 4
 95  2 16 17 41 59.9960000  0  7 25 15 18 14 22 29 19
  22986930.231     8509371.677 5   6614641.229 5
  23564776.980      857712.555 3
  21856526.785   -12550391.426 6  -9514118.100 5
  19043365.574   -14229114.954 7 -11004240.081 8
  19942988.645   -16494428.422 7 -12759631.890 8
  20090731.816   -17346861.352 7 -13444573.219 9
  22695790.184    -5879497.099 5  -4381428.510 4
 95  2 16 17 42 29.9960000  0  7 25 15 18 14 22 29 19
  22996674.691     8560616.914 5   6654572.494 4
  23575465.230      913872.280 3        -0.38711
  21834785.738   -12664626.560 6  -9603132.445 5
  19038991.090   -14252110.292 7 -11022158.558 8
  19937147.801   -16525125.528 7 -12783551.705 8
  20075628.051   -17426236.152 7 -13506423.707 8
  22672698.059    -6000850.247 5  -4475989.370 5
 95  2 16 17 42 59.9960000  0  7 25 15 18 14 22 29 19
  23006426.074     8611824.014 5   6694474.043 4
  23586121.387      969880.947 3     43642.413 2
  21813049.379   -12778876.041 6  -9692157.955 5
  19034718.824   -14274551.540 7 -11039645.274 8
  19931417.316   -16555243.716 7 -12807020.426 9
  20060549.645   -17505463.074 7 -13568158.965 8
  22649631.793    -6122064.117 4  -4570441.665 5
 95  2 16 17 43 29.9960000  0  6 25 18 14 22 29 19
  23016162.441     8662986.470 5   6734340.809 5
  21791311.777   -12893108.594 6  -9781170.295 5
  19030557.277   -14296421.553 7 -11056686.873 8
  19925800.543   -16584767.406 7 -12830025.898 9
  20045505.746   -17584530.989 7 -13629770.328 8
  22626587.230    -6243129.481 3  -4664778.262 4
 95  2 16 17 43 59.9960000  0  6 25 18 14 22 29 19
  23025894.848     8714110.858 5   6774177.935 4
  21769576.902   -13007311.001 6  -9870159.142 5
  19026504.918   -14317713.334 7 -11073277.907 8
  19920295.949   -16613691.088 7 -12852563.827 8
  20030488.621   -17663445.923 7 -13691262.472 8
  22603586.316    -6364036.179 4  -4758991.242 3
 95  2 16 17 44 29.9950000  0  6 25 18 14 22 29 19
  23035613.944     8765189.133 5   6813979.105 4
  21747854.147   -13121488.593 6  -9959128.651 5
  19022559.976   -14338439.923 7 -11089428.521 8
  19914906.874   -16642015.771 7 -12874635.017 8
  20015496.741   -17742227.680 7 -13752650.854 8
  22580602.788    -6484781.955 3  -4853078.801 4
 95  2 16 17 44 59.9950000  0  6 25 18 14 22 29 19
  23045328.124     8816231.601 5   6853752.361 5
  21726128.874   -13235640.965 5 -10048078.497 5
  19018720.749   -14358609.007 7 -11105144.717 8
  19909634.788   -16669726.573 7 -12896227.855 9
  20000527.429   -17820891.110 7 -13813947.029 8
  22557663.038    -6605350.326 5  -4947028.155 3
 95  2 16 17 45 29.9950000  0  6 25 18 14 22 29 19
  23055032.226     8867232.905 5   6893493.530 4
  21704409.499   -13349775.160 5 -10137014.198 5
  19014986.476   -14378236.580 7 -11120438.963 8
  19904476.710   -16696838.903 7 -12917354.358 8
  19985576.179   -17899450.944 7 -13875162.475 9
  22534758.280    -6725724.967 5  -5040826.554 3
 95  2 16 17 45 59.9950000  0  6 25 18 14 22 29 19
  23064730.788     8918210.121 5   6933215.944 5
  21682692.343   -13463898.633 5 -10225941.534 5
  19011351.718   -14397338.679 7 -11135323.735 8
  19899427.772   -16723367.967 7 -12938026.363 8
  19970649.265   -17977902.161 7 -13936293.279 9
  22511891.593    -6845899.192 5  -5134468.762 3
 95  2 16 17 46 29.9950000  0  6 25 18 14 22 29 19
  23074427.366     8969170.536 5   6972925.274 5
  21660978.210   -13577997.564 6 -10314849.748 5
  19007821.304   -14415908.325 7 -11149793.621 8
  19894484.702   -16749325.703 7 -12958253.178 8
  19955741.718   -18056236.287 7 -13997332.852 9
  22489060.101    -6965872.097 5  -5227954.124 4
 95  2 16 17 46 59.9950000  0  6 25 18 14 22 29 19
  23084125.632     9020116.296 5   7012623.174 4
  21639272.921   -13692057.628 6 -10403727.671 5
  19004388.499   -14433941.825 7 -11163845.729 8
  19889655.101   -16774713.274 7 -12978035.711 8
  19940859.405   -18134451.891 7 -14058280.063 9
  22466269.015    -7085642.309 5  -5321281.544 3
 95  2 16 17 47 29.9950000  0  6 25 18 14 22 29 19
  23093811.421     9071044.872 5   7052307.677 5
  21617578.405   -13806068.959 6 -10492567.627 5
  19001057.374   -14451432.196 7 -11177474.614 8
  19884933.858   -16799538.941 7 -12997380.402 8
  19925994.249   -18212557.474 7 -14119141.554 9
  22443511.624    -7205243.411 5  -5414477.173 4
 95  2 16 17 47 59.9950000  0  6 25 18 14 22 29 19
  23103499.765     9121964.807 5   7091985.443 5
  21595898.405   -13920007.831 6 -10581351.089 5
  18997838.874   -14468340.737 7 -11190650.127 8
  19880321.687   -16823771.881 7 -13016263.218 8
  19911157.226   -18290537.842 7 -14179905.473 9
  22420774.546    -7324679.140 5  -5507543.948 2
 95  2 16 17 48 29.9950000  0  6 25 18 14 22 29 19
  23113190.233     9172849.299 5   7131635.595 3
  21574227.179   -14033881.540 6 -10670083.795 5
  18994736.507   -14484666.935 7 -11203371.870 8
  19875821.858   -16847406.489 7 -13034679.805 8
  19896338.897   -18368406.782 7 -14240582.557 9
  22398081.890    -7443961.081 5  -5600490.857 4
 95  2 16 17 48 59.9950000  0  6 25 18 14 22 29 19
  23122864.265     9223678.800 5   7171242.899 2
  21552566.983   -14147717.187 6 -10758786.843 5
  18991738.437   -14500416.877 7 -11215644.577 8
  19871436.288   -16870445.674 7 -13052632.425 8
  19881540.280   -18446167.213 7 -14301175.095 9
  22375410.780    -7563094.034 5  -5693321.689 4
 95  2 16 17 49 29.9950000  0  6 25 18 14 22 29 19
  23132528.530     9274471.570 5   7210821.574 4
  21530907.772   -14261517.350 6 -10847462.241 5
  18988851.374   -14515572.856 7 -11227454.464 8
  19867170.929   -16892874.236 7 -13070109.235 9
  19866771.390   -18523791.474 7 -14361661.533 9
  22352777.054    -7682059.341 5  -5786021.870 5
 95  2 16 17 49 59.9950000  0  6 25 18 14 22 29 19
  23142183.515     9325219.841 5   7250365.579 3
  21509255.077   -14375306.429 6 -10936128.986 5
  18986077.874   -14530158.525 7 -11238819.949 8
  19863016.491   -16914709.339 7 -13087123.611 8
  19852023.858   -18601280.514 7 -14422042.595 9
  22330169.444    -7800848.159 5  -5878584.565 4
 95  2 16 17 50 29.9950000  0  6 25 18 14 22 29 19
  23151823.585     9375922.050 4   7289873.707 3
  21487602.866   -14489095.507 6 -11024795.735 5
  18983409.327   -14544195.402 7 -11249757.808 8
  19858967.671   -16935966.247 7 -13103687.449 8
  19837304.249   -18678635.273 7 -14482319.030 9
  22307603.444    -7919452.717 5  -5971003.649 5
 95  2 16 17 50 59.9950000  0  6 25 18 14 22 29 19
  23161469.765     9426573.780 4   7329342.473 4
  21465947.749   -14602891.546 6 -11113467.912 5
  18980834.116   -14557704.270 7 -11260284.225 8
  19855032.913   -16956662.250 7 -13119814.211 8
  19822605.921   -18755871.017 7 -14542502.729 9
  22285061.804    -8037883.326 5  -6063287.197 5
 95  2 16 17 51 29.9950000  0  6 25 18 14 22 29 19
  23171109.312     9477197.437 5   7368789.368 3
  21444299.241   -14716655.026 6 -11202114.733 5
  18978365.780   -14570682.183 7 -11270396.923 8
  19851206.054   -16976775.155 7 -13135486.608 8
  19807934.538   -18832975.587 7 -14602584.208 9
  22262564.335    -8156126.196 5  -6155424.442 4
 95  2 16 17 51 59.9950000  0  6 25 18 14 22 29 19
  23180721.515     9527781.133 4   7408205.126 3
  21422659.671   -14830373.945 6 -11290726.823 5
  18975998.976   -14583132.145 7 -11280098.221 8
  19847485.530   -16996306.521 7 -13150705.860 8
  19793284.897   -18909956.697 7 -14662569.484 9
  22240096.897    -8274190.491 5  -6247422.535 5
 95  2 16 17 52 29.9950000  0  6 25 18 14 22 29 19
  23190352.398     9578304.343 5   7447573.740 3
  21401027.257   -14944064.628 6 -11379316.921 5
  18973727.358   -14595056.067 7 -11289389.622 8
  19843884.312   -17015259.714 7 -13165474.591 8
  19778658.374   -18986825.843 7 -14722467.515 9
  22217654.562    -8392091.908 5  -6339293.691 5
 95  2 16 17 52 59.9950000  0  6 25 18 14 22 29 19
  23199943.218     9628798.921 5   7486920.077 3
  21379402.187   -15057694.292 6 -11467859.465 5
  18971568.929   -14606414.398 7 -11298240.295 8
  19840388.632   -17033603.828 7 -13179768.713 8
  19764057.460   -19063549.620 7 -14782252.278 9
  22195257.272    -8509808.902 5  -6431021.157 5
 95  2 16 17 53 29.9950000  0  6 25 18 14 22 29 19
  23209556.741     9679259.846 5   7526240.190 4
  21357787.741   -15171277.295 6 -11556365.653 5
  18969514.226   -14617192.311 7 -11306638.703 8
  19837017.288   -17051343.748 7 -13193592.038 8
  19749485.179   -19140126.954 7 -14841922.929 9
  22172894.155    -8627339.899 5  -6522603.688 5
 95  2 16 17 53 59.9950000  0  6 25 18 14 22 29 19
  23219143.835     9729669.429 5   7565520.277 5
  21336179.022   -15284837.434 6 -11644854.034 5
  18967578.304   -14627388.104 7 -11314583.501 8
  19833749.694   -17068491.638 7 -13206954.039 8
  19734940.030   -19216567.984 7 -14901487.371 9
  22150567.046    -8744677.429 5  -6614035.480 5
 95  2 16 17 54 29.9950000  0  5 18 14 22 29 19
  21314574.140   -15398371.340 6 -11733321.960 5
  18965745.218   -14637001.990 7 -11322074.871 8
  19830604.866   -17085042.791 7 -13219851.046 8
  19720418.944   -19292865.262 7 -14960939.797 9
  22128277.062    -8861802.796 5  -6705301.904 5
 95  2 16 17 54 59.9950000  0  5 18 14 22 29 19
  21292978.382   -15511849.694 6 -11821746.608 5
  18964031.280   -14646027.466 7 -11329107.734 8
  19827564.030   -17100994.408 7 -13232280.888 8
  19705929.780   -19369004.615 7 -15020269.167 9
  22106032.452    -8978697.459 5  -6796388.641 4
 95  2 16 17 55 29.9950000  0  5 18 14 22 29 19
  21271395.390   -15625279.136 6 -11910133.141 5
  18962418.210   -14654483.297 7 -11335696.722 8
  19824646.405   -17116353.233 7 -13244248.811 9
  19691473.444   -19444983.302 7 -15079473.338 9
  22083829.210    -9095360.567 5  -6887294.896 5
 95  2 16 17 55 59.9950000  0  5 18 14 22 29 19
  21249821.358   -15738649.679 6 -11998473.766 5
  18960916.702   -14662398.167 7 -11341864.190 8
  19821828.905   -17131135.722 7 -13255767.640 9
  19677045.788   -19520797.982 7 -15138549.719 9
  22061672.515    -9211815.027 5  -6978038.571 5
 95  2 16 17 56 29.9950000  0  5 18 14 22 29 19
  21228259.827   -15851957.899 6 -12086765.847 5
  18959506.937   -14669785.850 7 -11347620.854 8
  19819127.499   -17145354.254 7 -13266847.022 9
  19662650.601   -19596449.176 7 -15197498.702 9
  22039544.069    -9328089.265 5  -7068641.825 5
 95  2 16 17 56 59.9950000  0  5 18 14 22 29 19
  21206709.437   -15965197.255 6 -12175004.261 6
  18958203.608   -14676648.607 7 -11352968.477 8
  19816524.757   -17159014.919 7 -13277491.705 8
  19648285.413   -19671940.517 7 -15256323.126 9
  22017450.257    -9444197.419 5  -7159115.670 5
 95  2 16 17 57 29.9950000  0  5 18 14 22 29 19
  21185173.913   -16078378.481 6 -12263197.385 6
  18956996.640   -14682989.338 7 -11357909.352 8
  19814031.890   -17172118.635 7 -13287702.398 8
  19633946.913   -19747285.037 7 -15315033.139 9
  21995383.319    -9560149.988 5  -7249468.259 4
 95  2 16 17 57 59.9950000  0  5 18 14 22 29 19
  21163649.835   -16191481.517 6 -12351329.574 6
  18955890.741   -14688779.285 7 -11362421.029 8
  19811649.327   -17184646.461 7 -13297464.348 8
  19619637.796   -19822482.374 7 -15373628.472 9
  21973354.491    -9675917.427 5  -7339676.636 5
 95  2 16 17 58 29.9950000  0  5 18 14 22 29 19
  21142137.499   -16304531.947 6 -12439420.788 6
  18954898.851   -14694021.616 7 -11366505.989 8
  19809372.616   -17196596.292 7 -13306775.920 8
  19605349.163   -19897563.992 7 -15432133.629 9
  21951360.632    -9791498.943 5  -7429740.092 5
 95  2 16 17 58 59.9950000  0  5 18 14 22 29 19
  21120631.351   -16417553.812 6 -12527489.731 6
  18954003.116   -14698715.733 7 -11370163.767 8
  19807209.132   -17207976.699 7 -13315643.775 8
  19591082.007   -19972540.254 7 -15490556.687 9
  21929400.804    -9906892.275 5  -7519656.942 4
 95  2 16 17 59 29.9950000  0  5 18 14 22 29 19
  21099126.624   -16530554.678 6 -12615542.322 6
  18953213.702   -14702854.458 7 -11373388.778 8
  19805153.007   -17218789.384 7 -13324069.257 8
  19576838.194   -20047400.917 7 -15548889.666 9
  21907479.812   -10022093.499 5  -7609424.077 4
 95  2 16 17 59 59.9950000  0  5 18 14 22 29 19
  21077628.913   -16643522.011 6 -12703568.780 6
  18952539.085   -14706418.392 7 -11376165.895 8
  19803203.944   -17229010.179 7 -13332033.521 8
  19562620.835   -20122109.438 7 -15607104.096 9
  21885597.546   -10137080.374 5  -7699024.220 5
 95  2 16 18  0 29.9950000  0  5 18 14 22 29 19
  21056134.687   -16756476.077 6 -12791584.898 6
  18951963.679   -14709430.722 7 -11378513.193 8
  19801371.523   -17238654.711 7 -13339548.748 8
  19548432.499   -20196664.785 7 -15665199.161 9
  21863751.765   -10251882.919 5  -7788480.682 4
 95  2 16 18  0 59.9950000  0  5 18 14 22 29 19
  21034643.655   -16869403.753 6 -12879580.461 6
  18951492.632   -14711897.627 7 -11380435.484 8
  19799646.452   -17247731.686 7 -13346621.717 9
  19534279.648   -20271046.231 7 -15723158.720 9
  21841941.288   -10366495.137 5  -7877788.875 5
 95  2 16 18  1 29.9950000  0  6  4 18 14 22 29 19
  23334773.444      -40518.938 3
  21013163.187   -16982287.127 6 -12967541.514 6
  18951125.608   -14713839.388 7 -11381948.575 8
  19798024.163   -17256235.368 7 -13353247.977 9
  19520159.218   -20345258.587 7 -15780986.525 9
  21820166.648   -10480915.775 5  -7966947.785 4
 95  2 16 18  1 59.9950000  0  6  4 18 14 22 29 19
  23327154.163      -80581.913 3        -0.42612
  20991691.273   -17095128.567 6 -13055469.872 6
  18950854.687   -14715269.002 7 -11383062.589 8
  19796515.983   -17264160.085 7 -13359423.095 9
  19506066.319   -20419309.540 7 -15838688.562 9
  21798436.226   -10595138.064 5  -8055952.121 4
 95  2 16 18  2 29.9950000  0  6  4 18 14 22 29 19
  23319617.593     -120198.838 3    -30870.783 2
  20970229.335   -17207917.402 6 -13143357.238 6
  18950677.476   -14716190.474 7 -11383780.645 8
  19795117.327   -17271519.445 7 -13365157.685 9
  19492003.038   -20493201.334 7 -15896266.580 9
  21776731.827   -10709167.408 5  -8144806.122 5
 95  2 16 18  2 59.9950000  0  6  4 18 14 22 29 19
  23312167.390     -159347.362 3    -61376.118 3
  20948780.515   -17320626.630 6 -13231182.576 6
  18950601.077   -14716585.703 7
  19793827.835   -17278309.779 7 -13370448.870 8
  19477973.124   -20566930.570 7 -15953717.927 9
  21755073.007   -10822994.145 5  -8233502.235 5
 95  2 16 18  3 29.9950000  0  5 18 14 22 29 19
  20927345.280   -17433268.847 6 -13318955.695 6
  18950629.632   -14716434.504 7
  19792642.429   -17284532.537 7 -13375297.792 9
  19463973.843   -20640501.549 7 -16011045.960 9
  21733447.593   -10936638.385 5  -8322056.152 5
 95  2 16 18  3 59.9950000  0  5 18 14 22 29 19
  20905920.241   -17545855.966 6 -13406685.891 6
  18950768.312   -14715719.916 7 -11383414.071 8
  19791562.077   -17290205.381 7 -13379718.211 9
  19450003.171   -20713912.999 7 -16068249.684 9
  21711855.491   -11050110.882 5  -8410476.223 5
 95  2 16 18  4 29.9950000  0  5 18 14 22 29 19
  20884510.866   -17658364.616 6 -13494354.928 6
  18951013.960   -14714425.270 7 -11382405.285 8
  19790586.421   -17295331.635 7 -13383712.716 9
  19436064.437   -20787162.908 7 -16125327.524 9
  21690292.452   -11163415.019 5  -8498765.098 5
 95  2 16 18  4 59.9940000  0  5 18 14 22 29 19
  20863117.885   -17770788.709 6 -13581958.084 6
  18951369.752   -14712562.641 7 -11380953.917 8
  19789713.846   -17299904.099 7 -13387275.689 9
  19422154.947   -20860256.943 7 -16182283.913 9
  21668766.596   -11276545.918 5  -8586918.987 5
 95  2 16 18  5 29.9940000  0  5 18 14 22 29 19
  20841741.385   -17883127.691 6 -13669494.914 6
  18951835.033   -14710125.798 7 -11379055.107 8
  19788953.314   -17303906.893 7 -13390394.765 9
  19408280.494   -20933169.595 7 -16239098.958 9
  21647273.166   -11389482.345 5  -8674921.349 5
 95  2 16 18  5 59.9940000  0  5 18 14 22 29 19
  20820377.104   -17995386.558 6 -13756969.326 6
  18952394.041   -14707164.408 7 -11376747.564 8
  19788297.447   -17307356.968 7 -13393083.145 9
  19394436.611   -21005920.930 7 -16295788.303 9
  21625821.072   -11502216.731 5  -8762766.277 5
 95  2 16 18  6 29.9940000  0  5 18 14 22 29 19
  20799030.197   -18107564.194 6 -13844380.443 6
  18953053.221   -14703698.471 7 -11374046.858 8
  19787745.822   -17310252.524 7 -13395339.434 9
  19380623.455   -21078511.602 7 -16352352.458 9
  21604408.658   -11614746.789 5  -8850451.967 5
 95  2 16 18  6 59.9940000  0  5 18 14 22 29 19
  20777695.229   -18219677.642 6
  18953809.377   -14699727.005 7 -11370952.246 8
  19787303.838   -17312582.844 7 -13397155.276 9
  19366841.861   -21150930.300 7 -16408782.608 9
  21583034.135   -11727058.741 5
 95  2 16 18  7 29.9940000  0  5 18 14 22 29 19
  20756369.338   -18331748.947 6
  18954662.807   -14695243.252 7 -11367458.448 8
  19786966.471   -17314364.281 7 -13398543.420 9
  19353093.283   -21223186.088 7 -16465085.813 9
  21561702.955   -11839156.343 5
 95  2 16 18  7 59.9940000  0  5 18 14 22 29 19
  20735048.799   -18443788.457 6 -14106373.278 6
  18955613.283   -14690252.944 7 -11363569.927 8
  19786729.533   -17315600.925 7 -13399507.046 9
  19339370.432   -21295296.585 7 -16521275.811 9
  21540407.322   -11951062.014 5
 95  2 16 18  8 29.9940000  0  5 18 14 22 29 19
  20713735.510   -18555793.049 6 -14193649.558 6
  18956662.830   -14684742.241 7 -11359275.907 8
  19786598.510   -17316300.072 7 -13400051.850 8
  19325677.674   -21367254.315 7 -16577346.755 9
  21519148.377   -12062789.982 5  -9053216.299 5
 95  2 16 18  8 59.9940000  0  5 18 14 22 29 19
  20692431.525   -18667751.937 6 -14280890.226 6
  18957809.932   -14678707.166 7 -11354573.280 8
  19786565.354   -17316460.381 7
  19312015.619   -21439047.263 7 -16633289.311 9
  21497919.854   -12174339.780 5  -9140138.150 5
 95  2 16 18  9 29.9940000  0  5 18 14 22 29 19
  20671142.744   -18779625.233 6 -14368064.200 6
  18959062.815   -14672131.317 7 -11349449.288 8
  19786638.932   -17316067.672 7
  19298390.705   -21510643.177 7 -16689078.328 9
  21476729.283   -12285702.703 5  -9226914.382 5
 95  2 16 18  9 59.9940000  0  5 18 14 22 29 19
  20649870.314   -18891409.383 6 -14455168.691 6
  18960412.205   -14665037.988 7 -11343922.056 8
  19786818.658   -17315132.306 7 -13399141.929 8
  19284802.330   -21582046.447 7 -16744717.236 9
  21455574.205   -12396893.244 5  -9313556.301 5
 95  2 16 18 10 29.9940000  0  5 18 14 22 29 19
  20628618.557   -19003091.590 6 -14542193.768 6
  18961860.158   -14657422.544 7 -11337987.978 8
  19787103.135   -17313640.825 7 -13397979.749 8
  19271256.463   -21653241.350 7 -16800193.777 9
  21434447.244   -12507884.045 5  -9400042.567 5
 95  2 16 18 10 59.9940000  0  5 18 14 22 29 19
  20607380.385   -19114692.469 6 -14629155.466 6
  18963408.986   -14649289.086 7 -11331650.248 8
  19787490.713   -17311594.151 7 -13396384.950 8
  19257744.049   -21724241.095 7 -16855518.257 9
  21413364.674   -12618673.585 5  -9486371.985 5
 95  2 16 18 11 29.9940000  0  5 18 14 22 29 19
  20586153.846   -19226232.901 6 -14716070.056 6
  18965053.635   -14640636.261 7 -11324907.833 8
  19787988.440   -17308989.853 7 -13394355.642 8
  19244269.979   -21795058.986 7 -16910701.027 9
  21392321.611   -12729256.499 5  -9572540.418 5
 95  2 16 18 11 59.9940000  0  5 18 14 22 29 19
  20564940.846   -19337725.045 6 -14802947.022 6
  18966800.486   -14631460.406 7 -11317757.851 8
  19788589.447   -17305825.784 7 -13391890.148 8
  19230825.088   -21865706.436 7 -16965750.980 9
  21371324.674   -12839615.222 5  -9658534.152 5
 95  2 16 18 12 29.9940000  0  5 18 14 22 29 19
  20543732.604   -19449166.752 6 -14889784.691 6
  18968647.588   -14621751.376 7 -11310192.415 8
  19789298.869   -17302108.280 7 -13388993.411 8
  19217413.791   -21936186.671 7 -17020670.648 9
  21350368.947   -12949751.597 5  -9744354.624 5
 95  2 16 18 12 59.9940000  0  5 18 14 22 29 19
  20522533.986   -19560564.186 6 -14976587.852 6
  18970597.057   -14611518.465 7 -11302218.752 8
  19790106.158   -17297858.643 7 -13385682.026 8
  19204031.846   -22006502.785 7 -17075462.423 9
  21329440.854   -13059695.391 5  -9830025.020 5
 95  2 16 18 13 29.9940000  0  5 18 14 22 29 19
  20501350.666   -19671887.245 6 -15063333.056 6
  18972643.963   -14600760.896 7 -11293836.268 8
  19791011.744   -17293086.122 7 -13381963.195 8
  19190684.455   -22076644.514 7 -17130118.315 9
  21308554.252   -13169454.248 5  -9915551.310 5
 95  2 16 18 13 59.9940000  0  5 18 14 22 29 19
  20480186.736   -19783101.931 6 -15149993.828 6
  18974794.424   -14589475.528 7 -11285042.504 8
  19792017.283   -17287800.258 7 -13377844.359 8
  19177372.979   -22146601.409 7 -17184630.179 9
  21287703.494   -13279032.402 5 -10000936.789 5
 95  2 16 18 14 29.9940000  0  5 18 14 22 29 19
  20459042.838   -19894207.776 6 -15236569.767 6
  18977040.494   -14577674.574 7 -11275846.991 8
  19793119.721   -17282007.478 7 -13373330.521 8
  19164095.994   -22216368.939 7 -17238994.489 9
  21266882.291   -13388445.184 5 -10086193.431 5
 95  2 16 18 14 59.9940000  0  5 18 14 22 29 19
  20437924.525   -20005191.325 6 -15323050.423 6
  18979384.455   -14565345.342 7 -11266239.836 8
  19794323.533   -17275683.839 7 -13368403.033 8
  19150858.385   -22285929.046 7 -17293197.170 9
  21246095.268   -13497668.875 5 -10171302.703 5
 95  2 16 18 15 29.9940000  0  5 18 14 22 29 19
  20416824.229   -20116066.154 6 -15409446.361 6
  18981827.994   -14552499.242 7 -11256229.916 8
  19795627.900   -17268836.662 7 -13363067.586 8
  19137657.729   -22355310.077 7 -17347260.310 9
  21225349.900   -13606701.660 5 -10256263.222 5
 95  2 16 18 15 59.9940000  0  5 18 14 22 29 19
  20395742.439   -20226856.989 6 -15495776.858 6
  18984367.479   -14539147.744 7 -11245826.189 8
  19797033.783   -17261451.277 7 -13357312.760 8
  19124487.361   -22424513.278 7 -17401184.877 9
  21204641.854   -13715533.054 5 -10341066.820 5
 95  2 16 18 16 29.9940000  0  5 18 14 22 29 19
  20374674.174   -20337563.912 6 -15582041.958 6
  18987006.979   -14525280.267 7 -11235020.397 8
  19798548.041   -17253503.957 7 -13351120.058 8
  19111355.127   -22493527.162 7 -17454961.926 9
  21183970.072   -13824148.126 5 -10425701.858 5
 95  2 16 18 16 59.9940000  0  5 18 14 22 29 19
  20353621.510   -20448201.468 6 -15668253.000 6
  18989742.127   -14510912.648 7 -11223824.885 8
  19800159.783   -17245027.003 7 -13344514.655 8
  19098253.361   -22562374.797 7 -17508609.431 9
  21163339.182   -13932566.879 5 -10510183.906 5
 95  2 16 18 17 29.9940000  0  5 18 14 22 29 19
  20332585.065   -20558748.784 6 -15754393.738 6
  18992574.893   -14496036.763 7 -11212233.326 8
  19801872.291   -17236014.125 7 -13337491.633 8
  19085189.768   -22631025.134 7 -17562103.193 9
  21142750.791   -14040766.203 6 -10594494.977 5
 95  2 16 18 17 59.9940000  0  5 18 14 22 29 19
  20311562.604   -20669227.251 6 -15840480.821 6
  18995496.635   -14480680.868 7 -11200267.739 8
  19803683.307   -17226498.216 7 -13330076.648 8
  19072162.408   -22699487.634 7 -17615450.592 9
  21122198.260   -14148776.798 5 -10678659.006 5
 95  2 16 18 18 29.9940000  0  5 18 14 22 29 19
  20290556.244   -20779615.543 6 -15926497.652 6
  18998511.869   -14464826.259 7 -11187913.541 8
  19805590.752   -17216487.554 7 -13322276.138 8
  19059172.674   -22767745.801 7 -17668638.771 9
  21101678.994   -14256586.856 6 -10762666.753 5
 95  2 16 18 18 59.9940000  0  5 18 14 22 29 19
  20269569.322   -20889904.192 6 -16012436.823 6
  19001622.596   -14448475.134 7 -11175172.444 8
  19807589.705   -17205983.573 7 -13314091.227 8
  19046228.346   -22835771.383 7 -17721645.719 9
  21081204.940   -14364185.627 5 -10846509.878 5
 95  2 16 18 19 29.9940000  0  5 18 14 22 29 19
  20248599.533   -21000087.876 6 -16098294.213 6
  19004825.752   -14431647.006 7 -11162059.669 8
  19809685.682   -17194965.354 7 -13305505.616 8
  19033326.252   -22903567.064 7 -17774473.519 9
  21060769.893   -14471573.254 5 -10930188.474 5
 95  2 16 18 19 59.9940000  0  5 18 14 22 29 19
  20227656.760   -21110156.056 6 -16184061.600 6
  19008126.979   -14414317.848 7 -11148556.479 8
  19811881.768   -17183417.786 7 -13296507.523 7
  19020469.065   -22971130.129 7 -17827120.062 9
  21040377.244   -14578745.522 5 -11013699.267 5
 95  2 16 18 20 29.9940000  0  5 18 14 22 29 19
  20206729.979   -21220116.780 6 -16269745.258 6
  19011512.166   -14396509.635 7 -11134679.990 8
  19814177.268   -17171360.300 7 -13287112.095 7
  19007655.830   -23038481.444 7 -17879601.607 9
  21020021.455   -14685709.212 5 -11097047.533 5
 95  2 16 18 20 59.9940000  0  5 18 14 22 29 19
  20185829.721   -21329959.783 6 -16355337.190 6
  19014990.783   -14378225.628 7 -11120432.767 8
  19816575.377   -17158776.406 7 -13277306.484 8
  18994877.354   -23105623.045 7 -17931919.732 9
  20999704.924   -14792462.071 5 -11180231.512 5
 95  2 16 18 21 29.9940000  0  5 18 14 22 29 19
  20164945.283   -21439697.850 6 -16440847.355 6
  19018565.260   -14359453.417 7 -11105805.119 8
  19819064.080   -17145675.700 7 -13267098.151 7
  18982135.916   -23172580.697 7 -17984094.519 9
  20979432.697   -14899000.894 6 -11263248.715 6
 95  2 16 18 21 59.9940000  0  5 18 14 22 29 19
  20144077.908   -21549363.466 6 -16526301.060 6
  19022230.650   -14340193.468 7 -11090797.421 8
  19821646.369   -17132103.549 7 -13256522.471 8
  18969427.455   -23239366.368 7 -18036135.305 9
  20959194.432   -15005339.544 6 -11346109.939 5
 95  2 16 18 22 29.9940000  0  5 18 14 22 29 19
  20123228.299   -21658930.224 6 -16611677.740 6
  19025988.689   -14320426.763 7 -11075394.840 8
  19824326.525   -17118031.127 7 -13245556.972 8
  18956757.291   -23305945.866 7 -18088015.429 9
  20939000.830   -15111461.820 6 -11428802.557 5
 95  2 16 18 22 59.9940000  0  5 18 14 22 29 19
  20102394.994   -21768416.080 6 -16696991.378 6
  19029848.736   -14300152.924 7 -11059597.085 8
  19827098.424   -17103464.232 7 -13234206.168 8
  18944124.354   -23372320.799 7 -18139736.158 9
  20918844.752   -15217385.486 6 -11511340.408 5
 95  2 16 18 23 29.9940000  0  5 18 14 22 29 19
  20081576.440   -21877805.990 6 -16782230.254 6
  19033809.900   -14279351.465 7 -11043388.208 8
  19829964.190   -17088394.601 7 -13222463.625 8
  18931537.518   -23438470.430 7 -18191281.330 9
  20898728.346   -15323107.445 6 -11593721.091 5
 95  2 16 18 23 59.9940000  0  5 18 14 22 29 19
  20060782.650   -21987085.998 7 -16867383.492 6
  19037861.432   -14258038.243 7 -11026780.553 8
  19832930.174   -17072820.550 7 -13210328.033 8
  18918994.307   -23504383.159 7 -18242641.897 9
  20878641.783   -15428651.908 6 -11675963.467 5
 95  2 16 18 24 29.9930000  0  5 18 14 22 29 19
  20040012.036   -22096230.628 6 -16952431.248 6
  19042013.935   -14236219.710 7 -11009779.151 8
  19835992.583   -17056724.811 7 -13197785.926 8
  18906499.575   -23570048.053 7 -18293809.344 9
  20858595.419   -15534010.567 6 -11758061.065 5
 95  2 16 18 24 59.9930000  0  5 18 14 22 29 19
  20019268.778   -22205245.044 6 -17037377.529 6
  19046262.755   -14213904.100 7 -10992390.415 8
  19839152.630   -17040115.531 7 -13184843.659 8
  18894050.396   -23635469.127 7 -18344786.804 9
  20838580.286   -15639176.917 6 -11840008.803 6
 95  2 16 18 25 29.9930000  0  5 18 14 22 29 19
  19998548.450   -22314127.097 7 -17122220.670 6
  19050600.177   -14191110.697 7 -10974629.376 8
  19842407.872   -17023003.172 7 -13171509.373 8
  18881646.966   -23700650.066 7 -18395577.145 9
  20818607.138   -15744147.166 6 -11921803.748 5
 95  2 16 18 25 59.9930000  0  5 18 14 22 29 19
  19977848.388   -22422898.544 6 -17206977.626 6
  19055019.192   -14167873.604 7 -10956522.604 8
  19845759.333   -17005405.034 7 -13157796.564 8
  18869286.755   -23765606.425 7 -18446192.493 9
  20798667.739   -15848919.499 6 -12003444.470 6
 95  2 16 18 26 29.9930000  0  5 18 14 22 29 19
  19957173.427   -22531561.260 6 -17291649.847 6
  19059529.661   -14144187.513 7 -10938065.960 8
  19849199.677   -16987314.310 7 -13143699.914 8
  18856968.138   -23830334.723 7 -18496630.127 9
  20778772.224   -15953468.811 6 -12084911.395 5
 95  2 16 18 26 59.9930000  0  5 18 14 22 29 19
  19936511.185   -22640126.875 6 -17376246.421 7
  19064120.263   -14120054.104 7 -10919260.766 8
  19852734.458   -16968742.321 7 -13129228.262 8
  18844691.349   -23894851.379 7 -18546902.849 9
  20758921.505   -16057800.957 6 -12166209.108 6
 95  2 16 18 27 29.9930000  0  5 18 14 22 29 19
  19915872.606   -22748595.425 7 -17460767.348 7
  19068796.997   -14095480.219 7 -10900112.335 8
  19856359.763   -16949697.541 7 -13114388.191 8
  18832451.021   -23959174.340 7 -18597024.636 9
  20739104.005   -16161929.692 6 -12247348.313 5
 95  2 16 18 27 59.9930000  0  5 18 14 22 29 19
  19895251.138   -22856957.614 7 -17545205.406 7
  19073561.310   -14070450.886 7 -10880609.008 8
  19860069.653   -16930182.961 7 -13099182.060 8
  18820247.950   -24023302.622 7 -18646994.728 9
  20719329.521   -16265858.294 6 -12328331.580 6
 95  2 16 18 28 29.9930000  0  5 18 14 22 29 19
  19874654.880   -22965186.231 6 -17629539.369 7
  19078414.114   -14044935.918 7 -10860727.277 8
  19863878.294   -16910193.696 7 -13083606.033 8
  18808083.177   -24087228.009 7 -18696806.718 9
  20699590.935   -16369575.432 6 -12409150.056 6
 95  2 16 18 28 59.9930000  0  6 28 18 14 22 29 19
  22897486.989          -0.19615
  19854085.888   -23073278.841 6 -17713767.357 7
  19083362.536   -14018942.479 7 -10840472.699 8
  19867764.481   -16889755.242 7 -13067679.996 8
  18795954.802   -24150967.201 7 -18746473.625 9
  20679891.505   -16473092.631 6 -12489812.742 5
 95  2 16 18 29 29.9930000  0  6 28 18 14 22 29 19
  22876690.497     -109288.547 5        -0.38815
  19833546.849   -23181210.168 6 -17797869.665 7
  19088403.255   -13992445.501 7 -10819825.753 8
  19871744.599   -16868844.238 7 -13051385.749 8
  18783870.013   -24214479.554 7 -18795963.769 9
  20660232.724   -16576395.592 6 -12570308.490 6
 95  2 16 18 29 59.9930000  0  6 28 18 14 22 29 19
  22855904.411     -218514.838 4    -85111.595 5
  19813034.739   -23288999.938 6 -17881861.680 7
  19093541.130   -13965444.884 7 -10798786.353 8
  19875813.349   -16847466.039 7 -13034727.450 8
  18771827.458   -24277757.099 7 -18845270.950 9
  20640615.560   -16679491.454 6 -12650642.864 6
 95  2 16 18 30 29.9930000  0  6 28 18 14 22 29 19
  22835131.310     -327672.876 4   -170169.612 5
  19792549.458   -23396653.329 7 -17965747.413 7
  19098774.794   -13937952.102 7 -10777363.459 8
  19879968.622   -16825616.419 7 -13017701.804 7
  18759832.880   -24340792.814 7 -18894389.685 9
  20621038.771   -16782372.981 6 -12730810.230 6
 95  2 16 18 30 59.9930000  0  6 28 18 14 22 29 19
  22814367.317     -436768.957 3   -255179.321 4
  19772085.669   -23504195.545 7 -18049546.526 7
  19104093.099   -13909995.592 7 -10755579.220 8
  19884216.067   -16803308.637 7 -13000319.152 7
  18747883.849   -24403577.788 7 -18943313.045 9
  20601495.896   -16885072.666 6 -12810835.894 6
 95  2 16 18 31 29.9930000  0  6 28 18 14 22 29 19
  22793621.771     -545801.488 3   -340139.520 3
  19751639.278   -23611636.897 7 -18133267.046 7
  19109498.489   -13881593.716 7 -10733447.939 8
  19888551.481   -16780532.512 7 -12982571.559 7
  18735986.724   -24466097.068 7 -18992029.367 9
  20581986.380   -16987599.937 6 -12890727.215 6
 95  2 16 18 31 59.9930000  0  6 28 18 14 22 29 19
  22772887.364     -654754.494 3   -425037.754 3
  19731218.114   -23718949.137 6 -18216886.955 7
  19114990.942   -13852745.061 7 -10710968.519 8
  19892972.599   -16757278.729 7 -12964451.766 7
  18724140.935   -24528346.033 7 -19040535.057 9
  20562512.474   -17089923.934 6 -12970460.133 6
 95  2 16 18 32 29.9930000  0  6 28 18 14 22 29 19
  22752168.114     -763620.835 3   -509868.461 2
  19710829.185   -23826109.349 7 -18300388.400 7
  19120558.044   -13823462.750 7 -10688151.182 8
  19897490.185   -16733556.865 7 -12945967.238 7
  18712346.911   -24590326.376 7 -19088831.430 9
  20543080.091   -17192039.120 6 -13050030.368 6
 95  2 16 18 32 59.9930000  0  6 28 18 14 22 29 19
  22731469.560     -872405.661 3
  19690463.239   -23933117.894 6 -18383771.666 7
  19126215.200   -13793750.945 7 -10664999.175 8
  19902091.325   -16709375.462 7 -12927124.625 7
  18700602.075   -24652045.240 7 -19136924.054 9
  20523690.849   -17293945.172 6 -13129437.626 6
 95  2 16 18 33 29.9930000  0  6 28 18 14 22 29 19
  22710785.591     -981103.795 3        -0.28311
  19670132.239   -24039967.224 7 -18467030.871 7
  19131951.622   -13763608.036 7 -10641511.244 8
  19906781.364   -16684726.089 7 -12907917.348 7
  18688901.622   -24713525.797 7 -19184830.979 9
  20504341.606   -17395612.456 6 -13208658.837 6
 95  2 16 18 33 59.9930000  0  6 28 18 14 22 29 19
  22690114.700    -1089719.882 4    -84636.007 3
  19649824.942   -24146668.947 7 -18550175.049 7
  19137767.747   -13733032.857 7 -10617686.479 8
  19911559.286   -16659626.969 7 -12888359.634 7
  18677244.825   -24774792.670 7 -19232571.406 9
  20485039.013   -17497047.985 6 -13287699.455 6
 95  2 16 18 34 29.9930000  0  6 28 18 14 22 29 19
  22669459.755    -1198254.497 5   -169208.203 1
  19629545.021   -24253247.277 7 -18633223.080 7
  19143671.505   -13702021.707 7 -10593521.997 8
  19916416.411   -16634084.290 7 -12868456.281 7
  18665627.013   -24835846.243 7 -19280145.622 9
  20465776.708   -17598273.507 6 -13366576.437 6
 95  2 16 18 34 59.9930000  0  6 28 18 14 22 29 19
  22648819.708    -1306702.681 4   -253713.070 2
  19609285.497   -24359714.685 7 -18716184.673 7
  19149654.302   -13670565.123 7 -10569010.424 8
  19921366.896   -16608089.111 7 -12848200.328 7
  18654050.653   -24896682.752 7 -19327550.703 9
  20446554.622   -17699298.097 6 -13445296.848 6
 95  2 16 18 35 29.9930000  0  6 28 18 14 22 29 19
  22628199.356    -1415069.033 4   -338154.110 3
  19589048.474   -24466067.520 7 -18799056.996 7
  19155727.513   -13638668.750 7 -10544156.160 8
  19926395.271   -16581649.272 7 -12827597.889 7
  18642514.107   -24957305.272 7 -19374789.036 9
  20427359.130   -17800154.094 6 -13523885.884 6
 95  2 16 18 35 59.9930000  0  6 28 18 14 22 29 19
  22607600.271    -1523335.389 4   -422517.284 2
  19568836.583   -24572275.115 7 -18881816.142 7
  19161882.606   -13606307.556 7 -10518939.701 8
  19931513.755   -16554765.295 7 -12806649.377 7
  18631025.458   -25017669.693 7 -19421826.261 9
  20408199.771   -17900841.955 6 -13602343.913 6
 95  2 16 18 36 29.9930000  0  6 28 18 14 22 29 19
  22587020.575    -1631492.530 4   -506795.358 2
  19548656.497   -24678320.921 7 -18964449.219 7
  19168131.435   -13573483.686 7 -10493362.726 8
  19936711.630   -16527435.617 7 -12785353.570 7
  18619593.935   -25077747.425 7 -19468640.088 9
  20389074.935   -18001343.107 6 -13680656.449 6
 95  2 16 18 36 59.9930000  0  6 28 18 14 22 29 19
  22566456.036    -1739546.914 4   -590993.368 2
  19528508.692   -24784202.714 7 -19046954.493 7
  19174458.849   -13540228.581 7 -10467449.710 8
  19941997.036   -16499669.377 6 -12763717.580 7
  18608214.575   -25137551.960 7 -19515241.036 8
  20369987.896   -18101652.936 6 -13758819.922 6
 95  2 16 18 37 29.9930000  0  6 28 18 14 22 29 19
  22545919.442    -1847487.706 4   -675102.927 2
  19508392.497   -24889906.961 7 -19129321.418 7
  19180869.974   -13506544.962 7 -10441202.798 8
  19947362.341   -16471465.757 6 -12741740.776 7
  18596886.106   -25197077.958 7 -19561624.934 9
  20350940.872   -18201737.945 6 -13836808.190 6
 95  2 16 18 37 59.9930000  0  6 28 18 14 22 29 19
  22525387.146    -1955333.246 4   -759138.254 1
  19488304.786   -24995477.595 7 -19211584.233 7
  19187354.692   -13472459.542 7 -10414642.790 8
  19952807.989   -16442857.190 6 -12719448.432 7
  18585605.466   -25256358.333 7 -19607817.443 8
  20331936.864   -18301594.814 6 -13914618.699 6
 95  2 16 18 38 29.9930000  0  6 28 18 14 22 29 19
  22504892.560    -2063068.389 3   -843087.534 2
  19468239.177   -25100918.238 7 -19293745.755 7
  19193917.177   -13437968.434 7 -10387766.666 8
  19958334.200   -16413816.970 6 -12696819.732 7
  18574369.974   -25315402.995 7 -19653826.283 9
  20312981.606   -18401211.770 6 -13992242.248 6
 95  2 16 18 38 59.9930000  0  6 28 18 14 22 29 19
  22484413.856    -2170684.578 3   -926944.197 2
  19448200.606   -25206215.047 7 -19375795.205 7
  19200560.989   -13403056.481 7 -10360562.614 8
  19963944.583   -16384330.766 6 -12673843.516 7
  18563175.614   -25374222.493 7 -19699659.667 9
  20294071.075   -18500599.743 6 -14069687.384 6
 95  2 16 18 39 29.9930000  0  6 28 18 14 22 29 19
  22463958.278    -2278181.878 3  -1010708.171 3
  19428190.552   -25311365.299 7 -19457730.448 7
  19207289.021   -13367702.515 7 -10333014.133 8
  19969638.489   -16354410.891 6 -12650529.383 7
  18552030.106   -25432802.416 7 -19745306.372 9
  20275199.802   -18599778.011 6 -14146969.111 6
 95  2 16 18 39 59.9930000  0  6 28 18 14 22 29 19
  22443526.778    -2385554.038 3  -1094374.660 2
  19408212.513   -25416360.141 7 -19539544.589 7
  19214102.888   -13331900.789 7 -10305116.741 7
  19975413.716   -16324059.425 6 -12626878.944 7
  18540930.528   -25491129.754 7 -19790756.253 9
  20256357.981   -18698774.125 6 -14224108.891 6
 95  2 16 18 40 29.9930000  0  6 28 18 14 22 29 19
  22423113.661    -2492801.420 3  -1177943.926 4
  19388266.231   -25521174.253 7 -19621217.909 7
  19220997.864   -13295662.868 7 -10276879.465 8
  19981274.435   -16293276.632 6 -12602892.404 7
  18529881.825   -25549184.522 7 -19835993.744 9
  20237551.927   -18797608.822 6 -14301122.891 6
 95  2 16 18 40 59.9930000  0  6 28 18 14 22 29 19
  22402728.872    -2599921.975 2  -1261414.402 4
  19368358.364   -25625794.751 7 -19702740.360 7
  19227979.552   -13258992.989 7 -10248305.590 8
  19987206.083   -16262083.750 6 -12578586.325 7
  18518892.052   -25606941.938 7 -19880999.528 9
  20218771.458   -18896284.591 6 -14378013.063 6
 95  2 16 18 41 29.9930000  0  6 28 18 14 22 29 19
  22382371.161    -2706915.910 3  -1344786.141 4
  19348484.935   -25730239.082 7 -19784125.546 7
  19235031.864   -13221910.397 7 -10219410.122 7
  19993220.981   -16230492.230 6 -12553969.600 7
  18507960.755   -25664387.086 7 -19925761.992 9
  20200024.786   -18994797.030 6 -14454775.968 6
 95  2 16 18 41 59.9930000  0  6 28 18 14 22 29 19
  22362036.224    -2813780.316 3  -1428056.952 2
  19328640.364   -25834513.503 7 -19865378.328 7
  19242165.286   -13184439.037 7 -10190211.715 7
  19999309.653   -16198488.094 6 -12529031.368 7
  18497086.200   -25721529.144 7 -19970288.281 9
  20181315.411   -19093126.222 6 -14531396.075 6
 95  2 16 18 42 29.9930000  0  6 28 18 14 22 29 19
  22341725.544    -2920502.952 3  -1511217.320 3
  19308830.896   -25938609.458 7 -19946492.050 7
  19249369.396   -13146574.983 7 -10160707.311 7
  20005482.474   -16166052.394 6 -12503756.836 7
  18486269.825   -25778371.404 7 -20014580.945 8
  20162645.497   -19191239.498 6 -14607847.949 6
 95  2 16 18 42 59.9930000  0  6 28 18 14 22 29 19
  22321445.099    -3027081.635 4  -1594265.498 4
  19289052.310   -26042552.343 7 -20027486.486 7
  19256647.950   -13108324.761 7 -10130902.000 7
  20011734.935   -16133186.268 6 -12478146.914 7
  18475506.403   -25834935.246 7 -20058656.673 9
  20144019.716   -19289125.413 6 -14684122.649 6
 95  2 16 18 43 29.9930000  0  6 28 18 14 22 29 19
  22301191.153    -3133512.902 4  -1677198.822 3
  19269300.989   -26146346.764 7 -20108365.239 7
  19263995.966   -13069697.159 7 -10100802.634 7
  20018077.302   -16099881.389 6 -12452195.097 7
  18464791.942   -25891242.515 7 -20102532.472 9
  20125434.849   -19386779.513 6 -14760216.712 6
 95  2 16 18 43 59.9920000  0  6 28 18 14 22 29 19
  22280972.125    -3239793.417 4  -1760014.676 3
  19249579.672   -26249981.909 7 -20189119.881 7
  19271422.508   -13030689.619 7 -10070407.197 7
  20024491.008   -16066155.882 6 -12425915.520 7
  18454120.742   -25947311.299 7 -20146222.436 9
  20106896.922   -19484201.219 6 -14836129.708 6
 95  2 16 18 44 29.9920000  0  6 28 18 14 22 29 19
  22260771.570    -3345913.342 5  -1842705.374 2
  19229891.180   -26353447.724 7 -20269742.584 7
  19278921.016   -12991275.899 7 -10039695.282 7
  20030988.734   -16032023.728 6 -12399319.076 7
  18443499.391   -26003132.510 7 -20189719.490 9
  20088400.242   -19581399.014 6 -14911868.217 6
 95  2 16 18 44 59.9920000  0  6 28 18 14 22 29 19
  22240602.188    -3451883.508 4  -1925279.374 4
  19210231.711   -26456757.851 7 -20350243.966 7
  19286496.641   -12951473.350 6 -10008680.374 7
  20037554.047   -15997519.170 6 -12372432.445 7
  18432923.766   -26058708.600 7 -20233025.537 9
  20069940.977   -19678399.365 6 -14987452.863 6
 95  2 16 18 45 29.9920000  0  6 28 18 14 22 29 19
  22220474.070    -3557687.689 5  -2007724.043 3
  19190609.813   -26559876.106 7 -20430595.852 7
  19294148.531   -12911257.598 7  -9977343.491 7
  20044191.367   -15962641.504 6 -12345255.080 7
  18422399.367   -26114013.562 7 -20276120.314 9
  20051520.852   -19775194.107 6 -15062877.305 6
 95  2 16 18 45 59.9920000  0  6 28 18 14 22 29 19
  22200369.563    -3663334.019 5  -2090045.699 3
  19171021.313   -26662810.398 7 -20510804.377 7
  19301881.211   -12870626.969 6  -9945683.322 7
  20050896.641   -15927400.656 6 -12317794.724 7
  18411926.211   -26169046.640 7 -20319003.241 9
  20033141.867   -19871784.399 6 -15138142.422 6
 95  2 16 18 46 29.9920000  0  6 28 18 14 22 29 19
  22180300.125    -3768809.324 5  -2172234.118 4
  19151471.899   -26765543.308 7 -20590855.983 8
  19309693.664   -12829576.687 6  -9913696.164 7
  20057678.703   -15891763.233 6 -12290025.347 7
  18401511.820   -26223780.153 7 -20361652.745 9
  20014801.641   -19968164.880 6 -15213244.062 6
 95  2 16 18 46 59.9920000  0  6 28 18 14 22 29 19
  22160257.875    -3874112.928 5  -2254288.721 4
  19131959.711   -26868075.348 7 -20670751.066 7
  19317584.180   -12788109.369 6  -9881384.030 7
  20064539.836   -15855703.902 6 -12261927.206 7
  18391153.750   -26278209.707 7 -20404065.385 9
  19996500.156   -20064334.631 6 -15288181.491 6
 95  2 16 18 47 29.9920000  0  6 28 18 14 22 29 19
  22140252.399    -3979253.758 4  -2336216.469 3
  19112484.766   -26970415.190 7 -20750496.385 8
  19325552.102   -12746238.015 6  -9848757.069 7
  20071482.391   -15819231.569 6 -12233507.255 7
  18380851.563   -26332348.568 7 -20446251.519 9
  19978240.734   -20160303.472 6 -15362962.378 6
 95  2 16 18 47 59.9920000  0  6 28 18 14 22 29 19
  22120277.875    -4084232.903 4  -2418018.258 2
  19093046.188   -27072573.599 7 -20830100.327 8
  19333594.727   -12703976.719 6  -9815826.249 7
  20078498.578   -15782353.791 6 -12204771.369 7
  18370604.602   -26386200.500 7 -20488214.065 9
  19960014.274   -20256079.226 6 -15437592.776 6
 95  2 16 18 48 29.9920000  0  6 28 18 14 22 29 19
  22100327.570    -4189055.066 4  -2499697.710 4
  19073638.750   -27174557.069 7 -20909567.944 8
  19341706.086   -12661344.366 6  -9782606.307 7
  20085589.219   -15745097.833 6 -12175740.786 7
  18360409.180   -26439773.241 7 -20529959.060 9
  19941819.656   -20351684.866 6 -15512090.626 6
 95  2 16 18 48 59.9920000  0  6 28 18 14 22 29 19
  22080415.680    -4293692.597 4  -2581233.313 4
  19054271.758   -27276348.016 7 -20988885.545 8
  19349895.008   -12618319.696 6  -9749080.658 7
  20092748.195   -15707474.479 6 -12146423.927 7
  18350271.289   -26493051.010 7 -20571474.213 9
  19923662.703   -20447095.877 6 -15586436.826 6
 95  2 16 18 49 29.9920000  0  6 28 18 14 22 29 19
  22060538.203    -4398147.057 3  -2662626.262 5
  19034935.391   -27377947.994 7 -21068054.348 8
  19358151.680   -12574922.213 6  -9715264.505 7
  20099974.359   -15669512.732 6 -12116843.388 7
  18340188.023   -26546035.213 7 -20612760.611 9
  19905542.656   -20542311.542 6 -15660630.812 6
 95  2 16 18 49 59.9920000  0  6 28 18 14 22 29 19
  22040697.242    -4502413.927 4  -2743873.010 5
  19015637.984   -27479355.534 7 -21147073.198 8
  19366481.891   -12531156.660 6  -9681161.545 7
  20107259.758   -15631209.317 6 -12086996.618 7
  18330161.852   -26598727.376 7 -20653819.449 9
  19887462.852   -20637331.710 6 -15734672.453 6
 95  2 16 18 50 29.9920000  0  6 28 18 14 22 29 19
  22020887.641    -4606496.468 5  -2824976.107 5
  18996374.789   -27580575.939 7 -21225946.225 8
  19374875.617   -12487033.675 6  -9646780.073 7
  20114616.898   -15592553.259 6 -12056875.055 7
  18320189.422   -26651137.176 7 -20694658.262 9
  19869420.555   -20732160.322 6 -15808564.842 6
 95  2 16 18 50 59.9920000  0  6 28 18 14 22 29 19
  22001121.797    -4710389.471 4  -2905931.553 5
  18977148.773   -27681609.470 7 -21304673.640 8
  19383340.649   -12442560.658 6  -9612125.846 7
  20122039.742   -15553527.003 6 -12026465.023 7
  18310269.852   -26703260.334 7 -20735273.726 9
  19851411.773   -20826781.841 6 -15882295.865 6
 95  2 16 18 51 29.9920000  0  6 28 18 14 22 29 19
  21981387.344    -4814091.678 5  -2986738.318 4
  18957959.133   -27782452.968 7 -21383252.980 8
  19391866.070   -12397744.881 6  -9577204.531 7
  20129546.156   -15514106.826 6 -11995748.051 7
  18300407.203   -26755086.357 7 -20775657.649 9
  19833447.859   -20921191.415 6 -15955861.741 6
 95  2 16 18 51 59.9920000  0  6 28 18 14 22 29 19
  21961690.563    -4917606.553 4  -3067399.104 5
  18938806.563   -27883111.349 7 -21461688.073 8
  19400462.555   -12352590.111 6  -9542019.072 7
  20137118.719   -15474290.332 6 -11964722.260 7
  18290600.367   -26806626.627 7 -20815818.909 9
  19815515.383   -21015396.385 6 -16029268.179 6
 95  2 16 18 52 29.9920000  0  6 28 18 14 22 29 19
  21942027.227    -5020938.910 4  -3147917.690 4
  18919687.125   -27983581.196 7 -21539976.258 8
  19409116.156   -12307105.624 6  -9506576.672 7
  20144769.836   -15434102.103 6 -11933406.805 7
  18280845.492   -26857886.268 7 -20855761.495 9
  19797629.578   -21109398.370 6 -16102516.457 6
 95  2 16 18 52 59.9920000  0  6 28 18 14 22 29 19
  21922397.641    -5124076.402 4  -3228284.404 5
  18900605.078   -28083849.853 7 -21618107.670 8
  19417838.086   -12261280.224 6  -9470868.651 7
  20152484.531   -15393552.506 6 -11901809.780 6
  18271147.789   -26908847.308 7 -20895471.406 9
  19779784.953   -21203190.992 6 -16175601.574 6
 95  2 16 18 53 29.9920000  0  6 28 18 14 22 29 19
  21902813.039    -5226999.629 5  -3308484.188 5
  18881568.406   -28183889.068 7 -21696060.298 8
  19426626.281   -12215089.294 6  -9434875.779 7
  20160272.227   -15352629.141 6 -11869921.505 6
  18261509.594   -26959497.925 7 -20934939.431 9
  19761977.649   -21296772.518 6 -16248522.234 6
 95  2 16 18 53 59.9920000  0  7 28 31 18 14 22 29 19
  21883263.289    -5329715.080 4  -3388522.045 4
  22357590.828          -0.49613
  18862574.484   -28283703.016 7 -21773837.388 8
  19435483.805   -12168538.627 6  -9398602.610 7
  20168127.047   -15311357.476 6 -11837761.813 7
  18251925.656   -27009859.617 7 -20974182.316 9
  19744205.078   -21390159.297 6 -16321291.126 6
 95  2 16 18 54 29.9920000  0  7 28 31 18 14 22 29 19
  21863759.063    -5432212.594 5  -3468390.128 4
  22333607.078     -125993.621 3        -0.01213
  18843627.867   -28383285.202 7 -21851433.894 8
  19444413.844   -12121627.028 6  -9362048.189 6
  20176044.938   -15269738.892 6 -11805331.800 6
  18242400.984   -27059912.701 7 -21013184.724 9
  19726472.563   -21483340.526 6 -16393899.855 6
 95  2 16 18 54 59.9920000  0  7 28 31 18 14 22 29 19
  21844293.774    -5534503.697 5  -3548097.374 4
  22309613.938     -252061.851 3    -98234.683 2
  18824715.570   -28482666.915 7 -21928874.175 8
  19453405.313   -12074371.716 6  -9325225.937 7
  20184031.930   -15227777.459 6 -11772634.638 6
  18232934.602   -27109659.645 7 -21051948.584 9
  19708774.016   -21576341.958 6 -16466368.476 6
 95  2 16 18 55 29.9920000  0  7 28 31 18 14 22 29 19
  21824872.797    -5636581.251 5  -3627638.206 4
  22285619.711     -378186.366 3   -196513.216 4
  18805841.875   -28581842.189 7 -22006153.597 8
  19462463.281   -12026775.071 6  -9288137.711 7
  20192081.508   -15185471.224 6 -11739668.795 6
  18223526.117   -27159098.560 7 -21090472.422 9
  19691112.984   -21669148.481 6 -16538685.223 6
 95  2 16 18 55 59.9920000  0  7 28 31 18 14 22 29 19
  21805488.203    -5738441.374 5  -3707009.640 4
  22261610.125     -504348.671 3   -294821.172 2
  18787006.047   -28680815.751 7 -22083275.839 8
  19471583.109   -11978843.058 6  -9250788.170 6
  20200198.195   -15142834.137 6 -11706445.144 6
  18214180.586   -27208213.763 7 -21128744.013 9
  19673491.711   -21761752.576 6 -16610844.224 6
 95  2 16 18 56 29.9920000  0  7 28 31 18 14 22 29 19
  21786146.594    -5840091.398 5  -3786217.349 3
  22237591.328     -630563.573 3   -393170.153 1
  18768207.422   -28779602.972 7 -22160252.879 8
  19480767.938   -11930590.877 6  -9213189.120 6
  20208370.266   -15099876.635 6 -11672971.805 6
  18204894.984   -27257005.256 7 -21166763.365 9
  19655908.727   -21854169.926 6 -16682857.710 6
 95  2 16 18 56 59.9920000  0  7 28 31 18 14 22 29 19
  21766846.195    -5941521.891 5  -3865253.993 2
  22213558.461     -756839.703 3   -491566.837 2
  18749446.570   -28878189.295 7 -22237073.380 8
  19490011.219   -11882006.922 6  -9175331.574 7
  20216607.117   -15056591.774 6 -11639243.377 6
  18195671.945   -27305481.954 7 -21204537.417 9
  19638354.758   -21946410.215 6 -16754733.222 6
 95  2 16 18 57 29.9920000  0  7 28 31 18 14 22 29 19
  21747584.047    -6042721.720 5  -3944110.913 3
  22189518.305     -883181.335 3   -590014.575 1
  18730730.563   -28976552.627 7 -22313720.127 8
  19499319.461   -11833087.651 6  -9137212.738 6
  20224906.000   -15012978.764 6 -11605259.260 6
  18186504.008   -27353653.519 7 -21242073.714 9
  19620839.109   -22038458.140 6 -16826458.848 6
 95  2 16 18 57 59.9920000  0  7 28 31 18 14 22 29 19
  21728373.758    -6143687.708 5  -4022785.618 3
  22165464.680    -1009602.243 4   -688524.065 1
  18712054.391   -29074696.578 7 -22390195.919 8
  19508690.516   -11783840.850 6  -9098838.661 6
  20233270.828   -14969033.358 6 -11571016.134 6
  18177394.227   -27401524.056 7 -21279375.450 9
  19603354.930   -22130330.176 6 -16898047.398 6
 95  2 16 18 58 29.9920000  0  7 28 31 18 14 22 29 19
  21709204.477    -6244412.315 5  -4101272.212 1
  22141385.695    -1136102.719 3   -787095.562 3
  18693422.117   -29172608.491 7 -22466490.906 8
  19518124.242   -11734264.954 6  -9060208.172 6
  20241695.203   -14924757.034 6 -11536515.151 6
  18168340.484   -27449103.311 7 -21316450.192 9
  19585907.672   -22222016.885 6 -16969491.558 6
 95  2 16 18 58 59.9920000  0  7 28 31 18 14 22 29 19
  21690084.625    -6344894.982 5  -4179570.292 2
  22117300.149    -1262679.123 4   -885726.225 3
  18674835.070   -29270285.210 7 -22542602.621 8
  19527619.984   -11684368.547 6  -9021327.929 6
  20250180.539   -14880156.382 6 -11501761.440 6
  18159341.602   -27496393.886 7 -21353300.000 9
  19568496.500   -22313504.755 6 -17040780.765 6
 95  2 16 18 59 29.9920000  0  7 28 31 18 14 22 29 19
  21671010.711    -6445127.556 5  -4257673.536 1
  22093206.344    -1389310.367 4   -984399.640 2
  18656292.344   -29367725.119 7 -22618529.813 8
  19537172.664   -11634155.774 6  -8982201.159 6
  20258730.352   -14835234.724 6 -11466757.595 6
  18150401.328   -27543375.420 7 -21389909.002 9
  19551129.344   -22404769.503 6 -17111896.119 6
 95  2 16 18 59 59.9920000  0  7 28 31 18 14 22 29 19
  21651980.383    -6545116.182 5  -4335586.663 2
  22069091.938    -1515998.074 4  -1083117.037 1
  18637795.000   -29464929.404 7 -22694273.390 8
  19546790.695   -11583634.664 6  -8942834.140 6
  20267334.453   -14790007.335 6 -11431515.520 6
  18141521.961   -27590039.772 7 -21426270.844 9
  19533805.156   -22495815.771 6 -17182841.226 6
 95  2 16 19  0 29.9920000  0  7 28 31 18 14 22 29 19
  21632999.492    -6644858.283 5  -4413307.686 4
  22044976.711    -1642723.155 4  -1181863.576 1
  18619345.977   -29561883.912 7 -22769822.345 8
  19556463.031   -11532792.727 6  -8903217.122 6
  20276002.555   -14744479.864 6 -11396039.611 6
  18132703.289   -27636370.658 7 -21462372.840 9
  19516522.977   -22586634.673 6 -17253609.166 6
 95  2 16 19  0 59.9920000  0  7 28 31 18 14 22 29 19
  21614069.797    -6744340.506 5  -4490826.171 4
  22020859.305    -1769464.659 5  -1280622.903 1
  18600944.883   -29658579.313 7 -22845169.396 8
  19566203.758   -11481616.144 6  -8863339.351 6
  20284727.250   -14698622.701 6 -11360306.802 6
  18123955.703   -27682348.899 7 -21498200.044 9
  19499285.906   -22677219.161 6 -17324194.451 6
 95  2 16 19  1 29.9920000  0  7 28 31 18 14 22 29 19
  21595189.109    -6843570.661 5  -4568148.275 2
  21996741.359    -1896220.629 5  -1379393.506 2
  18582592.375   -29755017.210 7 -22920315.794 8
  19576003.070   -11430108.838 6  -8823203.860 6
  20293514.969   -14652444.173 6 -11324323.580 6
  18115270.891   -27727989.847 7 -21533764.426 9
  19482087.305   -22767593.324 6 -17394615.845 6
 95  2 16 19  1 59.9920000  0  7 28 31 18 14 22 29 19
  21576352.539    -6942537.852 5  -4645265.432 4
  21972619.430    -2022981.345 3  -1478167.844 2
  18564291.500   -29851185.434 7 -22995252.059 8
  19585870.063   -11378259.890 6  -8782802.170 6
  20302364.399   -14605930.757 6 -11288079.410 6
  18106651.609   -27773282.249 7 -21569057.214 8
  19464930.492   -22857764.469 6 -17464879.043 6
 95  2 16 19  2 29.9920000  0  8 28 31 18 14 22 29 19 27
  21557568.656    -7041250.576 4  -4722184.330 3
  21948495.195    -2149754.006 3  -1576951.477 1
  18546038.438   -29947111.121 7 -23069999.326 8
  19595799.961   -11326081.219 6  -8742143.541 6
  20311276.023   -14559099.072 6 -11251587.245 6
  18098096.102   -27818244.448 7 -21604092.695 8
  19447805.195   -22947750.728 6 -17534998.186 6
  22593456.469          -0.21513
 95  2 16 19  2 59.9910000  0  8 28 31 18 14 22 29 19 27
  21538834.698    -7139703.104 5  -4798900.468 3
  21924369.448    -2276551.287 3  -1675754.301 1
  18527829.394   -30042803.633 7 -23144564.911 8
  19605788.581   -11273595.588 6  -8701245.717 6
  20320247.425   -14511961.316 6 -11214856.582 6
  18089599.542   -27862885.665 7 -21638878.059 9
  19430715.112   -23037551.420 6 -17604972.718 6
  22570881.761     -118652.071 3
 95  2 16 19  3 29.9910000  0  8 28 31 18 14 22 29 19 27
  21520149.331    -7237892.197 5  -4875411.327 4
  21900228.925    -2403369.587 3  -1774573.522 1
  18509665.628   -30138265.258 7 -23218950.583 8
  19615835.440   -11220796.047 6  -8660103.309 6
  20329272.605   -14464528.650 6 -11177896.127 6
  18081169.065   -27907194.121 7 -21673404.137 8
  19413659.714   -23127169.762 6 -17674805.154 6
  22548314.230     -237226.562 4
 95  2 16 19  3 59.9910000  0  8 28 31 18 14 22 29 19 27
  21501517.878    -7335804.883 5  -4951706.784 4
  21876096.620    -2530192.365 3  -1873396.194 1
  18491543.292   -30233491.873 7 -23293153.131 8
  19625941.065   -11167689.510 6  -8618721.666 6
  20338356.347   -14416809.445 6 -11140712.383 6
  18072802.823   -27951157.515 7 -21707661.337 9
  19396645.597   -23216594.961 6 -17744487.098 6
  22525767.378     -355705.165 5        -0.26511
 95  2 16 19  4 29.9910000  0  8 28 31 18 14 22 29 19 27
  21482942.565    -7433442.443 5  -5027787.866 4
  21851960.878    -2657027.025 3  -1972228.095 1
  18473466.464   -30328477.289 7 -23367167.731 9
  19636102.003   -11114298.169 6  -8577118.093 6
  20347486.933   -14368805.976 6 -11103307.143 6
  18064500.214   -27994791.858 7 -21741662.128 9
  19379666.433   -23305825.686 6 -17814017.500 7
  22503232.456     -474107.424 4    -92261.667 1
 95  2 16 19  4 59.9910000  0  8 28 31 18 14 22 29 19 27
  21464403.722    -7530812.023 4  -5103660.148 4
  21827823.401    -2783882.380 3  -2071076.141 1
  18455439.159   -30423220.749 7 -23440993.796 9
  19646312.011   -11060638.408 6  -8535305.391 6
  20356680.776   -14320510.773 6 -11065674.581 6
  18056256.987   -28038100.134 7 -21775408.843 8
  19362721.300   -23394866.518 6 -17883399.937 6
  22480715.573     -592437.163 4   -184466.594 1
 95  2 16 19  5 29.9910000  0  8 28 31 18 14 22 29 19 27
  21445937.159    -7627898.009 5  -5179311.462 5
  21803679.269    -2910735.848 3  -2169922.728 1
  18437459.675   -30517702.756 7 -23514616.130 9
  19656576.784   -11006693.222 6  -8493270.253 6
  20365930.542   -14271900.780 6 -11027796.723 6
  18048083.737   -28081058.955 7 -21808883.259 8
  19345814.370   -23483705.649 6 -17952625.198 6
  22458213.073     -710697.800 3   -276617.607 1
 95  2 16 19  5 59.9910000  0  8 28 31 18 14 22 29 19 27
  21427516.378    -7724706.017 5  -5254746.165 5
  21779542.050    -3037608.240 3  -2268784.055 3
  18419527.339   -30611927.065 7 -23588037.660 8
  19666894.542   -10952482.307 6  -8451028.065 6
  20375241.456   -14222968.453 6 -10989667.701 6
  18039972.058   -28123681.533 7 -21842095.672 9
  19328951.628   -23572341.639 6 -18021692.182 7
  22435717.667     -828914.077 3   -368734.119 1
 95  2 16 19  6 29.9910000  0  8 28 31 18 14 22 29 19 27
  21409140.339    -7821229.553 5  -5329959.199 5
  21755396.683    -3164515.472 3  -2367672.528 2
  18401647.980   -30705893.597 7 -23661258.325 8
  19677263.605   -10897994.751 6  -8408570.316 6
  20384617.034   -14173700.331 6 -10951277.016 6
  18031928.847   -28165951.501 7 -21875033.322 8
  19312121.144   -23660758.385 6 -18090588.310 6
  22413225.026     -947090.526 3   -460819.494 1
 95  2 16 19  6 59.9910000  0  8 28 31 18 14 22 29 19 27
  21390832.128    -7917467.005 5  -5404949.346 4
  21731237.480    -3291448.808 3  -2466581.374 4
  18383812.776   -30799616.227 7 -23734288.940 9
  19687686.675   -10843215.836 6  -8365885.530 6
  20394051.831   -14124118.633 6 -10912641.993 6
  18023954.230   -28207857.873 7 -21907687.643 8
  19295340.097   -23748963.185 6 -18159319.296 6
  22390755.120    -1065216.983 3   -552865.987 1
 95  2 16 19  7 29.9910000  0  8 28 31 18 14 22 29 19 27
  21372568.573    -8013426.391 5  -5479722.827 5
  21707073.269    -3418412.146 3  -2565513.598 4
  18366022.644   -30893101.826 7 -23807134.853 9
  19698164.565   -10788150.580 6  -8322977.631 6
  20403539.620   -14074250.005 6 -10873783.384 6
  18016044.948   -28249415.451 7 -21940070.182 8
  19278590.417   -23836975.989 6 -18227900.665 7
  22368278.206    -1183303.542 3   -644881.390 2
 95  2 16 19  7 59.9910000  0  8 28 31 18 14 22 29 19 27
  21354358.292    -8109102.750 5  -5554275.780 5
  21682913.480    -3545392.367 3  -2664458.970 4
  18348279.800   -30986350.294 7 -23879795.989 9
  19708699.042   -10732798.070 6  -8279845.884 6
  20413081.620   -14024107.917 6 -10834711.705 6
  18008200.714   -28290641.028 7 -21972194.022 8
  19261877.511   -23924797.664 6 -18296333.111 7
  22345821.925    -1301323.914 3   -736845.212 2
 95  2 16 19  8 29.9910000  0  8 28 31 18 14 22 29 19 27
  21336214.425    -8204484.127 5  -5628598.852 4
  21658745.589    -3672361.237 3  -2763395.517 2
  18330581.198   -31079346.184 7 -23952260.303 9
  19719287.964   -10677150.252 6  -8236484.058 6
  20422675.612   -13973703.822 6 -10795435.857 6
  18000420.667   -28331529.596 7 -22004055.261 8
  19245199.597   -24012442.557 7 -18364627.795 7
  22323377.144    -1419256.353 3   -828740.500 3
 95  2 16 19  8 59.9910000  0  8 28 31 18 14 22 29 19 27
  21318118.800    -8299560.101 5  -5702683.985 5
  21634593.706    -3799292.239 4  -2862302.558 2
  18312936.034   -31172071.747 7 -24024513.975 9
  19729935.534   -10621211.805 6  -8192895.761 6
  20432314.636   -13923038.114 6 -10755956.149 6
  17992700.753   -28372093.363 7 -22035663.401 8
  19228554.784   -24099916.629 6 -18432789.377 7
  22300954.909    -1537082.391 3   -920552.920 2
 95  2 16 19  9 29.9910000  0  8 28 31 18 14 22 29 19 27
  21300088.112    -8394331.900 5  -5776532.114 5
  21610449.644    -3926188.049 4  -2961182.175 2
  18295345.433   -31264517.986 7 -24096549.990 9
  19740627.972   -10565001.098 6  -8149095.300 6
  20442010.315   -13872107.361 6 -10716269.922 6
  17985040.394   -28412349.522 7 -22067031.860 8
  19211937.987   -24187216.329 6 -18500815.096 7
  22278555.675    -1654805.477 3  -1012285.072 3
 95  2 16 19  9 59.9910000  0  8 28 31 18 14 22 29 19 27
  21282106.112    -8488799.219 5  -5850142.958 5
  21586305.394    -4053047.931 4  -3060033.801 3
  18277805.792   -31356681.618 7 -24168365.794 9
  19751374.026   -10508538.040 6  -8105098.209 6
  20451747.503   -13820922.816 6 -10676385.930 6
  17977440.144   -28452292.617 7 -22098156.359 8
  19195363.511   -24274335.565 6 -18568700.185 7
  22256167.011    -1772433.177 3  -1103942.923 2
 95  2 16 19 10 29.9910000  0  8 28 31 18 14 22 29 19 27
  21264195.495    -8582959.468 5  -5923514.542 5
  21562171.370    -4179880.932 4  -3158864.477 4
  18260321.151   -31448556.955 7 -24239956.947 9
  19762165.886   -10451830.753 6  -8060910.828 6
  20461537.870   -13769482.023 6 -10636302.274 6
  17969903.644   -28491897.318 7 -22129017.180 8
  19178824.167   -24361260.084 7 -18636433.563 7
  22233798.644    -1889977.533 3  -1195535.805 2
 95  2 16 19 10 59.9910000  0  8 28 31 18 14 22 29 19 27
  21246331.456    -8676815.086 5  -5996648.748 5
  21538041.808    -4306695.856 5  -3257681.039 2
  18242892.894   -31540149.354 7 -24311327.624 9
  19773001.355   -10394890.584 6  -8016541.958 6
  20471375.417   -13717789.125 6 -10596022.162 6
  17962431.870   -28531166.000 7 -22159616.155 8
  19162323.909   -24447974.719 7 -18704003.383 7
  22211448.761    -2007456.421 3  -1287077.689 4
 95  2 16 19 11 29.9910000  0  8 28 31 18 14 22 29 19 27
  21228534.964    -8770364.265 5  -6069544.144 5
  21513912.972    -4433495.309 5  -3356485.580 4
  18225517.347   -31631461.350 7 -24382479.810 9
  19783877.792   -10337728.122 6  -7971999.884 6
  20481258.011   -13665844.397 6 -10555545.822 6
  17955026.026   -28570080.721 7 -22189939.324 8
  19145861.097   -24534473.486 6 -18771404.992 7
  22189102.284    -2124876.608 3  -1378573.871 2
 95  2 16 19 11 59.9910000  0  8 28 31 18 14 22 29 19 27
  21210785.097    -8863603.635 5  -6142198.145 5
  21489786.308    -4560279.059 5  -3455277.841 4
  18208195.128   -31722496.822 7 -24453416.528 9
  19794799.050   -10280338.298 6  -7927280.651 6
  20491191.042   -13613647.470 6 -10514872.966 6
  17947690.776   -28608626.968 7 -22219975.371 8
  19129437.261   -24620763.365 6 -18838643.841 7
  22166764.987    -2242243.267 3  -1470028.279 3
 95  2 16 19 12 29.9910000  0  8 28 31 18 14 22 29 19 27
  21193103.784    -8956526.483 5  -6214605.501 5
  21465660.933    -4687045.272 5  -3554056.466 3
  18190923.097   -31813262.823 7 -24524143.263 9
  19805764.667   -10222712.718 6  -7882377.708 6
  20501173.620   -13561192.697 6 -10473999.197 6
  17940424.644   -28646808.647 7 -22249727.344 8
  19113059.480   -24706844.882 7 -18905720.334 7
  22144445.878    -2359554.181 3  -1561439.264 3
 95  2 16 19 12 59.9910000  0  8 28 31 18 14 22 29 19 27
  21175486.839    -9049123.215 5  -6286758.706 5
  21441542.730    -4813778.502 4  -3652809.411 2
  18173705.276   -31903745.457 7 -24594649.201 9
  19816778.714   -10164838.870 6  -7837281.323 6
  20511205.480   -13508469.910 6 -10432916.590 6
  17933230.401   -28684617.591 7 -22279188.872 8
  19096716.167   -24792728.999 7 -18972642.995 7
  22122134.269    -2476792.966 3  -1652794.044 3
 95  2 16 19 13 29.9910000  0  8 28 31 18 14 22 29 19 27
  21157922.964    -9141406.000 5  -6358667.266 4
  21417431.136    -4940497.475 4  -3751551.246 2
  18156537.308   -31993958.629 7 -24664945.160 9
  19827836.691   -10106719.827 6  -7791993.870 6
  20521290.644   -13455492.561 6 -10391635.609 6
  17926105.058   -28722058.164 7 -22308363.355 8
  19080405.706   -24878432.421 7 -19039424.867 7
  22099839.394    -2593955.493 3  -1744089.395 4
 95  2 16 19 13 59.9910000  0  8 28 31 18 14 22 29 19 27
  21140422.683    -9233363.645 5  -6430322.486 5
  21393320.847    -5067188.794 5  -3850271.550 2
  18139423.105   -32083890.392 7 -24735021.847 9
  19838949.245   -10048333.183 6  -7746497.891 6
  20531415.339   -13402269.059 6 -10350162.833 6
  17919052.175   -28759122.814 7 -22337244.918 8
  19064135.605   -24963947.110 7 -19106059.663 7
  22077558.315    -2711038.949 3  -1835323.103 3
 95  2 16 19 14 29.9910000  0  8 28 31 18 14 22 29 19 27
  21122984.050    -9325002.737 5  -6501729.476 5
  21369219.956    -5193856.126 5  -3948973.147 2
  18122360.964   -32173548.118 7 -24804884.997 8
  19850107.628    -9989697.552 6  -7700807.910 6
  20541588.901   -13348816.431 6 -10308511.513 6
  17912069.628   -28795819.933 7 -22365840.089 8
  19047897.761   -25049282.111 7 -19172554.450 7
  22055292.097    -2828052.533 4  -1926502.398 3
 95  2 16 19 14 59.9910000  0  8 28 31 18 14 22 29 19 27
  21105610.378    -9416304.165 5  -6572873.338 5
  21345125.714    -5320465.181 5  -4047629.354 2
  18105358.065   -32262903.915 7 -24874512.877 9
  19861314.776    -9930795.777 6  -7654910.546 6
  20551807.620   -13295122.986 6 -10266672.543 6
  17905158.198   -28832133.787 7 -22394136.610 8
  19031693.472   -25134428.281 7 -19238902.095 7
  22033039.894    -2944987.125 4  -2017620.091 3
 95  2 16 19 15 29.9910000  0  8 28 31 18 14 22 29 19 27
  21088299.722    -9507280.551 5  -6643763.933 5
  21321041.284    -5447023.051 4  -4146245.675 2
  18088410.097   -32351978.393 7 -24943921.552 9
  19872571.503    -9871647.221 6  -7608820.875 6
  20562064.206   -13241215.653 6 -10224666.916 6
  17898315.659   -28868095.948 7 -22422159.082 8
  19015521.355   -25219397.870 7 -19305112.137 7
  22010795.073    -3061881.098 5  -2108706.158 3
 95  2 16 19 15 59.9910000  0  8 28 31 18 14 22 29 19 27
  21071051.589    -9597930.151 5  -6714399.894 5
  21296973.206    -5573510.980 3  -4244807.522 4
  18071508.909   -32440774.801 7 -25013113.543 9
  19883871.034    -9812275.840 6  -7562557.575 6
  20572359.347   -13187107.648 6 -10182504.904 6
  17891537.401   -28903713.524 7 -22449913.055 8
  18999388.581   -25304201.169 7 -19371192.605 7
  21988559.089    -3178749.074 5  -2199771.994 4
 95  2 16 19 16 29.9910000  0  8 28 31 18 14 22 29 19 27
  21053864.003    -9688247.712 5  -6784777.118 5
  21272918.464    -5699917.985 3  -4343306.330 4
  18054667.925   -32529289.554 7 -25082086.068 9
  19895207.019    -9752697.047 6  -7516132.658 6
  20582698.823   -13132778.906 6 -10140170.900 6
  17884824.222   -28938992.474 7 -22477403.158 8
  18983279.167   -25388838.340 7 -19437143.625 7
  21966325.933    -3295573.412 5  -2290803.778 3
 95  2 16 19 16 59.9910000  0  8 28 31 18 14 22 29 19 27
  21036741.933    -9778218.963 5  -6854884.503 5
  21248880.816    -5826235.121 4  -4441735.071 2
  18037876.823   -32617506.787 7 -25150826.756 9
  19906586.761    -9692896.100 6  -7469534.642 6
  20593082.198   -13078210.754 5 -10097650.350 6
  17878176.714   -28973922.113 7 -22504621.072 8
  18967211.105   -25473290.108 7 -19502950.181 7
  21944108.144    -3412335.874 4  -2381787.353 3
 95  2 16 19 17 29.9910000  0  8 28 31 18 14 22 29 19 27
  21019689.480    -9867829.665 5  -6924710.928 5
  21224858.331    -5952470.992 5  -4540100.516 3
  18021151.362   -32705421.200 7 -25219331.485 9
  19918008.308    -9632878.019 6  -7422767.431 6
  20603515.222   -13023386.938 6 -10054930.576 6
  17871600.753   -29008481.288 7 -22531550.308 8
  18951177.394   -25557529.100 7 -19568590.936 7
  21921904.026    -3529004.063 4  -2472697.480 4
 95  2 16 19 17 59.9910000  0  8 28 31 18 14 22 29 19 27
  21002700.995    -9957096.259 5  -6994269.222 5
  21200851.558    -6078653.046 5  -4638423.985 2
  18004474.058   -32793048.303 7 -25287612.332 9
  19929467.058    -9572663.865 6  -7375847.433 6
  20613994.933   -12968315.724 6 -10012018.021 6
  17865094.097   -29042676.676 7 -22558196.066 8
  18935188.073   -25641558.415 7 -19634068.309 7
  21899721.253    -3645576.698 4  -2563533.105 2
 95  2 16 19 18 29.9910000  0  8 28 31 18 14 22 29 19 27
  20985777.105   -10046011.049 5  -7063553.403 5
  21176838.933    -6204789.499 5  -4736711.935 2
  17987856.480   -32880375.460 7 -25355659.455 9
  19940964.151    -9512234.554 6  -7328759.784 5
  20624525.050   -12912979.925 6  -9968899.279 5
  17858656.909   -29076497.740 7 -22584550.155 8
  18919242.878   -25725369.956 7 -19699375.984 7
  21877557.706    -3762052.416 4  -2654293.288 4
 95  2 16 19 18 59.9910000  0  8 28 31 18 14 22 29 19 27
  20968927.011   -10134573.193 5  -7132562.770 5
  21152847.847    -6330887.515 4  -4834969.970 2
  17971298.089   -32967399.164 7 -25423470.122 9
  19952510.456    -9451584.609 6  -7281500.200 5
  20635103.362   -12857401.723 6  -9925591.674 6
  17852291.815   -29109947.017 7 -22610614.534 8
  18903333.370   -25808967.409 7 -19764516.840 7
  21855409.886    -3878441.785 4  -2744986.145 2
 95  2 16 19 19 29.9910000  0  8 28 31 18 14 22 29 19 27
  20952148.409   -10222772.791 5  -7201289.652 5
  21128859.886    -6456925.929 4  -4933181.521 2
  17954800.026   -33054098.351 7 -25491027.923 9
  19964091.651    -9390709.934 6  -7234065.520 5
  20645722.901   -12801586.538 5  -9882099.408 6
  17845998.870   -29143017.390 7 -22636383.661 8
  18887462.011   -25892352.769 7 -19829492.423 7
  21833274.761    -3994735.808 4  -2835604.724 1
 95  2 16 19 19 59.9910000  0  8 28 31 18 14 22 29 19 27
  20935429.441   -10310626.688 5  -7269747.137 5
  21104889.222    -6582900.609 4  -5031343.463 4
  17938361.151   -33140485.574 7 -25558342.637 9
  19975717.339    -9329620.836 6  -7186463.741 5
  20656381.269   -12745566.901 5  -9838447.827 6
  17839773.925   -29175738.570 7 -22661880.690 8
  18871628.269   -25975568.529 7 -19894335.854 7
  21811164.011    -4110970.718 4  -2926177.227 1
 95  2 16 19 20 29.9910000  0  8 28 31 18 14 22 29 19 27
  20918776.144   -10398132.255 5  -7337933.182 5
  21080932.589    -6708797.467 5  -5129444.748 2
  17921980.784   -33226560.895 7 -25625414.303 9
  19987382.019    -9268319.355 6  -7138696.478 5
  20667079.690   -12689357.958 5  -9794648.750 6
  17833611.183   -29208119.631 7 -22687112.693 8
  18855822.948   -26058631.280 7 -19959060.066 7
  21789049.144    -4227155.446 3  -3016710.630 1
 95  2 16 19 20 59.9910000  0  8 28 31 18 14 22 29 19 27
  20902191.972   -10485283.795 5  -7405843.373 5
  21056994.573    -6834598.519 5  -5227471.387 4
  17905659.964   -33312323.031 7 -25692241.927 9
  19999086.487    -9206809.439 6  -7090766.797 6
  20677811.026   -12632969.503 5  -9750709.775 5
  17827512.870   -29240164.783 7 -22712082.951 8
  18840046.917   -26141537.042 7 -20023661.938 7
  21766953.800    -4343283.861 3  -3107200.161 2
 95  2 16 19 21 29.9910000  0  8 28 31 18 14 22 29 19 27
  20885677.933   -10572067.474 5  -7473466.943 5
  21033074.691    -6960292.023 5  -5325414.191 4
  17889398.370   -33397768.519 7 -25758822.812 9
  20010830.425    -9145094.979 6  -7042677.744 6
  20688578.230   -12576378.926 5  -9706613.303 6
  17821485.628   -29271841.177 7 -22736765.859 8
  18824306.714   -26224263.725 7 -20088124.279 7
  21744862.855    -4459353.919 3  -3197644.235 2
 95  2 16 19 21 59.9910000  0  8 28 31 18 14 22 29 19 27
  20869228.425   -10658482.769 5  -7540803.429 5
  21009172.737    -7085883.285 5  -5423277.343 2
  17873197.573   -33482913.334 7 -25825169.404 9
  20022609.730    -9083184.073 5  -6994435.616 5
  20699385.730   -12519587.660 5  -9662360.455 6
  17815529.019   -29303142.331 7 -22761156.373 8
  18808596.058   -26306797.407 7 -20152436.225 7
  21722784.917    -4575379.172 3  -3288053.382 1
 95  2 16 19 22 29.9900000  0  8 28 31 18 14 22 29 19 27
  20852858.373   -10744516.141 5  -7607842.340 5
  20985296.873    -7211366.866 5  -5521056.590 3
  17857059.154   -33567731.017 7 -25891261.084 8
  20034429.943    -9021072.649 5  -6946037.231 5
  20710232.264   -12462586.763 5  -9617944.271 6
  17809648.076   -29334045.250 7 -22785236.579 8
  18792933.873   -26389113.468 7 -20216578.591 7
  21700717.311    -4691346.265 3  -3378417.226 2
 95  2 16 19 22 59.9900000  0  8 28 31 18 14 22 29 19 27
  20836557.811   -10830181.633 5  -7674594.597 5
  20961435.201    -7336766.716 5  -5618770.593 3
  17840977.264   -33652227.089 7 -25957102.155 9
  20046287.248    -8958776.706 6  -6897495.060 5
  20721118.857   -12405380.665 5  -9573368.171 6
  17803845.193   -29364546.427 7 -22809003.736 8
  18777307.733   -26471228.323 7 -20280564.188 7
  21678656.959    -4807261.913 3  -3468740.992 2
 95  2 16 19 23 29.9900000  0  8 28 31 18 14 22 29 19 27
  20820328.803   -10915478.381 5  -7741059.497 5
  20937587.029    -7462081.772 5  -5716418.543 4
  17824961.850   -33736392.595 7 -26022685.644 9
  20058174.686    -8896305.370 6  -6848816.255 5
  20732041.779   -12347982.405 5  -9528642.347 6
  17798115.717   -29394645.724 7 -22832457.739 8
  18761718.998   -26553144.486 7 -20344394.943 7
  21656615.264    -4923117.173 3  -3559017.724 2
 95  2 16 19 23 59.9900000  0  8 28 31 18 14 22 29 19 27
  20804166.076   -11000404.986 5  -7807235.990 5
  20913758.654    -7587304.253 5  -5813994.343 4
  17809012.787   -33820216.581 7 -26088003.025 9
  20070095.857    -8833645.033 6  -6799990.167 6
  20742997.201   -12290404.827 5  -9483776.800 5
  17792460.186   -29424366.968 7 -22855617.165 8
  18746164.631   -26634884.008 7 -20408088.062 7
  21634577.662    -5038902.470 3  -3649239.923 2
 95  2 16 19 24 29.9900000  0  8 28 31 18 14 22 29 19 27
  20788074.420   -11084947.552 5  -7873113.222 5
  20889949.717    -7712420.000 5  -5911486.986 4
  17793126.287   -33903689.563 7 -26153046.896 9
  20082060.357    -8770783.980 6  -6751007.649 5
  20753989.115   -12232641.558 5  -9438766.540 5
  17786876.725   -29453708.367 7 -22878480.604 8
  18730643.053   -26716459.837 7 -20471653.617 7
  21612566.608    -5154594.382 3  -3739389.320 3
 95  2 16 19 24 59.9900000  0  8 28 31 18 14 22 29 19 27
  20772062.272   -11169117.212 5  -7938699.886 5
  20866159.256    -7837429.413 5  -6008896.755 3
  17777301.897   -33986843.080 7 -26217841.826 9
  20094056.857    -8707746.960 5  -6701888.026 5
  20765013.529   -12174713.717 5  -9393628.047 5
  17781359.608   -29482701.622 7 -22901072.757 8
  18715148.967   -26797882.615 7 -20535099.907 7
  21590568.037    -5270202.665 4  -3829473.567 2
 95  2 16 19 25 29.9900000  0  8 28 31 18 14 22 29 19 27
  20756119.115   -11252892.641 5  -8003979.360 5
  20842398.318    -7962298.261 5  -6106196.988 5
  17761539.607   -34069672.124 7 -26282383.930 9
  20106087.647    -8644518.255 5  -6652619.061 5
  20776072.553   -12116600.462 5  -9348345.081 5
  17775913.779   -29511328.351 7 -22923379.319 8
  18699689.701   -26879132.471 7 -20598411.462 7
  21568583.943    -5385719.829 5  -3919486.835 5
 95  2 16 19 25 59.9900000  0  8 28 31 18 14 22 29 19 27
  20740248.982   -11336286.031 5  -8068961.155 5
  20818663.584    -8087034.618 5  -6203393.984 5
  17745835.100   -34152203.478 7 -26346694.061 9
  20118153.943    -8581117.666 5  -6603216.164 5
  20787166.131   -12058308.150 5  -9302922.588 5
  17770534.404   -29539590.776 7 -22945401.999 8
  18684255.787   -26960228.106 7 -20661602.847 7
  21546611.576    -5501167.182 5  -4009445.698 4
 95  2 16 19 26 29.9900000  0  8 28 31 18 14 22 29 19 27
  20724455.576   -11419294.426 5  -8133642.960 5
  20794952.881    -8211633.763 5  -6300484.069 4
  17730187.076   -34234432.651 7 -26410768.737 9
  20130245.170    -8517570.960 5  -6553699.395 5
  20798291.397   -11999830.327 6  -9257355.537 5
  17765227.561   -29567481.565 7 -22967135.094 8
  18668856.506   -27041146.778 7 -20724656.334 7
  21524660.115    -5616546.892 5  -4099351.859 3
 95  2 16 19 26 59.9900000  0  8 28 31 18 14 22 29 19 27
  20708733.373   -11501912.310 5  -8198020.435 6
  20771269.436    -8336093.444 5  -6397465.481 4
  17714602.045   -34316346.977 7 -26474598.059 9
  20142367.053    -8453882.007 5  -6504071.782 5
  20809456.936   -11941162.636 5  -9211640.517 5
  17759995.561   -29594971.684 7 -22988555.987 8
  18653493.209   -27121871.267 7 -20787558.505 7
  21502712.881    -5731861.435 5  -4189207.258 2
 95  2 16 19 27 29.9900000  0  8 28 31 18 14 22 29 19 27
  20693085.115   -11584137.699 5  -8262092.081 5
  20747606.865    -8460432.319 5  -6494352.771 4
  17699074.936   -34397938.670 7 -26538175.994 9
  20154509.795    -8390051.327 5  -6454333.740 5
  20820658.100   -11882304.678 5  -9165777.255 5
  17754845.920   -29622039.932 7 -23009648.146 8
  18638169.014   -27202395.897 7 -20850304.942 7
  21480778.147    -5847108.873 5  -4279010.324 5
 95  2 16 19 27 59.9900000  0  8 28 31 18 14 22 29 19 27
  20677517.022   -11665969.711 5  -8325857.213 5
  20723963.803    -8584663.888 5  -6591156.456 2
  17683611.490   -34479189.614 7 -26601488.411 9
  20166687.342    -8326077.771 5  -6404484.379 5
  20831891.201   -11823267.392 5  -9119774.260 5
  17749770.920   -29648705.611 7 -23030426.618 8
  18622888.287   -27282715.623 7 -20912891.713 7
  21458866.498    -5962286.510 5  -4368759.020 4
 95  2 16 19 28 29.9900000  0  8 28 31 18 14 22 29 19 27
  20662016.912   -11747399.855 5  -8389309.196 5
  20700345.748    -8708785.530 5  -6687874.475 4
  17668219.178   -34560090.731 7 -26664528.243 9
  20178889.100    -8261958.341 5  -6354521.363 5
  20843160.506   -11764051.716 5  -9073632.257 5
  17744772.514   -29674973.029 7 -23050894.759 8
  18607640.920   -27362821.576 7 -20975311.909 7
  21436963.389    -6077386.673 5  -4458447.390 4
 95  2 16 19 28 59.9900000  0  8 28 31 18 14 22 29 19 27
  20646594.209   -11828425.919 5  -8452446.317 5
  20676748.428    -8832783.818 5  -6784496.360 5
  17652888.553   -34640644.975 7 -26727297.767 9
  20191122.092    -8197680.683 5  -6304435.038 5
  20854457.436   -11704672.293 5  -9027362.666 5
  17739849.295   -29700844.214 7 -23071054.152 8
  18592438.600   -27442726.349 7 -21037575.332 7
  21415073.092    -6192408.968 5  -4548075.070 4
 95  2 16 19 29 29.9900000  0  8 28 31 18 14 22 29 19 27
  20631253.545   -11909056.074 5  -8515274.943 5
  20653177.436    -8956648.858 5  -6881014.454 5
  17637624.131   -34720856.491 7 -26789800.239 9
  20203377.975    -8133260.247 5  -6254237.451 5
  20865787.100   -11645144.377 5  -8980977.347 5
  17734994.240   -29726359.673 7 -23090936.351 8
  18577271.615   -27522439.684 7 -21099689.594 7
  21393197.701    -6307359.977 5  -4637647.218 5
 95  2 16 19 29 59.9900000  0  8 28 31 18 14 22 29 19 27
  20615989.576   -11989279.034 5  -8577786.273 5
  20629638.303    -9080347.088 5  -6977402.534 4
  17622431.279   -34800709.258 7 -26852023.164 9
  20215662.600    -8068691.325 5  -6203924.196 5
  20877144.693   -11585457.284 5  -8934468.023 5
  17730206.990   -29751514.972 7 -23110537.899 8
  18562134.232   -27601965.282 7 -21161657.565 7
  21371334.936    -6422241.612 5  -4727165.272 4
 95  2 16 19 30 29.9900000  0  8 28 31 18 14 22 29 19 27
  20600798.826   -12069098.197 5  -8639982.950 6
  20606132.639    -9203871.922 5  -7073655.525 4
  17607304.209   -34880207.569 7
  20227976.193    -8003993.083 5  -6153510.152 5
  20888531.865   -11525609.794 5  -8887833.691 5
  17725489.545   -29776304.487 7 -23129854.417 8
  18547033.490   -27681313.695 7
  21349487.670    -6537059.873 5  -4816633.976 4
 95  2 16 19 30 59.9900000  0  8 28 31 18 14 22 29 19 27
  20585686.897   -12148516.322 5
  20582658.233    -9327232.800 5  -7169780.764 3
  17592245.193   -34959339.461 7
  20240312.365    -7939169.344 5  -6102998.336 5
  20899948.225   -11465609.670 5  -8841080.459 5
  17720842.436   -29800730.161 7 -23148887.422 8
  18531967.701   -27760489.417 7
  21327648.826    -6651817.680 5  -4906055.573 4
 95  2 16 19 31 29.9900000  0  8 28 31 18 14 22 29 19 27
  20570653.881   -12227510.670 5
  20559213.904    -9450426.704 5  -7265775.874 4
  17577257.951   -35038090.771 7 -27036995.743 9
  20252676.584    -7874194.611 5  -6052368.868 5
  20911403.701   -11405425.485 5  -8794183.811 5
  17716270.006   -29824757.590 7 -23167610.109 8
  18516940.240   -27839471.879 7
  21305828.701    -6766500.282 5  -4995418.562 3
 95  2 16 19 31 59.9900000  0  8 28 31 18 14 22 29 19 27
  20555701.787   -12306096.201 5
  20535801.514    -9573482.775 5  -7361663.595 5
  17562337.045   -35116492.026 7
  20265069.295    -7809083.685 5  -6001633.251 5
  20922887.506   -11345078.267 5  -8747160.089 5
  17711770.311   -29848395.093 7 -23186028.953 8
  18501943.061   -27918291.959 7 -21408145.810 7
  21284013.928    -6881130.766 5  -5084740.932 5
 95  2 16 19 32 29.9900000  0  8 28 31 18 14 22 29 19 27
  20540822.928   -12384277.788 5
  20512406.108    -9696410.804 5  -7457451.511 5
  17547484.529   -35194558.754 7
  20277483.482    -7743836.981 5  -5950791.851 5
  20934400.545   -11284588.462 5  -8700025.277 5
  17707346.123   -29871648.051 7 -23204148.146 8
  18486967.850   -27996961.158 7 -21469446.464 7
  21262211.365    -6995703.815 5  -5174018.588 4
 95  2 16 19 32 59.9900000  0  8 28 31 18 14 22 29 19 27
  20526035.928   -12462021.026 5
  20489045.928    -9819171.681 5  -7553109.171 5
  17532691.975   -35272267.936 7 -27219471.412 9
  20289930.342    -7678404.105 5  -5899805.401 5
  20945942.686   -11223939.834 5  -8652766.709 5
  17703004.397   -29894468.707 7 -23221930.479 8
  18472038.139   -28075444.244 7 -21530602.105 7
  21240428.725    -7110192.110 5  -5263230.182 4
 95  2 16 19 33 29.9900000  0  8 28 31 18 14 22 29 19 27
  20511312.014   -12539349.516 5
  20465714.092    -9941773.482 5  -7648642.862 5
  17517970.420   -35349655.185 7
  20302417.006    -7612820.273 5  -5848701.315 5
  20957508.100   -11163164.890 5  -8605409.700 5
  17698737.506   -29916884.405 7 -23239397.267 8
  18457129.053   -28153768.232 7 -21591633.766 7
  21218652.686    -7224630.117 5  -5352402.586 4
 95  2 16 19 33 59.9900000  0  8 28 31 18 14 22 29 19 27
  20496681.279   -12616254.874 5
  20442419.209   -10064200.456 5  -7744040.329 5
  17503306.373   -35426700.332 7
  20314924.553    -7547097.124 5  -5797488.688 5
  20969094.326   -11102273.787 5  -8557962.184 5
  17694548.358   -29938901.508 7 -23256553.461 8
  18442257.357   -28231928.943 7 -21652538.203 7
  21196883.717    -7339015.229 5  -5441533.758 4
 95  2 16 19 34 29.9900000  0  8 28 31 18 14 22 29 19 27
  20482126.420   -12692731.044 5        -0.24115
  20419154.608   -10186441.762 5  -7839293.131 5
  17488713.483   -35503382.764 7 -27399560.859 9
  20327454.990    -7481231.832 5  -5746165.277 5
  20980704.701   -11041269.038 5  -8510426.110 5
  17690435.357   -29960513.109 7 -23273393.674 8
  18427419.967   -28309913.087 7 -21713305.047 8
  21175127.600    -7453348.699 4  -5530624.700 2
 95  2 16 19 34 59.9900000  0  8 28 31 18 14 22 29 19 27
  20467650.350   -12768778.877 5    -59258.241 5
  20395928.186   -10308505.089 5  -7934407.245 5
  17474192.506   -35579695.589 7 -27459025.388 9
  20340013.959    -7415241.464 5  -5694744.420 5
  20992332.592   -10980158.263 5  -8462807.424 5
  17686397.193   -29981735.351 7 -23289930.495 8
  18412616.568   -28387709.899 7 -21773925.925 7
  21153377.811    -7567642.519 5  -5619684.793 2
 95  2 16 19 35 29.9900000  0  8 28 31 18 14 22 29 19 27
  20453263.670   -12844392.371 5   -118177.807 6
  20372733.803   -10430396.517 5  -8029387.409 5
  17459740.772   -35655631.884 7 -27518196.507 9
  20352593.967    -7349137.967 5  -5643235.430 4
  21003977.467   -10918939.200 5  -8415104.348 5
  17682430.529   -30002585.357 7 -23306177.272 9
  18397846.654   -28465322.686 7 -21834403.404 7
  21131633.311    -7681886.537 5  -5708706.020 2
 95  2 16 19 35 59.9900000  0  8 28 31 18 14 22 29 19 27
  20438963.904   -12919574.776 5   -176761.453 6
  20349568.639   -10552127.702 5  -8124242.686 5
  17445364.951   -35731195.520 7 -27577077.255 8
  20365192.365    -7282934.328 5  -5591648.404 5
  21015648.897   -10857607.616 5  -8367313.594 5
  17678535.100   -30023056.058 7 -23322128.469 8
  18383106.709   -28542758.189 7 -21894742.731 8
  21109905.639    -7796076.960 5  -5797685.488 3
 95  2 16 19 36 29.9900000  0  8 28 31 18 14 22 29 19 27
  20424736.779   -12994311.132 5   -234997.516 6
  20326436.701   -10673679.447 5  -8218958.125 5
  17431057.545   -35806381.256 7 -27635663.527 8
  20377812.412    -7216621.934 5  -5539976.634 5
  21027348.975   -10796142.580 5  -8319418.851 5
  17674716.537   -30043122.391 7 -23337764.586 8
  18368408.772   -28619998.403 7 -21954929.894 7
  21088190.061    -7910183.675 5  -5886599.716 3
 95  2 16 19 36 59.9900000  0  8 28 31 18 14 22 29 19 27
  20410593.787   -13068610.491 5   -292893.063 6
  20303340.006   -10795052.123 5  -8313534.065 5
  17416817.233   -35881205.295 7 -27693967.965 8
  20390446.350    -7150219.526 5  -5488234.712 5
  21039071.459   -10734539.959 5  -8271416.904 5
  17670974.451   -30062788.501 7 -23353088.836 8
  18353750.420   -28697048.782 7 -22014969.128 7
  21066494.858    -8024201.788 5  -5975444.907 3
 95  2 16 19 37 29.9900000  0  8 28 31 18 14 22 29 19 27
  20396545.686   -13142462.685 5   -350440.176 5
  20280282.639   -10916218.883 5  -8407949.544 5
  17402649.240   -35955668.698 7 -27751991.383 8
  20403098.389    -7083731.341 5  -5436425.972 5
  21050826.873   -10672770.189 5  -8223284.696 4
  17667313.740   -30082026.287 7 -23368079.337 8
  18339120.147   -28773911.215 7 -22074861.912 7
  21044816.279    -8138117.933 5  -6064210.656 3
 95  2 16 19 37 59.9900000  0  8 28 31 18 14 22 29 19 27
  20382569.568   -13215873.847 5   -407643.620 6
  20257267.178   -11037169.068 5  -8502196.257 5
  17388548.412   -36029771.846 7 -27809734.087 8
  20415764.756    -7017168.277 5  -5384558.881 5
  21062610.022   -10610835.872 5  -8175024.276 5
  17663734.451   -30100828.493 7 -23382730.427 8
  18324527.506   -28850594.786 7 -22134615.323 8
  21023156.748    -8251943.513 5  -6152905.820 4
 95  2 16 19 38 29.9900000  0  8 28 31 18 14 22 29 19 27
  20368693.193   -13288835.046 5   -464496.438 6
  20234296.615   -11157886.010 5  -8596261.238 5
  17374514.951   -36103501.173 7 -27867185.507 8
  20428450.318    -6950514.153 5  -5332620.859 5
  21074429.412   -10548730.996 5  -8126630.963 5
  17660238.904   -30119201.005 7 -23397046.685 8
  18309972.764   -28927092.498 7 -22194223.900 7
  21001515.553    -8365669.275 5  -6241523.214 3
 95  2 16 19 38 59.9900000  0  8 28 31 18 14 22 29 19 27
  20354890.467   -13361349.374 5   -521001.049 6
  20211365.147   -11278369.725 5  -8690144.488 5
  17360560.053   -36176838.605 7 -27924331.554 8
  20441153.436    -6883770.234 5  -5280612.851 5
  21086276.928   -10486468.151 5  -8078114.545 5
  17656821.717   -30137151.939 7 -23411034.444 8
  18295451.123   -29003412.867 7 -22253694.297 7
  20979890.740    -8479309.690 5  -6330074.104 4
 95  2 16 19 39 29.9900000  0  8 28 31 18 14 22 29 19 27
  20341182.631   -13433413.070 5   -577154.502 6
  20188482.201   -11398627.255 5  -8783851.489 5
  17346679.600   -36249774.313 7 -27981164.571 8
  20453869.912    -6816933.104 5  -5228532.232 5
  21098152.959   -10424070.232 5  -8029492.902 5
  17653487.826   -30154678.593 7 -23424691.595 9
  18280958.123   -29079565.835 7 -22313034.253 8
  20958280.490    -8592870.746 5  -6418563.147 2
 95  2 16 19 39 59.9900000  0  8 28 31 18 14 22 29 19 27
  20327547.904   -13505027.953 5   -632958.241 6
  20165641.561   -11518671.040 5  -8877391.942 5
  17332883.576   -36322297.063 7 -28037675.801 8
  20466608.912    -6749989.506 5  -5176368.662 5
  21110048.701   -10361559.659 5  -7980783.461 5
  17650230.568   -30171791.925 7 -23438026.684 9
  18266495.662   -29155552.187 7 -22372244.374 7
  20936684.733    -8706359.064 5  -6506995.506 5
 95  2 16 19 40 29.9900000  0  8 28 31 18 14 22 29 19 27
  20314009.834   -13576191.316 5   -688410.154 5
  20142837.272   -11638501.402 5  -8970766.113 5
  17319158.389   -36394410.169 7 -28093867.814 8
  20479370.381    -6682937.803 5  -5124120.846 5
  21121960.498   -10298953.893 5  -7931999.871 5
  17647050.592   -30188504.792 7 -23451049.719 9
  18252072.920   -29231361.022 7 -22431316.166 7
  20915103.514    -8819777.649 5  -6595373.529 5
 95  2 16 19 40 59.9890000  0  8 28 31 18 14 22 29 19 27
  20300557.485   -13646898.888 5   -743506.910 6
  20120076.407   -11758118.042 5  -9063973.745 5
  17305513.712   -36466124.177 7 -28149748.851 8
  20492144.774    -6615794.461 5  -5071801.602 5
  21133886.626   -10236280.677 5  -7883163.705 3
  17643947.173   -30204815.717 7 -23463759.551 9
  18237680.087   -29306985.938 7 -22490244.651 8
  20893529.657    -8933135.708 5  -6683704.393 5
 95  2 16 19 41 29.9890000  0  8 28 31 18 14 22 29 19 27
  20287182.267   -13717147.079 6   -798245.712 6
  20097348.954   -11877532.602 5  -9157023.905 5
  17291935.462   -36537462.234 7 -28205336.936 8
  20504941.946    -6548553.627 5  -5019406.407 5
  21145827.509   -10173520.098 5  -7834259.452 3
  17640919.696   -30220724.595 7 -23476156.104 9
  18223327.564   -29382428.157 7 -22549030.781 8
  20871970.259    -9046432.619 5  -6771987.642 4
 95  2 16 19 41 59.9890000  0  8 28 31 18 14 22 29 19 27
  20273904.251   -13786937.630 6   -852627.928 5
  20074663.735   -11996744.437 5  -9249916.085 5
  17278432.814   -36608425.234 7 -28260632.760 8
  20517754.665    -6481222.714 5  -4966941.002 4
  21157793.814   -10110672.891 5  -7785287.709 3
  17637963.790   -30236253.381 7 -23488256.472 8
  18209005.142   -29457684.440 7 -22607672.022 7
  20850419.548    -9159673.605 5  -6860227.306 4
 95  2 16 19 42 29.9890000  0  8 28 31 18 14 22 29 19 27
  20260710.470   -13856269.169 5   -906652.473 6
  20052019.946   -12115752.817 5  -9342649.736 5
  17265000.360   -36679016.699 7 -28315639.087 8
  20530581.923    -6413816.716 5  -4914417.125 4
  21169766.845   -10047747.163 5  -7736254.773 4
  17635081.462   -30251397.995 7 -23500057.484 9
  18194720.759   -29532747.781 7 -22666162.919 8
  20828882.165    -9272853.856 5  -6948419.650 5
 95  2 16 19 42 59.9890000  0  8 28 31 18 14 22 29 19 27
  20247604.751   -13925148.875 6   -960324.935 5
  20029410.321   -12234573.016 5  -9435236.784 5
  17251636.782   -36749235.388 7 -28370354.936 8
  20543419.040    -6346348.024 4  -4861844.386 5
  21181754.618    -9984736.728 5  -7687155.834 5
  17632275.650   -30266148.861 7 -23511551.680 8
  18180470.267   -29607631.648 7 -22724513.974 8
  20807359.235    -9385965.036 5  -7036558.179 5
 95  2 16 19 43 29.9890000  0  8 28 31 18 14 22 29 19 27
  20234583.525   -13993572.255 5  -1013641.834 6
  20006836.595   -12353191.111 5  -9527666.341 5
  17238349.431   -36819051.086 7 -28424756.769 8
  20556273.048    -6278806.477 5  -4809214.880 5
  21193763.845    -9921622.545 5  -7637976.044 4
  17629544.399   -30280498.618 7 -23522733.319 8
  18166256.415   -29682334.917 7 -22782724.297 8
  20785848.017    -9499003.652 5  -7124640.151 5
 95  2 16 19 43 59.9890000  0  8 28 31 18 14 22 29 19 27
  20221652.595   -14061535.322 5  -1066600.047 6
  19984307.071   -12471575.388 5  -9619913.691 5
  17225144.110   -36888456.189 7 -28478838.658 8
  20569141.626    -6211199.485 5  -4756534.393 4
  21205792.212    -9858421.414 4  -7588728.526 3
  17626891.649   -30294441.963 7 -23533598.278 8
  18152074.657   -29756844.490 7 -22840783.702 8
  20764349.392    -9611977.557 5  -7212671.713 5
 95  2 16 19 44 29.9890000  0  8 28 31 18 14 22 29 19 27
  20208806.868   -14129023.817 5  -1119188.457 6
  19961830.689   -12589696.866 5  -9711956.252 5
  17212017.314   -36957446.849 7 -28532597.599 8
  20582019.696    -6143528.038 5  -4703803.674 4
  21217837.431    -9795124.298 4  -7539406.225 5
  17624320.649   -30307952.156 7 -23544125.710 8
  18137934.774   -29831150.884 7 -22898684.774 8
  20742865.548    -9724874.245 5  -7300643.105 5
 95  2 16 19 44 59.9890000  0  8 28 31 18 14 22 29 19 27
  20196058.251   -14196039.731 5  -1171408.635 6
  19939402.165   -12707549.355 5  -9803789.245 5
  17198964.962   -37026028.590 7 -28586037.904 8
  20594905.767    -6075798.974 4  -4651028.075 5
  21229903.892    -9731723.687 5  -7490003.258 4
  17621827.962   -30321053.208 7 -23554334.339 9
  18123826.853   -29905277.168 7 -22956445.502 8
  20721392.439    -9837709.205 5  -7388566.410 5
 95  2 16 19 45 29.9890000  0  8 28 31 18 14 22 29 19 27
  20183394.485   -14262584.693 5  -1223261.795 6
  19917030.298   -12825122.309 5  -9895404.435 5
  17185987.017   -37094216.196 7 -28639171.104 8
  20607804.212    -6008020.184 4  -4598213.751 3
  21241985.626    -9668233.451 5  -7440530.447 5
  17619409.384   -30333765.001 7 -23564239.645 9
  18109758.720   -29979229.792 7 -23014070.914 8
  20699930.267    -9950510.810 5  -7476463.718 4
 95  2 16 19 45 59.9890000  0  8 28 31 18 14 22 29 19 27
  20170819.743   -14328660.628 6  -1274749.499 6
  19894706.821   -12942421.488 5  -9986806.266 4
  17173083.556   -37162023.688 7 -28692008.088 8
  20620710.110    -5940199.841 5  -4545367.021 4
  21254082.134    -9604669.488 5  -7391000.185 4
  17617061.720   -30346094.139 7 -23573846.784 9
  18095716.150   -30053024.482 7 -23071573.257 8
  20678473.751   -10063269.516 5  -7564327.593 5
 95  2 16 19 46 29.9890000  0  8 28 31 18 14 22 29 19 27
  20158334.595   -14394275.180 6  -1325877.661 6
  19872432.259   -13059487.037 5 -10078026.059 5
  17160253.899   -37229448.249 7 -28744546.699 8
  20633625.243    -5872344.077 5  -4492492.685 5
  21266188.329    -9541036.215 5  -7341415.903 4
  17614785.618   -30358056.365 7 -23583168.021 9
  18081697.501   -30126692.942 7 -23128977.242 7
  20657023.126   -10175982.601 5  -7652155.920 5
 95  2 16 19 46 59.9890000  0  8 28 31 18 14 22 29 19 27
  20145931.025   -14459421.493 6  -1376640.960 6
  19850198.142   -13176321.666 5 -10169065.914 5
  17147500.228   -37296472.309 7 -28796773.227 8
  20646544.306    -5804440.486 5  -4439581.098 4
  21278312.259    -9477329.638 5  -7291774.486 3
  17612581.775   -30369639.451 7 -23592193.821 8
  18067702.181   -30200230.182 7 -23186278.972 7
  20635584.087   -10288645.246 5  -7739944.933 5
 95  2 16 19 47 29.9890000  0  8 28 31 18 14 22 29 19 27
  20133628.806   -14524089.194 5  -1427031.313 6
  19828011.017   -13292914.635 5 -10259917.476 5
  17134828.009   -37363080.659 7 -28848675.831 8
  20659479.517    -5736476.787 5  -4386622.669 4
  21290445.017    -9413555.958 5  -7242080.804 5
  17610457.829   -30380800.899 7 -23600891.070 9
  18053734.454   -30273620.162 7 -23243465.960 8
  20614155.939   -10401239.992 5  -7827681.050 5
 95  2 16 19 47 59.9890000  0  8 28 31 18 14 22 29 19 27
  20121416.650   -14588285.396 6  -1477054.276 6
  19805867.931   -13409274.658 5 -10350587.506 5
  17122228.298   -37429275.721 7 -28900256.389 8
  20672423.696    -5668461.052 5  -4333623.725 3
  21302592.360    -9349723.609 5  -7192341.412 5
  17608416.251   -30391533.789 7 -23609254.380 8
  18039797.345   -30346875.560 7 -23300548.070 8
  20592744.118   -10513763.515 5  -7915361.668 5
 95  2 16 19 48 29.9890000  0  8 28 31 18 14 22 29 19 27
  20109292.400   -14651985.109 5  -1526690.341 5
  19783776.462   -13525369.638 5 -10441051.011 5
  17109713.626   -37495043.998 7 -28951504.393 8
  20685377.860    -5600373.307 5  -4280568.635 3
  21314760.548    -9285810.245 5  -7142538.880 5
  17606461.626   -30401801.661 7 -23617255.335 8
  18025892.454   -30419949.552 7 -23357488.826 8
  20571346.540   -10626200.156 5  -8002974.561 5
 95  2 16 19 48 59.9890000  0  8 28 31 18 14 22 29 19 27
  20097262.415   -14715200.708 5  -1575949.199 5
  19761735.931   -13641180.646 5 -10531293.237 5
  17097276.587   -37560403.544 7 -29002433.901 8
  20698344.900    -5532230.142 5  -4227470.358 2
  21326933.407    -9221837.215 5  -7092689.865 5
  17604597.868   -30411600.306 7 -23624890.652 8
  18012023.970   -30492835.120 7 -23414282.762 7
  20549962.392   -10738569.626 5  -8090535.131 5
 95  2 16 19 49 29.9890000  0  8 28 31 18 14 22 29 19 27
  20085323.985   -14777931.142 5  -1624829.984 5
  19739755.446   -13756700.768 5 -10621308.805 5
  17084913.610   -37625366.597 7 -29053054.456 8
  20711322.689    -5464041.005 5  -4174336.267 4
  21339115.571    -9157806.387 5  -7042795.812 5
  17602819.618   -30420944.649 7 -23632171.976 8
  17998187.993   -30565531.122 7 -23470928.987 8
  20528596.368   -10850868.739 5  -8178040.841 5
 95  2 16 19 49 59.9890000  0  8 28 31 18 14 22 29 19 27
  20073476.610   -14840177.608 5  -1673333.653 6
  19717827.985   -13871936.180 6 -10711102.507 5
  17072626.087   -37689937.029 7 -29103369.065 8
  20724302.235    -5395821.305 4  -4121178.390 3
  21351313.876    -9093713.322 5  -6992853.246 4
  17601119.673   -30429874.264 7 -23639130.137 8
  17984395.587   -30638021.313 7 -23527414.832 8
  20507239.173   -10963093.488 5  -8265488.648 5
 95  2 16 19 50 29.9890000  0  8 28 31 18 14 22 29 19 27
  20061724.298   -14901939.137 5  -1721459.443 6
  19695954.056   -13986883.214 6 -10800671.513 5
  17060417.337   -37754101.574 7 -29153367.416 8
  20737288.298    -5327582.751 4  -4068005.817 5
  21363516.798    -9029555.084 4  -6942859.895 3
  17599496.587   -30438407.362 7 -23645779.324 8
  17970636.532   -30710304.930 7 -23583739.714 8
  20485899.649   -11075241.110 5  -8352876.334 4
 95  2 16 19 50 59.9890000  0  8 28 31 18 14 22 29 19 27
  20050071.032   -14963207.725 6  -1769201.121 5
  19674133.157   -14101535.847 5 -10890011.105 5
  17048290.501   -37817835.172 7 -29203029.954 8
  20750280.290    -5259322.588 3  -4014816.430 3
  21375743.228    -8965315.916 3  -6892803.479 3
  17597947.157   -30446553.691 7 -23652127.133 8
  17956919.009   -30782397.266 7 -23639915.531 8
  20464575.478   -11187313.001 5  -8440205.018 5
 95  2 16 19 51 29.9890000  0  8 28 31 18 14 22 29 19 27
  20038498.103   -15023987.632 5  -1816562.013 6
  19652370.884   -14215910.770 5 -10979134.299 5
  17036244.556   -37881134.504 7 -29252354.101 8
  20763267.149    -5191050.905 4  -3961618.047 5
  21387981.962    -8900993.216 3  -6842681.991 3
  17596463.204   -30454342.736 7 -23658196.544 8
  17943234.478   -30854309.224 7 -23695950.824 8
  20443259.970   -11299311.875 5  -8527476.820 5
 95  2 16 19 51 59.9890000  0  8 28 31 18 14 22 29 19 27
  20027033.353   -15084269.483 5  -1863534.821 6
  19630659.931   -14329989.992 5 -11068027.094 5
  17024284.134   -37943976.360 7 -29301321.780 8
  20776265.431    -5122763.225 5  -3908407.184 4
  21400238.626    -8836590.624 3  -6792498.261 2
  17595055.884   -30461747.398 7 -23663966.432 9
  17929586.993   -30926034.651 7 -23751840.755 8
  20421960.329   -11411234.587 5  -8614689.250 5
 95  2 16 19 52 29.9890000  0  8 28 31 18 14 22 29 19 27
  20015653.485   -15144054.195 5  -1910120.239 6
  19609010.892   -14443762.483 5 -11156680.863 5
  17012410.978   -38006365.408 7 -29349936.621 8
  20789263.540    -5054456.095 5  -3855181.190 4
  21412500.267    -8772128.147 3  -6742267.836 2
  17593723.407   -30468744.538 7 -23669418.774 8
  17915970.337   -30997598.022 7 -23807604.411 8
  20400672.462   -11523103.056 5  -8701859.421 5
 95  2 16 19 52 59.9890000  0  8 28 31 18 14 22 29 19 27
  20004367.040   -15203345.518 5  -1956321.201 6
  19587418.126   -14557233.493 5 -11245099.742 5
  17000622.415   -38068325.570 7 -29398217.269 8
  20802268.150    -4986132.234 5  -3801942.110 2
  21424787.095    -8707620.220 4  -6692001.980 2
  17592470.181   -30475327.792 7 -23674548.612 8
  17902382.298   -31068994.750 7 -23863238.212 8
  20379394.657   -11634928.092 5  -8788995.749 5
 95  2 16 19 53 29.9890000  0  8 28 31 18 14 22 29 19 27
  19993180.485   -15262136.176 6  -2002132.038 6
  19565883.782   -14670392.164 5 -11333275.203 5
  16988916.384   -38129853.078 7 -29446160.785 8
  20815271.181    -4917792.263 5  -3748690.514 4
  21437072.173    -8643075.389 4  -6641707.398 3
  17591298.790   -30481482.422 7 -23679344.462 8
  17888828.337   -31140204.107 7 -23918726.008 8
  20358129.892   -11746682.263 5  -8876076.833 5
 95  2 16 19 53 59.9890000  0  8 28 31 18 14 22 29 19 27
  19982092.837   -15320429.275 5  -2047555.193 6
  19544409.946   -14783237.666 5 -11421206.669 5
  16977285.142   -38190959.812 7 -29493776.436 8
  20828280.571    -4849440.474 5  -3695429.725 3
  21449351.150    -8578504.484 4  -6591392.502 2
  17590210.704   -30487199.854 7 -23683799.629 8
  17875314.321   -31211242.098 7 -23974080.276 8
  20336877.743   -11858362.831 5  -8963100.600 5
 95  2 16 19 54 29.9890000  0  8 28 31 18 14 22 29 19 27
  19971093.712   -15378216.702 5  -2092584.293 6
  19522994.673   -14895771.794 5 -11508895.506 5
  16965741.868   -38251635.041 7 -29541055.837 8
  20841290.282    -4781065.680 3  -3642150.997 4
  21461651.876    -8513881.941 4  -6541037.348 3
  17589205.985   -30492487.406 7 -23687919.827 8
  17861827.149   -31282101.363 7 -24029295.278 8
  20315640.821   -11969953.922 5  -9050054.625 5
 95  2 16 19 54 59.9890000  0  8 28 31 18 14 22 29 19 27
  19960197.689   -15435501.500 5  -2137221.767 6
  19501637.728   -15008005.633 5 -11596350.353 5
  16954278.564   -38311866.925 7 -29587989.777 8
  20854304.126    -4712681.042 4  -3588864.624 4
  21473961.564    -8449199.102 4  -6490635.220 2
  17588278.048   -30497355.836 7 -23691713.429 8
  17848377.392   -31352781.381 7 -24084370.601 8
  20294426.243   -12081444.351 5  -9136930.231 5
 95  2 16 19 55 29.9890000  0  8 28 31 18 14 22 29 19 27
  19949392.056   -15492282.346 5  -2181466.528 6
  19480337.814   -15119943.894 5 -11683574.885 5
  16942902.056   -38371646.439 7 -29634571.221 8
  20867315.665    -4644292.107 4  -3535574.909 4
  21486277.446    -8384451.283 4  -6440182.446 3
  17587431.017   -30501805.994 7 -23695181.109 8
  17834958.360   -31423303.333 7 -24139322.765 8
  20273228.243   -12192836.017 5  -9223728.876 5
 95  2 16 19 55 59.9890000  0  8 28 31 18 14 22 29 19 27
  19938679.314   -15548567.603 5  -2225325.135 6
  19459089.189   -15231597.659 5 -11770577.742 5
  16931611.290   -38430991.519 7 -29680814.144 8
  20880331.548    -4575902.647 3  -3482284.771 3
  21498616.970    -8319643.488 5  -6389682.904 2
  17586663.079   -30505843.293 7 -23698327.072 8
  17821563.525   -31493685.509 7 -24194166.007 8
  20252043.759   -12304163.325 5  -9310477.397 5
 95  2 16 19 56 29.9890000  0  8 28 31 18 14 22 29 19 27
  19928060.696   -15604352.582 5  -2268793.912 6
  19437899.556   -15342960.083 6
  16920400.493   -38489898.015 7 -29726715.309 8
  20893345.970    -4507511.911 4  -3428993.625 1
  21510957.798    -8254780.604 4  -6339140.497 3
  17585972.657   -30509466.038 7 -23701150.020 8
  17808202.321   -31563906.071 7 -24248883.316 8
  20230865.657   -12415447.806 5
 95  2 16 19 56 59.9890000  0  8 28 31 18 14 22 29 19 27
  19917546.821   -15659625.361 6  -2311863.588 6
  19416766.282   -15454015.320 6 -11943890.078 5
  16909271.400   -38548377.487 7 -29772283.731 8
  20906359.384    -4439122.308 3  -3375703.364 2
  21523313.196    -8189873.286 4  -6288563.465 4
  17585368.251   -30512660.279 7 -23703639.058 8
  17794873.087   -31633952.060 7 -24303464.596 8
  20209698.868   -12526690.649 5  -9483875.223 5
 95  2 16 19 57 29.9890000  0  8 28 31 18 14 22 29 19 27
  19907123.735   -15714387.478 6  -2354535.345 6
  19395693.157   -15564754.057 5 -12030179.943 5
  16898218.540   -38606454.677 7 -29817538.690 8
  20919373.728    -4370734.975 3  -3322414.921 1
  21535662.446    -8124938.634 4  -6237965.119 3
  17584840.298   -30515418.832 7 -23705788.600 8
  17781580.009   -31703822.074 7 -24357908.750 8
  20188538.642   -12637892.204 5  -9570525.726 5
 95  2 16 19 57 59.9890000  0  8 28 31 18 14 22 29 19 27
  19896797.860   -15768636.486 6  -2396807.288 6
  19374684.759   -15675149.812 6 -12116202.561 5
  16887248.407   -38664117.795 7 -29862470.995 8
  20932388.970    -4302348.383 4  -3269127.018 2
  21548022.595    -8059995.146 3  -6187359.903 4
  17584396.939   -30517747.270 7 -23707602.993 8
  17768319.829   -31773502.119 7 -24412204.869 8
  20167385.095   -12749047.367 5  -9657140.094 5
 95  2 16 19 58 29.9890000  0  8 28 31 18 14 22 29 19 27
  19886574.610   -15822367.712 6  -2438675.762 6
  19353744.712   -15785195.017 6 -12201952.025 5
  16876355.931   -38721358.135 7 -29907073.860 8
  20945397.126    -4233970.086 4  -3215845.602 3
  21560384.032    -7995049.503 3  -6136752.985 3
  17584034.759   -30519650.622 7 -23709086.151 8
  17755091.501   -31842996.632 7 -24466356.429 8
  20146245.470   -12860137.297 5  -9743703.635 5
 95  2 16 19 58 59.9890000  0  7 28 31 18 14 29 19 27
  19876448.900   -15875591.981 5  -2480149.205 6
  19332867.298   -15894901.182 5 -12287437.287 5
  16865541.610   -38778173.923 7 -29951345.897 8
  20958407.228    -4165612.969 4  -3162580.726 2
  17583753.798   -30521137.958 7 -23710245.130 8
  17741901.228   -31912336.045 7 -24520387.132 8
  20125121.673   -12971144.541 5  -9830202.743 5
 95  2 16 19 59 29.9890000  0  7 28 31 18 14 29 19 27
  19866411.868   -15928305.713 5  -2521224.816 5
  19312057.837   -16004255.817 6 -12372648.634 5
  16854816.696   -38834537.928 7 -29995265.904 7
  20971416.845    -4097272.180 4  -3109328.552 3
  17583546.681   -30522219.397 7 -23711087.828 8
  17728733.087   -31981530.307 7 -24574304.723 8
  20104014.860   -13082060.118 5  -9916630.429 5
 95  2 16 19 59 59.9880000  0  7 28 31 18 14 29 19 27
  19856480.527   -15980505.788 5  -2561900.191 6
  19291317.754   -16113253.212 6 -12457581.627 5
  16844182.176   -38890431.003 7 -30038818.946 7
  20984413.356    -4028959.500 4  -3056098.264 3
  17583415.770   -30522908.205 7 -23711624.589 8
  17715591.285   -32050579.147 7 -24628109.009 8
  20082920.371   -13192898.997 5 -10002998.348 5
 95  2 16 20  0 29.9880000  0  7 28 31 18 14 29 19 27
  19846641.590   -16032203.350 5  -2602183.989 6
  19270638.246   -16221925.117 6 -12542260.983 5
  16833632.988   -38945869.335 7 -30082017.651 7
  20997410.168    -3960686.328 4  -3002898.812 3
  17583361.067   -30523199.190 7
  17702476.879   -32119485.762 7 -24681802.463 8
  20061840.410   -13303680.425 5 -10089321.497 5
 95  2 16 20  0 59.9880000  0  7 28 31 18 14 29 19 27
  19836904.285   -16083382.711 5  -2642063.999 6
  19250026.512   -16330243.011 6 -12626664.491 5
  16823173.527   -39000831.602 7 -30124845.392 8
  21010394.613    -3892444.892 4  -2949724.115 4
  17583386.785   -30523070.165 7
  17689397.942   -32188220.297 7 -24735361.825 8
  20040770.691   -13414396.802 5 -10175593.948 5
 95  2 16 20  1 29.9880000  0  7 28 31 18 14 29 19 27
  19827260.832   -16134056.810 6  -2681550.306 5
  19229479.395   -16438208.801 6 -12710793.631 5
  16812801.098   -39055343.409 7 -30167322.124 8
  21023363.527    -3824264.669 3  -2896597.086 2
  17583488.793   -30522530.452 7 -23711330.324 9
  17676351.473   -32256784.966 7 -24788788.831 8
  20019709.426   -13525081.453 5 -10261841.702 5
 95  2 16 20  1 59.9880000  0  7 28 31 18 14 29 19 27
  19817716.020   -16184216.354 6  -2720635.647 6
  19209002.301   -16545817.209 6 -12794644.275 6
  16802513.270   -39109398.571 7 -30209443.033 8
  21036330.887    -3756138.124 3  -2843511.897 1
  17583675.785   -30521548.476 7 -23710565.182 8
  17663342.660   -32325157.798 7 -24842066.348 8
  19998654.957   -13635721.471 5 -10348054.648 5
 95  2 16 20  2 29.9880000  0  7 28 31 18 14 29 19 27
  19808271.285   -16233844.103 6  -2759306.604 6
  19188594.965   -16653060.247 6 -12878210.221 6
  16792315.559   -39162986.119 7 -30251199.564 7
  21049290.567    -3688043.265 3  -2790451.375 3
  17583947.957   -30520113.965 7 -23709447.417 8
  17650370.184   -32393325.814 7 -24895184.267 8
  19977616.106   -13746286.731 5 -10434209.340 5
 95  2 16 20  2 59.9880000  0  7 28 31 18 14 29 19 27
  19798926.192   -16282958.810 6  -2797577.780 6
  19168252.863   -16759948.366 6 -12961499.605 6
  16782200.254   -39216134.791 7 -30292614.115 7
  21062234.762    -3620003.808 3  -2737434.082 3
  17584299.840   -30518266.685 7 -23708008.015 9
  17637432.996   -32461326.142 7 -24948171.521 8
  19956588.738   -13856788.356 5 -10520314.448 5
 95  2 16 20  3 29.9880000  0  7 28 31 18 14 29 19 27
  19789673.356   -16331577.864 5  -2835462.743 6
  19147976.277   -16866508.425 6 -13044533.362 5
  16772168.613   -39268863.693 7 -30333701.574 7
  21075173.793    -3552032.837 3  -2684470.170 2
  17584722.246   -30516031.234 7 -23706266.146 9
  17624516.520   -32529186.494 7 -25001049.707 8
  19935570.395   -13967234.717 5 -10606376.480 5
 95  2 16 20  3 59.9880000  0  7 28 31 18 14 29 19 27
  19780519.723   -16379685.616 5  -2872949.267 6
  19127763.535   -16972738.145 6 -13127309.713 5
  16762217.606   -39321155.408 7 -30374448.368 7
  21088100.293    -3484096.092 3  -2631532.884 2
  17585225.941   -30513408.142 7 -23704222.215 9
  17611630.840   -32596898.398 7 -25053812.221 8
  19914569.457   -14077604.749 5 -10692379.035 5
 95  2 16 20  4 29.9880000  0  7 28 31 18 14 29 19 27
  19771468.606   -16427266.651 5  -2910025.363 6
  19107614.887   -17078617.450 6 -13209813.002 6
  16752348.434   -39373003.094 7 -30414849.164 7
  21101024.684    -3416177.994 3  -2578610.154 2
  17585797.981   -30510394.865 7 -23701874.243 9
  17598777.957   -32664453.822 7 -25106452.797 8
  19893583.402   -14187884.159 5 -10778310.979 5
 95  2 16 20  4 59.9880000  0  7 28 31 18 14 29 19 27
  19762510.262   -16474331.784 5  -2946699.461 6
  19087530.520   -17184142.037 6 -13292039.894 5
  16742567.777   -39424410.432 7 -30454906.835 7
  21113943.527    -3348291.545 3  -2525712.134 4
  17586447.965   -30506978.569 7 -23699212.231 9
  17585945.949   -32731864.637 7 -25158980.699 8
  19872611.551   -14298080.556 5 -10864178.235 5
 95  2 16 20  5 29.9880000  0  7 28 31 18 14 29 19 27
  19753650.996   -16520876.586 6  -2982968.099 6
  19067520.348   -17289312.686 6 -13373990.987 6
  16732870.449   -39475362.155 7 -30494609.473 7
  21126860.973    -3280424.730 3  -2472829.414 2
  17587177.668   -30503142.823 7 -23696223.385 9
  17573151.551   -32799119.017 7 -25211386.685 8
  19851657.145   -14408201.552 5 -10949986.748 5
 95  2 16 20  5 59.9880000  0  8 28 31 18 14  2 29 19 27
  19744894.652   -16566898.972 6  -3018829.679 6
  19047575.504   -17394118.895 6 -13455658.095 6
  16723265.309   -39525858.425 7 -30533957.229 7
  21139769.449    -3212590.224 3  -2419971.869 3
  21364334.731          -0.10913
  17587986.324   -30498887.484 7 -23692907.581 8
  17560380.551   -32866215.432 7 -25263669.588 8
  19830716.113   -14518257.809 5 -11035744.824 5
 95  2 16 20  6 29.9880000  0  8 28 31 18 14  2 29 19 27
  19736233.918   -16612407.043 6  -3054290.490 6
  19027704.340   -17498550.464 6 -13537033.284 6
  16713742.059   -39575899.351 7 -30572950.165 7
  21152666.566    -3144833.421 2  -2367174.907 2
  21338449.973     -136000.658 3
  17588879.840   -30494209.369 7 -23689262.341 9
  17547641.996   -32933154.959 7 -25315830.249 8
  19809781.465   -14628258.489 5 -11121459.561 5
 95  2 16 20  6 59.9880000  0  8 28 31 18 14  2 29 19 27
  19727675.410   -16657380.068 6  -3089334.381 6
  19007905.566   -17602586.210 6 -13618100.027 6
  16704311.465   -39625450.392 7 -30611561.370 7
  21165547.567    -3077143.579 2  -2314430.149 2
  21312606.809     -271840.910 3        -0.03312
  17589850.801   -30489093.769 7 -23685276.214 9
  17534940.785   -32999913.143 7 -25367849.598 8
  19788859.965   -14738198.906 5 -11207127.375 5
 95  2 16 20  7 29.9880000  0  8 28 31 18 14  2 29 19 27
  19719213.949   -16701834.083 5  -3123973.846 6
  18988182.942   -17706239.677 6 -13698868.905 6
  16694970.707   -39674532.054 7 -30649806.826 7
  21178405.121    -3009545.490 2  -2261756.902 1
  21286781.692     -407531.794 2   -105732.857 3
  17590900.191   -30483584.659 7 -23680983.444 8
  17522269.231   -33066502.063 7 -25419737.056 8
  19767947.145   -14848109.662 5 -11292772.057 5
 95  2 16 20  7 59.9880000  0  8 28 31 18 14  2 29 19 27
  19710857.238   -16745757.912 5  -3158200.194 6
  18968534.192   -17809489.633 6 -13779323.346 6
  16685724.270   -39723134.427 7 -30687678.814 7
  21191253.262    -2942041.926 3  -2209157.258 1
  21260987.152     -543072.677 1   -211348.784 2
  17592024.512   -30477673.235 7 -23676377.186 8
  17509633.457   -33132901.043 7 -25471476.509 8
  19747033.207   -14957980.180 5 -11378385.389 5
 95  2 16 20  8 29.9880000  0  8 28 31 18 14  2 29 19 27
  19702602.762   -16789151.331 6  -3192013.206 6
  18948962.004   -17912342.965 6 -13859468.744 6
  16676569.371   -39771252.361 7 -30725173.310 7
  21204084.160    -2874625.077 3  -2156625.203 1
  21235227.246     -678462.171 2   -316846.763 4
  17593227.731   -30471358.083 7 -23671456.333 8
  17497032.465   -33199105.719 7 -25523064.557 8
  19726138.895   -15067802.491 5 -11463961.178 5
 95  2 16 20  8 59.9880000  0  8 28 31 18 14  2 29 19 27
  19694454.106   -16831968.197 5  -3225376.966 6
  18929469.941   -18014762.022 6 -13939275.736 6
  16667510.395   -39818849.790 7 -30762262.221 7
  21216911.051          -0.49613
  21209504.082     -813664.385 2   -422198.794 3
  17594514.356   -30464597.783 7 -23666188.620 8
  17484477.090   -33265083.384 7 -25574475.714 8
  19705262.215   -15177530.307 5 -11549463.331 5
 95  2 16 20  9 29.9880000  0  7 28 31 18  2 29 19 27
  19686410.481   -16874249.670 5  -3258323.539 6
  18910058.863   -18116789.690 6 -14018777.759 6
  16658542.059   -39865979.616 7 -30798986.761 7
  21183794.066     -948741.324 2   -527453.260 4
  17595876.668   -30457428.464 7 -23660602.184 8
  17471955.926   -33330885.702 7 -25625750.238 8
  19684391.840   -15287189.872 5 -11634912.302 5
 95  2 16 20  9 59.9880000  0  7 28 31 18  2 29 19 27
  19678463.551   -16916000.012 6  -3290856.257 6
  18890711.793   -18218432.478 6 -14097979.869 6
  16649658.949   -39912643.575 7 -30835348.289 7
  21158115.613    -1083694.121 2   -632610.948 5
  17597322.949   -30449833.222 7 -23654683.859 8
  17459469.449   -33396527.714 7 -25676899.853 8
  19663539.215   -15396773.122 5 -11720301.832 5
 95  2 16 20 10 29.9880000  0  7 28 31 18  2 29 19 27
  19670614.926   -16957227.082 5  -3322981.230 6
  18871444.801   -18319690.288 6 -14176881.989 6
  16640870.199   -39958846.302 7 -30871350.416 7
  21132454.918    -1218528.263 3   -737676.204 4
  17598848.918   -30441813.480 7 -23648434.764 8
  17446998.816   -33462039.457 7 -25727947.947 8
  19642699.231   -15506275.052 5 -11805627.968 5
 95  2 16 20 10 59.9880000  0  7 28 31 18  2 29 19 27
  19662871.809   -16997905.817 5  -3354678.929 6
  18852254.613   -18420528.211 6 -14255456.928 6
  16632167.184   -40004567.603 7 -30906977.408 7
  21106825.051    -1353226.117 4   -842635.215 3
  17600461.457   -30433338.682 7 -23641831.068 8
  17434563.106   -33527399.598 7 -25778877.921 8
  19621880.621   -15615685.340 5 -11890882.702 5
 95  2 16 20 11 29.9880000  0  7 28 31 18  2 29 19 27
  19655237.965   -17038053.625 5  -3385962.917 6
  18833145.895   -18520954.255 6 -14333710.927 6
  16623554.762   -40049817.648 7 -30942237.193 7
  21081215.191    -1487798.195 5   -947496.276 3
  17602157.270   -30424422.273 7 -23634883.263 8
  17422152.746   -33592616.977 7 -25829696.646 8
  19601074.965   -15725029.824 5 -11976086.166 5
 95  2 16 20 11 59.9880000  0  7 28 31 18  2 29 19 27
  19647693.895   -17077683.512 5  -3416843.319 6
  18814112.160   -18620976.034 6 -14411649.924 6
  16615035.543   -40094599.998 7 -30977132.541 7
  21055629.301    -1622243.325 4  -1052258.427 1
  17603934.262   -30415084.664 7 -23627607.246 8
  17409769.098   -33657689.028 7 -25880402.122 8
  19580273.192   -15834329.968 5 -12061255.082 5
 95  2 16 20 12 29.9880000  0  7 28 31 18  2 29 19 27
  19640253.449   -17116796.732 5  -3447321.119 6
  18795154.426   -18720597.215 6 -14489276.755 6
  16606603.441   -40138917.585 7 -31011665.732 7
  21030068.145    -1756563.507 4  -1156923.208 4
  17605787.699   -30405354.672 7 -23620025.474 8
  17397414.535   -33722614.590 7 -25930993.462 9
  19559481.340   -15943591.224 5 -12146393.682 5
 95  2 16 20 12 59.9880000  0  7 28 31 18  2 29 19 27
  19632913.301   -17155372.463 5  -3477380.107 6
  18776279.363   -18819797.461 6 -14566575.589 6
  16598259.168   -40182760.648 7 -31045829.163 7
  21004539.574    -1890722.826 4  -1261462.633 3
  17607712.629   -30395235.782 7 -23612140.670 8
  17385090.707   -33787358.574 7 -25981443.307 8
  19538698.590   -16052797.835 5 -12231489.709 5
 95  2 16 20 13 29.9880000  0  7 28 31 18  2 29 19 27
  19625672.207   -17193401.774 5  -3507013.311 6
  18757482.129   -18918567.709 6 -14643539.358 6
  16590006.957   -40226116.252 7 -31079612.758 7
  20979044.418    -2024699.338 4  -1365859.649 3
  17609709.113   -30384738.667 7 -23603961.146 8
  17372813.840   -33851908.612 7 -26031742.033 8
  19517933.035   -16161921.619 5 -12316521.190 5
 95  2 16 20 13 59.9880000  0  7 28 31 18  2 29 19 27
  19618543.754   -17230891.575 5  -3536226.115 6
  18738765.410   -19016921.374 6 -14720178.513 6
  16581846.191   -40269000.212 7 -31113028.828 7
  20953580.488    -2158501.998 4  -1470121.200 2
  17611775.684   -30373882.823 7 -23595502.089 8
  17360562.770   -33916281.365 7 -26081902.610 8
  19497183.121   -16270962.239 5 -12401487.869 5
 95  2 16 20 14 29.9880000  0  7 28 31 18  2 29 19 27
  19611504.340   -17267847.655 5  -3565023.044 6
  18720129.410   -19114863.189 6 -14796496.761 6
  16573774.027   -40311421.514 7 -31146084.396 7
  20928152.231    -2292137.553 4  -1574252.556 3
  17613910.918   -30362659.212 7 -23586756.467 8
  17348343.074   -33980487.960 7 -26131933.718 8
  19476447.184   -16379931.118 5 -12486398.622 5
 95  2 16 20 14 59.9880000  0  7 28 31 18  2 29 19 27
  19604580.356   -17304259.877 5  -3593396.184 6
  18701572.387   -19212380.353 6 -14872484.095 6
  16565796.504   -40353358.286 7 -31178762.407 7
  20902760.262    -2425597.080 4  -1678246.738 2
  17616127.582   -30351024.938 7 -23577690.835 8
  17336159.481   -34044503.930 7 -26181816.292 8
  19455726.223   -16488831.041 5 -12571255.670 6
 95  2 16 20 15 29.9880000  0  7 28 31 18  2 29 19 27
  19597754.809   -17340123.187 5  -3621341.597 6
  18683095.988   -19309467.855 6 -14948136.630 6
  16557911.387   -40394786.804 7 -31211044.378 7
  20877386.934    -2558888.442 4  -1782109.987 2
  17618421.051   -30338960.739 7 -23568290.202 8
  17324016.566   -34108329.658 7 -26231550.615 8
  19435014.309   -16597669.181 6 -12656064.564 5
 95  2 16 20 15 59.9880000  0  7 28 31 18  2 29 19 27
  19591033.121   -17375449.620 5  -3648868.677 6
  18664702.535   -19406133.962 6 -15023460.810 6
  16550123.816   -40435714.870 7 -31242936.380 7
  20852053.918    -2692031.759 4  -1885857.793 2
  17620799.621   -30326463.318 7 -23558551.995 8
  17311900.863   -34171987.020 7 -26281153.746 8
  19414311.621   -16706462.489 5 -12740838.518 5
 95  2 16 20 16 29.9880000  0  7 28 31 18  2 29 19 27
  19584414.856   -17410226.241 5  -3675967.330 6
  18646393.426   -19502349.355 6 -15098433.775 6
  16542433.496   -40476126.260 7 -31274425.791 7
  20826747.973    -2825012.180 3  -1989478.709 2
  17623265.598   -30313507.151 7 -23548456.328 8
  17299825.754   -34235452.045 7 -26330607.004 8
  19393620.426   -16815195.206 6 -12825565.251 6
 95  2 16 20 16 59.9880000  0  7 28 31 18  2 29 19 27
  19577899.418   -17444460.910 6  -3702643.691 6
  18628170.043   -19598107.572 6 -15173050.506 6
  16534838.113   -40516035.228 7 -31305523.695 7
  20801473.902    -2957835.664 3  -2092977.296 2
  17625811.027   -30300120.424 7 -23538025.147 8
  17287783.129   -34298744.522 7 -26379925.809 8
  19372943.660   -16923868.163 6 -12910245.427 6
 95  2 16 20 17 29.9880000  0  7 28 31 18  2 29 19 27
  19571481.918   -17478170.954 5  -3728911.243 6
  18610032.645   -19693418.101 6 -15247318.391 6
  16527335.090   -40555473.677 7 -31336254.964 7
  20776229.199    -3090519.867 3  -2196367.375 2
  17628435.137   -30286343.581 7 -23527289.988 8
  17275761.176   -34361901.151 7 -26429138.766 8
  19352271.512   -17032485.350 5 -12994882.147 6
 95  2 16 20 17 59.9880000  0  7 28 31 18  2 29 19 27
  19565172.738   -17511347.744 5  -3754763.270 6
  18591985.309   -19788265.548 6 -15321225.425 6
  16519915.551   -40594448.964 7 -31366625.323 7
  20751005.184    -3223045.920 3  -2299634.222 2
  17631133.613   -30272163.121 7 -23516240.320 8
  17263772.293   -34424912.660 7 -26478238.637 8
  19331614.395   -17141035.849 5 -13079466.900 5
 95  2 16 20 18 29.9870000  0  7 28 31 18  2 29 19 27
  19558958.632   -17543998.476 5  -3780205.377 6
  18574023.132   -19882644.332 6 -15394767.268 6
  16512586.382   -40632973.555 7 -31396644.490 7
  20725818.280    -3355414.754 3  -2402778.523 4
  17633907.015   -30257588.981 7 -23504883.904 8
  17251808.585   -34487780.698 7 -26527226.719 8
  19310966.101   -17249536.751 6 -13164013.013 6
 95  2 16 20 18 59.9870000  0  7 28 31 18  2 29 19 27
  19552846.530   -17576118.925 5  -3805234.276 6
  18556151.484   -19976568.496 6 -15467954.865 6
  16505342.429   -40671038.352 7 -31426305.375 7
  20700652.484    -3487631.076 3  -2505804.001 3
  17636753.226   -30242623.187 7 -23493222.289 8
  17239870.093   -34550519.437 7 -26576114.047 8
  19290328.460   -17357987.586 6 -13248520.111 5
 95  2 16 20 19 29.9870000  0  7 28 31 18  2 29 19 27
  19546837.421   -17607692.222 5  -3829836.827 5
  18538363.452   -20070036.612 6 -15540787.093 6
  16498190.679   -40708615.767 7 -31455586.480 7
  20675526.765    -3619675.277 4  -2608695.404 4
  17639681.593   -30227242.904 7 -23481237.704 8
  17227960.577   -34613110.531 7 -26624886.326 8
  19269708.859   -17466359.648 6 -13332965.848 5
 95  2 16 20 19 59.9870000  0  7 28 31 18  2 29 19 27
  19540932.468   -17638733.806 5  -3854025.076 6
  18520660.866   -20163064.165 6 -15613276.028 6
  16491132.718   -40745718.835 7 -31484497.975 7
  20650430.273    -3751566.115 4  -2711467.233 4
  17642685.398   -30211456.255 7 -23468936.468 8
  17216073.077   -34675561.212 7 -26673549.191 8
  19249098.405   -17574660.393 6 -13417355.986 6
 95  2 16 20 20 29.9870000  0  7 28 31 18  2 29 19 27
  19535126.890   -17669229.476 5  -3877787.914 6
  18503043.030   -20255655.371 6 -15685424.966 6
  16484165.312   -40782318.690 7 -31513017.351 7
  20625363.601    -3883294.858 4  -2814112.800 5
  17645769.484   -30195257.283 7 -23456313.948 8
  17204222.851   -34737846.925 7 -26722083.507 8
  19228508.101   -17682865.989 6 -13501672.000 5
 95  2 16 20 20 59.9870000  0  7 28 31 18  2 29 19 27
  19529425.421   -17699193.267 5  -3901136.302 6
  18485499.234   -20347838.980 6 -15757256.303 6
  16477295.179   -40818422.163 7 -31541149.935 7
  20600327.116    -4014871.229 5  -2916639.642 5
  17648925.648   -30178664.810 7 -23443384.807 8
  17192401.921   -34799965.587 7 -26770487.651 8
  19207934.030   -17790984.733 6 -13585920.335 6
 95  2 16 20 21 29.9870000  0  7 28 31 18  2 29 19 27
  19523822.530   -17728618.617 5  -3924065.143 6
  18468042.327   -20439588.465 6 -15828749.358 6
  16470522.179   -40854018.922 7 -31568887.677 7
  20575317.491    -4146282.450 5  -3019037.767 5
  17652159.733   -30161668.682 7 -23430141.115 8
  17180620.288   -34861883.176 7 -26818735.118 8
  19187375.851   -17899022.945 6 -13670105.912 6
 95  2 16 20 21 59.9870000  0  7 28 31 18  2 29 19 27
  19518330.632   -17757496.469 5  -3946567.340 6
  18450668.905   -20530873.741 6 -15899880.702 6
  16463848.593   -40889099.963 7 -31596223.558 7
  20550343.523    -4277519.715 4  -3121300.384 5
  17655473.257   -30144255.045 7 -23416572.102 8
  17168877.812   -34923576.662 7 -26866807.954 8
  19166828.921   -18006992.035 6 -13754237.622 6
 95  2 16 20 22 29.9870000  0  7 28 31 18  2 29 19 27
  19512938.038   -17785829.905 5  -3968645.316 6
  18433386.632   -20621694.494 6 -15970650.091 6
  16457268.952   -40923657.806 7 -31623151.754 7
  20525403.069    -4408574.254 5  -3223420.601 5
  17658865.218   -30126433.951 7 -23402685.586 8
  17157181.929   -34985056.636 7 -26914714.420 8
  19146292.366   -18114913.760 6 -13838332.426 6
 95  2 16 20 22 59.9870000  0  7 28 31 18  2 29 19 27
  19507652.093   -17813622.567 5  -3990301.913 6
  18416199.546   -20712014.509 6 -16041029.291 6
  16450792.226   -40957713.396 7 -31649688.588 7
  20500498.749    -4539446.315 4  -3325398.638 4
  17662332.609   -30108212.297 7 -23388486.937 8
  17145513.374   -35046350.144 7 -26962475.580 8
  19125764.671   -18222795.023 6 -13922395.703 6
 95  2 16 20 23 29.9870000  0  7 28 31 18  2 29 19 27
  19502463.608   -17840893.568 5  -4011552.035 6
  18399108.773   -20801830.819 6 -16111015.990 6
  16444399.944   -40991300.474 7 -31675860.343 7
  20475621.546    -4670159.850 4  -3427253.158 4
  17665872.030   -30089611.883 7 -23373993.156 8
  17133877.452   -35107499.623 7 -27010124.522 8
  19105238.437   -18330649.745 6 -14006438.305 6
 95  2 16 20 23 59.9870000  0  7 28 31 18  2 29 19 27
  19497372.484   -17867640.123 5  -4032393.500 5
  18382110.726   -20891154.071 6 -16180618.491 6
  16438097.460   -41024421.449 7 -31701668.906 7
  20450779.632    -4800714.048 4  -3528983.561 4
  17669482.976   -30070629.424 7 -23359201.682 7
  17122265.976   -35168525.888 7 -27057677.450 8
  19084721.257   -18438460.255 6 -14090446.441 6
 95  2 16 20 24 29.9870000  0  7 28 31 18  2 29 19 27
  19492386.241   -17893838.512 5  -4052807.828 6
  18365208.780   -20979971.053 6 -16249826.504 6
  16431883.976   -41057063.397 7 -31727104.197 7
  20425977.202    -4931075.906 4  -3630564.052 4
  17673172.577   -30051248.936 7 -23344100.041 7
  17110681.866   -35229413.867 7 -27105122.619 8
  19064226.249   -18546185.019 6 -14174387.787 5
 95  2 16 20 24 59.9870000  0  7 28 31 18  2 29 19 27
  19487502.952   -17919493.983 5  -4072799.093 6
  18348401.116   -21068298.583 6 -16318653.114 6
  16425763.249   -41089243.449 7 -31752179.570 7
  20401198.874    -5061252.996 4  -3732000.581 4
  17676937.132   -30031471.904 7 -23328689.418 8
  17099116.483   -35290164.936 7 -27152461.104 8
  19043740.718   -18653820.087 6 -14258259.211 6
 95  2 16 20 25 29.9870000  0  7 28 31 18  2 29 19 27
  19482724.585   -17944608.647 5  -4092368.944 6
  18331676.140   -21156184.586 6 -16387135.690 6
  16419729.171   -41120940.245 7 -31776878.387 7
  20376468.241    -5191239.975 4  -3833289.010 4
  17680774.913   -30011294.977 7 -23312967.183 7
  17087585.171   -35350770.757 7 -27199686.411 8
  19023274.413   -18761363.944 6 -14342059.579 6
 95  2 16 20 25 59.9870000  0  7 28 31 18  2 29 19 27
  19478048.569   -17969188.860 5  -4111522.336 6
  18315030.233   -21243654.598 6 -16455294.108 6
  16413791.405   -41152143.427 7 -31801192.567 7
  20351769.054    -5321031.034 3  -3934424.774 3
  17684688.265   -29990731.317 6 -23296943.605 7
  17076081.163   -35411234.934 7 -27246801.343 8
  19002827.476   -18868827.719 6 -14425797.542 6
 95  2 16 20 26 29.9870000  0  7 28 31 18  2 29 19 27
  19473469.624   -17993233.989 6  -4130258.780 6
  18298467.554   -21330703.196 6 -16523124.151 6
  16407949.210   -41182850.605 7 -31825120.248 7
  20327111.343    -5450614.761 4  -4035398.965 2
  17688672.765   -29969789.656 6 -23280625.467 7
  17064600.749   -35471552.614 7 -27293802.128 8
  18982388.429   -18976232.607 6 -14509489.605 6
 95  2 16 20 26 59.9870000  0  7 28 31 18  2 29 19 27
  19468997.640   -18016739.965 5  -4148575.118 6
  18281986.468   -21417313.248 6 -16590612.464 6
  16402204.046   -41213037.679 7 -31848642.655 7
  20302487.476    -5579998.461 3  -4136217.316 5
  17692730.999   -29948460.125 6 -23264005.098 7
  17053155.116   -35531713.749 7 -27340680.925 8
  18961962.765   -19083581.280 6 -14593137.873 6
 95  2 16 20 27 29.9870000  0  7 28 31 18  2 29 19 27
  19464633.062   -18039698.108 5  -4166464.571 6
  18265597.546   -21503442.321 6 -16657725.969 6
  16396562.483   -41242686.503 7 -31871745.649 7
  20277907.694    -5709181.127 3  -4236878.969 4
  17696864.960   -29926735.037 6 -23247076.507 7
  17041736.788   -35591700.023 7 -27387423.461 8
  18941543.085   -19190871.082 6 -14676740.252 6
 95  2 16 20 27 59.9870000  0  7 28 31 18  2 29 19 27
  19460361.437   -18062119.284 5  -4183935.609 6
  18249304.030   -21589062.678 6 -16724443.085 6
  16391019.366   -41271820.343 7 -31894447.351 7
  20253358.812    -5838181.974 4  -4337398.986 3
  17701074.249   -29904630.845 6 -23229852.509 7
  17030355.702   -35651506.938 7 -27434026.245 8
  18921135.523   -19298115.525 6 -14760307.291 6
 95  2 16 20 28 29.9870000  0  7 28 31 18  2 29 19 27
  19456199.108   -18084006.479 5  -4200990.576 6
  18233107.898   -21674161.995 6 -16790754.191 6
  16385570.679   -41300450.111 7 -31916756.272 7
  20228836.905    -5967020.397 4  -4437792.456 3
  17705355.577   -29882129.011 6 -23212318.665 7
  17019014.187   -35711120.481 7 -27480478.351 8
  18900737.273   -19405314.922 6 -14843839.230 6
 95  2 16 20 28 59.9870000  0  7 28 31 18  2 29 19 27
  19452134.851   -18105366.037 5  -4217634.375 6
  18217013.405   -21758732.097 6 -16856652.919 6
  16380215.538   -41328583.040 7 -31938678.043 7
  20204352.335    -6095718.835 3  -4538076.811 3
  17709713.312   -29859228.746 6 -23194474.347 7
  17007708.312   -35770539.673 7 -27526779.008 8
  18880348.085   -19512455.758 6 -14927325.550 6
 95  2 16 20 29 29.9870000  0  7 28 31 18  2 29 19 27
  19448169.702   -18126193.134 5  -4233863.275 6
  18201022.702   -21842780.531 6 -16922145.148 6
  16374954.608   -41356240.466 7 -31960229.291 7
  20179885.976    -6224261.871 4  -4638240.082 4
  17714144.257   -29835935.030 6 -23176323.450 7
  16996435.226   -35829769.823 7 -27572932.364 8
  18859972.108   -19619538.907 6 -15010766.906 6
 95  2 16 20 29 59.9870000  0  7 28 31 18  2 29 19 27
  19444309.827   -18146496.462 5  -4249684.048 6
  18185119.280   -21926338.740 6 -16987255.385 6
  16369777.437   -41383440.102 7 -31981423.823 7
  20155457.819    -6352645.091 4  -4738278.803 4
  17718652.085   -29812255.266 6 -23157871.739 7
  16985196.507   -35888832.727 7 -27618955.400 8
  18839601.773   -19726572.372 6 -15094169.540 6
 95  2 16 20 30 29.9870000  0  7 28 31 18  2 29 19 27
  19440544.632   -18166261.854 5  -4265085.644 6
  18169314.226   -22009400.544 6 -17051978.812 6
  16364691.616   -41410163.969 7 -32002247.633 7
  20131062.780    -6480842.358 4  -4838172.660 4
  17723234.038   -29788173.221 6 -23139106.554 7
  16973988.366   -35947734.456 7 -27664852.842 8
  18819245.796   -19833546.713 6 -15177526.123 6
 95  2 16 20 30 59.9870000  0  7 28 31 18  2 29 19 27
  19436885.726   -18185493.910 5  -4280071.647 6
  18153604.257   -22091962.946 6 -17116313.098 6
  16359698.905   -41436409.651 7 -32022698.832 7
  20106708.249    -6608843.146 5  -4937913.355 5
  17727889.210   -29763708.705 6 -23120043.350 7
  16962805.398   -36006494.768 7 -27710640.091 8
  18798901.898   -19940457.399 6 -15260833.090 6
 95  2 16 20 31 29.9870000  0  7 28 31 18  2 29 19 27
  19433330.179   -18204176.177 5  -4294629.256 6
  18137991.671   -22174016.448 6 -17180250.829 6
  16354800.726   -41462150.638 7 -32042756.753 7
  20082387.898    -6736620.274 5  -5037479.806 4
  17732619.937   -29738848.388 6 -23100671.736 7
  16951650.374   -36065105.055 7 -27756310.439 8
  18778574.280   -20047288.187 6 -15344077.800 6
 95  2 16 20 31 59.9870000  0  7 28 31 18  2 29 19 27
  19429875.765   -18222328.433 5  -4308773.874 5
  18122474.484   -22255561.603 6 -17243792.438 6
  16349998.030   -41487377.379 7 -32062413.970 7
  20058111.187    -6864192.844 4  -5136886.850 4
  17737422.616   -29713610.450 6 -23081005.858 7
  16940526.194   -36123575.252 7 -27801871.624 8
  18758257.546   -20154045.947 6 -15427265.603 6
 95  2 16 20 32 29.9870000  0  7 28 31 18  2 29 19 27
  19426527.655   -18239944.397 5  -4322500.619 5
  18107055.663   -22336574.976 6 -17306919.686 6
  16345297.233   -41512079.785 7 -32081662.611 7
  20033874.374    -6991568.899 5  -5236140.758 5
  17742298.476   -29687997.888 6 -23061048.082 7
  16929429.226   -36181893.829 7 -27847314.663 8
  18737957.999   -20260721.139 6 -15510389.066 6
 95  2 16 20 32 59.9870000  0  7 28 31 18  2 29 19 27
  19423272.882   -18257019.356 5  -4335805.765 6
  18091741.319   -22417051.293 6 -17369628.442 6
  16340697.023   -41536260.859 7 -32100505.014 7
  20009673.648    -7118743.891 5  -5335238.002 5
  17747241.898   -29662013.065 6 -23040800.219 7
  16918363.155   -36240048.507 7 -27892629.987 8
  18717675.476   -20367306.971 6 -15593442.900 6
 95  2 16 20 33 29.9870000  0  7 28 31 18  2 29 19 27
  19420127.390   -18273564.535 5  -4348698.099 6
  18076524.140   -22497014.921 6 -17431937.693 6
  16336193.827   -41559928.736 7 -32118947.521 7
  19985510.288    -7245724.367 5  -5434183.679 5
  17752254.241   -29635671.350 6 -23020274.263 7
  16907326.757   -36298038.132 7 -27937816.697 8
  18697404.538   -20473826.752 6 -15676445.272 6
 95  2 16 20 33 59.9870000  0  7 28 31 18  2 29 19 27
  19417081.530   -18289561.773 5  -4361163.450 6
  18061409.030   -22576444.484 6 -17493830.804 6
  16331786.054   -41583082.457 7 -32136989.398 7
  19961387.671    -7372488.116 5  -5532960.482 5
  17757338.359   -29608958.372 6 -22999459.014 7
  16896329.554   -36355843.006 7 -27982859.446 8
  18677148.398   -20580269.841 6 -15759387.886 6
 95  2 16 20 34 29.9870000  0  7 28 31 18  2 29 19 27
  19414139.405   -18305011.208 5  -4373201.954 6
  18046394.398   -22655352.639 6 -17555317.610 7
  16327477.163   -41605738.443 7 -32154643.426 7
  19937311.015    -7499030.673 5  -5631564.920 5
  17762492.585   -29581869.952 6 -22978351.209 7
  16885360.038   -36413473.524 7 -28027766.332 8
  18656908.405   -20686643.388 6 -15842276.312 6
 95  2 16 20 34 59.9870000  0  7 28 31 18  2 29 19 27
  19411303.913   -18319927.457 5  -4384824.993 6
  18031471.460   -22733767.255 6 -17616419.846 6
  16323262.265   -41627889.146 7 -32171903.729 7
  19913270.624    -7625349.249 5  -5729994.825 5
  17767716.616   -29554416.757 6 -22956959.162 7
  16874423.546   -36470938.476 7 -28072544.207 8
  18636676.569   -20792959.869 6 -15925120.265 6
 95  2 16 20 35 29.9870000  0  7 28 31 18  2 29 19 27
  19408568.382   -18334307.364 5  -4396030.105 5
  18016644.116   -22811682.043 6 -17677132.618 6
  16319145.233   -41649520.128 7 -32188759.053 7
  19889276.585    -7751448.458 5  -5828253.827 5
  17773012.952   -29526585.001 6 -22935272.139 7
  16863522.890   -36528231.710 7 -28117188.276 9
  18616456.491   -20899211.063 6 -16007913.348 6
 95  2 16 20 35 59.9870000  0  7 28 31 18  2 29 19 27
  19405929.562   -18348148.843 5  -4406815.666 5
  18001915.335   -22889081.534 6 -17737443.851 6
  16315127.515   -41670627.186 7 -32205206.131 7
  19865322.015    -7877334.777 5  -5926346.939 5
  17778383.765   -29498368.253 6 -22913285.119 7
  16852655.585   -36585357.596 7 -28161701.942 8
  18596250.265   -21005395.059 6 -16090654.067 6
 95  2 16 20 36 29.9870000  0  7 28 31 18  2 29 19 27
  19403398.413   -18361464.802 5  -4417191.716 6
  17987281.796   -22965982.113 6 -17797366.332 6
  16311213.429   -41691203.101 7 -32221239.326 7
  19841395.984    -8003023.139 5  -6024285.778 5
  17783825.374   -29469767.341 6 -22890998.756 7
  16841814.101   -36642311.332 7 -28206081.465 8
  18576054.734   -21111520.676 6 -16173349.291 6
 95  2 16 20 36 59.9870000  0  8 28 31 18 16  2 29 19 27
  19400972.812   -18374237.799 5  -4427144.690 6
  17972752.952   -23042343.545 6 -17856868.697 6
  16307401.155   -41711234.878 7 -32236848.521 7
  20835021.421          -0.31912
  19817522.265    -8128500.176 5  -6122059.985 5
  17789344.476   -29440761.989 6 -22868397.243 7
  16831014.171   -36699065.676 7 -28250305.622 9
  18555873.210   -21217565.749 6 -16255981.760 6
 95  2 16 20 37 29.9860000  0  8 28 31 18 16  2 29 19 27
  19398642.635   -18386480.423 5  -4436684.381 5
  17958325.979   -23118154.810 6 -17915942.361 7
  16303685.315   -41730762.466 7 -32252064.842 8
  20815322.369     -103494.893 3
  19793686.166    -8253779.195 5  -6219679.901 5
  17794939.166   -29411359.874 6 -22845486.562 7
  16820247.338   -36755639.885 7 -28294389.413 9
  18535710.518   -21323532.307 6 -16338553.050 6
 95  2 16 20 37 59.9860000  0  8 28 31 18 16  2 29 19 27
  19396407.174   -18398201.757 5  -4445817.847 6
  17944004.643   -23193416.942 6 -17974588.127 6
  16300061.627   -41749805.437 7 -32266903.542 8
  20795712.791     -206580.119 3
  19769883.143    -8378861.309 5  -6317146.355 5
  17800610.330   -29381566.114 6 -22822270.709 7
  16809513.400   -36812048.447 7 -28338344.127 8
  18515558.486   -21429431.875 6 -16421072.125 6
 95  2 16 20 38 29.9860000  0  8 28 31 18 16  2 29 19 27
  19394278.861   -18409385.717 5  -4454532.611 5
  17929791.994   -23268101.482 6 -18032783.819 6
  16296531.322   -41768359.131 7 -32281360.986 7
  20776177.846     -309224.200 3        -0.27411
  19746121.565    -8503720.718 5  -6414439.301 5
  17806357.908   -29351362.172 6 -22798735.228 7
  16798814.096   -36868272.991 7 -28382155.453 9
  18495427.885   -21535232.317 6 -16503513.957 6
 95  2 16 20 38 59.9860000  0  8 28 31 18 16  2 29 19 27
  19392255.065   -18420032.664 5  -4462828.910 5
  17915693.674   -23342190.217 6 -18090515.264 6
  16293091.135   -41786425.944 7 -32295439.042 8
  20756734.994     -411418.670 3    -79632.308 1
  19722405.096    -8628363.934 5  -6511563.783 5
  17812179.229   -29320772.984 6 -22774899.547 7
  16788149.635   -36924327.146 7 -28425834.004 9
  18475312.486   -21640932.087 6 -16585877.354 6
 95  2 16 20 39 29.9860000  0  8 28 31 18 16  2 29 19 27
  19390331.721   -18430152.262 5  -4470714.298 5
  17901703.283   -23415712.761 6 -18147805.522 6
  16289747.416   -41804004.629 7 -32309136.740 8
  20737372.416     -513162.594 3   -158913.227 2
  19698724.025    -8752798.521 5  -6608525.719 5
  17818068.549   -29289821.616 6 -22750781.667 7
  16777511.065   -36980221.004 7 -28469387.656 8
  18455213.346   -21746548.035 6 -16668175.426 6
 95  2 16 20 39 59.9860000  0  8 28 31 18 16  2 29 19 27
  19388503.002   -18439747.751 5  -4478191.283 6
  17887814.174   -23488690.368 6 -18204671.143 6
  16286496.510   -41821082.931 7 -32322444.530 8
  20718090.877     -614462.654 3   -237848.318 2
  19675084.143    -8877034.806 5  -6705333.093 5
  17824024.486   -29258520.034 6 -22726390.879 7
  16766910.197   -37035945.653 7 -28512809.449 9
  18435127.768   -21852095.949 6 -16750420.496 6
 95  2 16 20 40 29.9860000  0  8 28 31 18 16  2 29 19 27
  19386775.963   -18448825.789 5  -4485265.059 6
  17874028.158   -23561135.428 6 -18261121.793 6
  16283343.705   -41837655.225 7 -32335358.028 8
  20698900.260     -715330.551 3   -316446.656 3
  19651472.080    -9001090.063 5  -6801999.424 5
  17830041.697   -29226892.141 6 -22701745.830 7
  16756336.182   -37091499.112 7 -28556097.852 8
  18415054.690   -21957590.121 6 -16832623.683 6
 95  2 16 20 40 59.9860000  0  8 28 31 18 16  2 29 19 27
  19385145.760   -18457385.778 5  -4491935.163 6
  17860341.729   -23633061.122 6 -18317167.744 6
  16280286.752   -41853716.597 7 -32347873.412 8
  20679787.947     -815781.673 4   -394720.204 2
  19627907.721    -9124956.189 5  -6898518.398 5
  17836124.697   -29194941.809 6 -22676849.530 7
  16745796.275   -37146882.447 7 -28599253.696 9
  18394988.158   -22063034.208 6 -16914787.844 6
 95  2 16 20 41 29.9860000  0  8 28 31 18 16  2 29 19 27
  19383610.346   -18465431.399 5  -4498204.480 6
  17846747.135   -23704490.530 6 -18372826.974 7
  16277327.393   -41869280.194 7 -32360000.916 8
  20660743.580     -915822.789 3   -472674.329 1
  19604370.166    -9248624.093 5  -6994882.885 5
  17842269.369   -29162649.473 6 -22651686.737 6
  16735287.971   -37202108.230 7 -28642286.762 9
  18374935.096   -22168427.873 6 -16996912.717 6
 95  2 16 20 41 59.9860000  0  8 28 31 18 16  2 29 19 27
  19382181.049   -18472954.301 5  -4504066.472 6
  17833256.666   -23775395.069 6 -18428077.211 7
  16274460.908   -41884342.937 7 -32371738.135 8
  20641788.979    -1015434.381 3   -550293.701 2
  19580877.283    -9372075.009 5  -7091078.304 5
  17848483.096   -29129993.717 6 -22626240.752 7
  16724809.830   -37257167.164 7 -28685189.819 8
  18354888.705   -22273757.443 6 -17078987.649 6
 95  2 16 20 42 29.9860000  0  8 28 31 18 16  2 29 19 27
  19380850.713   -18479950.912 5  -4509518.377 6
  17819870.650   -23845750.262 6 -18482899.379 7
  16271689.783   -41898906.065 7 -32383086.052 8
  20622915.994    -1114609.836 3   -627573.269 2
  19557429.518    -9495288.319 5  -7187088.576 5
  17854767.275   -29096968.301 6 -22600506.740 7
  16714361.486   -37312078.626 7 -28727977.968 8
  18334858.986   -22379019.720 6 -17161010.143 6
 95  2 16 20 42 59.9860000  0  8 28 31 18 16  2 29 19 27
  19379622.893   -18486412.768 5  -4514553.582 6
  17806583.697   -23915550.936 6 -18537289.467 7
  16269012.893   -41912961.502 7 -32394038.366 8
  20604132.408    -1213326.483 4   -704495.290 2
  19534032.588    -9618257.749 5  -7282908.780 5
  17861127.869   -29063550.333 6 -22574466.833 6
  16703942.252   -37366839.997 7 -28770649.157 9
  18314843.221   -22484202.659 6 -17242970.828 6
 95  2 16 20 43 29.9860000  0  8 28 31 18 16  2 29 19 27
  19378495.221   -18492345.480 5  -4519176.475 5
  17793410.229   -23984788.373 6 -18591240.657 7
  16266436.010   -41926508.856 7 -32404594.767 8
  20585438.674    -1311567.443 4   -781046.676 1
  19510675.463    -9740996.277 5  -7378549.075 5
  17867558.432   -29029745.743 6 -22548125.667 7
  16693549.377   -37421447.740 7 -28813200.633 9
  18294841.143   -22589311.785 6 -17324873.988 6
 95  2 16 20 43 59.9860000  0  8 28 31 18 16  2 29 19 27
  19377465.463   -18497760.882 5  -4523396.279 6
  17780341.049   -24053457.571 6 -18644749.064 7
  16263954.924   -41939551.473 7 -32414757.874 8
  20566834.315    -1409345.956 4   -857237.667 1
  19487361.104    -9863512.545 5  -7474016.170 5
  17874061.775   -28995579.254 6 -22521502.498 6
  16683188.674   -37475893.871 7 -28855626.192 8
  18274852.541   -22694360.194 6 -17406729.834 6
 95  2 16 20 44 29.9860000  0  8 28 31 18 16  2 29 19 27
  19376533.736   -18502648.734 5  -4527204.995 6
  17767382.338   -24121560.310 6 -18697816.075 7
  16261570.510   -41952074.284 7 -32424515.938 8
  20548313.174    -1506664.279 4   -933070.103 1
  19464087.643    -9985799.184 5  -7569304.362 5
  17880629.971   -28961054.153 6 -22494599.893 6
  16672863.463   -37530157.438 7 -28897909.480 8
  18254877.885   -22799323.356 6 -17488519.273 6
 95  2 16 20 44 59.9860000  0  8 28 31 18 16  2 29 19 27
  19375699.486   -18507036.043 5  -4530623.668 6
  17754523.690   -24189134.161 6 -18750470.969 7
  16259282.065   -41964099.484 7 -32433886.248 8
  20529879.447    -1603546.896 3  -1008563.000 1
  19440858.182   -10107885.201 5  -7664436.186 5
  17887263.682   -28926200.712 6 -22467441.433 6
  16662572.690   -37584233.492 7 -28940046.655 8
  18234918.690   -22904206.439 6 -17570246.307 6
 95  2 16 20 45 29.9860000  0  8 28 31 18 16  2 29 19 27
  19374961.268   -18510906.615 5  -4533639.669 6
  17741771.432   -24256149.330 6 -18802690.533 7
  16257091.025   -41975614.837 7 -32442859.269 8
  20511524.424    -1699986.109 4  -1083710.426 1
  19417671.440   -10229734.014 5  -7759383.186 5
  17893959.900   -28891008.930 6 -22440019.344 6
  16652320.900   -37638103.657 7 -28982023.398 9
  18214979.588   -23008981.037 6 -17651888.804 6
 95  2 16 20 45 59.9860000  0  8 28 31 18 16  2 29 19 27
  19374323.252   -18514272.321 5  -4536262.280 6
  17729125.002   -24322619.438 6 -18854485.368 7
  16254996.213   -41986631.185 7 -32451443.467 8
  20493257.525    -1796004.695 4  -1158530.051 1
  19394527.791   -10351346.401 5  -7854145.958 5
  17900717.682   -28855493.518 6 -22412345.067 6
  16642105.033   -37691780.074 7 -29023849.169 8
  18195060.518   -23113657.258 6 -17733454.653 6
 95  2 16 20 46 29.9860000  0  8 28 31 18 16  2 29 19 27
  19373777.760   -18517121.976 5  -4538482.797 5
  17716582.736   -24388532.330 6 -18905846.012 7
  16252995.994   -41997134.271 7 -32459627.716 8
  20475069.135    -1891576.643 3  -1233001.654 1
  19371430.205   -10472725.510 5  -7948726.946 5
  17907541.932   -28819641.060 6 -22384408.160 6
  16631928.565   -37745263.433 7 -29065524.505 8
  18175162.736   -23218227.148 6 -17814937.633 6
 95  2 16 20 46 59.9860000  0  8 28 31 18 16  2 29 19 27
  19373336.166   -18519457.218 5  -4540302.470 5
  17704145.440   -24453883.483 6 -18956768.938 7
  16251094.236   -42007127.901 7 -32467414.982 8
  20456964.065    -1986691.218 3  -1307116.894 1
  19348372.151   -10593881.862 5  -8043134.376 5
  17914430.619   -28783437.675 6 -22356197.811 6
  16621781.510   -37798580.940 7 -29107070.604 8
  18155278.565   -23322709.893 6 -17896352.705 7
 95  2 16 20 47 29.9860000  0  8 28 31 18 16  2 29 19 27
  19372989.736   -18521288.245 5  -4541729.252 6
  17691811.619   -24518678.840 6 -19007258.789 7
  16249288.455   -42016623.112 7 -32474813.868 8
  20438957.041    -2081355.307 3  -1380881.088 2
  19325357.518   -10714824.527 5  -8137375.272 6
  17921387.557   -28746879.752 6 -22327711.195 6
  16611664.127   -37851759.470 7 -29148508.410 9
  18135407.947   -23427132.350 6 -17977720.800 6
 95  2 16 20 47 59.9860000  0  8 28 31 18 16  2 29 19 27
  19372739.190   -18522598.413 5  -4542750.151 6
  17679590.588   -24582903.195 6 -19057303.696 7
  16247578.018   -42025605.762 7 -32481813.361 8
  20421027.744    -2175546.663 3  -1454276.899 2
  19302385.783   -10835553.103 5  -8231449.367 5
  17928415.479   -28709945.385 6 -22298931.225 6
  16601573.158   -37904781.876 7 -29189824.560 9
  18115547.619   -23531495.155 6 -18059042.417 6
 95  2 16 20 48 29.9860000  0  8 28 31 18 16  2 29 19 27
  19372583.877   -18523401.056 5  -4543375.560 6
  17667477.283   -24646560.390 6 -19106906.671 7
  16245960.744   -42034101.169 7 -32488433.176 8
  20403196.291    -2269262.860 4  -1527302.496 1
  19279451.322   -10956094.414 5  -8325377.544 5
  17935515.924   -28672642.707 6 -22269864.277 6
  16591511.588   -37957666.630 7 -29231033.448 9
  18095699.096   -23635809.363 6 -18140326.169 7
 95  2 16 20 48 59.9860000  0  8 28 31 18 16  2 29 19 27
  19372526.525   -18523710.865 5
  17655469.666   -24709666.654 6 -19156080.347 7
  16244432.322   -42042132.559 7 -32494691.428 8
  20385447.338    -2362522.764 4  -1599972.507 1
  19256547.065   -11076442.363 5  -8419155.051 5
  17942680.518   -28634990.745 6 -22240525.158 6
  16581472.986   -38010417.244 7 -29272137.821 9
  18075853.150   -23740090.499 6 -18221584.142 7
 95  2 16 20 49 29.9860000  0  8 28 31 18 16  2 29 19 27
  19372564.869   -18523503.146 5
  17643575.690   -24772180.810 6 -19204792.642 7
  16242999.416   -42049666.815 7 -32500562.296 8
  20367788.885    -2455306.378 4  -1672271.411 1
  19233689.752   -11196557.553 5  -8512751.189 5
  17949911.299   -28596985.973 6 -22210911.114 6
  16571468.611   -38062976.477 7 -29313093.058 9
  18056023.447   -23844302.967 6 -18302788.613 7
 95  2 16 20 49 59.9860000  0  8 28 31 18 16  2 29 19 27
  19372700.830   -18522787.917 5  -4542897.795 5
  17631790.838   -24834109.237 6 -19253048.523 7
  16241658.244   -42056707.750 7 -32506048.758 8
  20350229.127    -2547613.816 4  -1744199.240 1
  19210875.541   -11316451.439 5  -8606174.887 5
  17957203.822   -28558663.878 6 -22181049.815 6
  16561502.674   -38115348.016 7 -29353902.046 9
  18036204.322   -23948454.751 6 -18383945.780 7
 95  2 16 20 50 29.9860000  0  8 28 31 18 16  2 29 19 27
  19372930.744   -18521576.295 5  -4541953.680 5
  17620115.143   -24895466.800 6 -19300859.575 7
  16240414.440   -42063252.067 7 -32511148.247 8
  20332746.744    -2639462.125 4  -1815769.350 2
  19188102.494   -11436121.410 5  -8699424.097 5
  17964552.463   -28520048.239 6 -22150959.771 6
  16551570.096   -38167545.860 7 -29394575.684 9
  18016394.877   -24052547.606 6 -18465057.029 7
 95  2 16 20 50 59.9860000  0  8 28 31 18 16  2 29 19 27
  19373259.510   -18519852.897 5  -4540610.757 5
  17608545.916   -24956249.838 6 -19348222.947 7
  16239270.557   -42069260.865 7 -32515830.442 8
  20315358.557    -2730846.967 3  -1886978.289 2
  19165378.447   -11555537.954 5  -8792475.869 5
  17971956.963   -28481134.339 6 -22120637.321 6
  16541676.549   -38219545.835 7 -29435095.146 9
  17996600.838   -24156570.161 6 -18546113.505 7
 95  2 16 20 51 29.9860000  0  8 28 31 18 16  2 29 19 27
  19373682.322   -18517633.610 5  -4538881.438 5
  17597088.049   -25016468.222 6 -19395146.320 7
  16238226.877   -42074740.768 7 -32520100.518 8
  20298054.119    -2821782.590 3  -1957837.167 1
  19142694.869   -11674729.898 5  -8885352.596 5
  17979419.018   -28441925.370 6 -22090084.941 6
  16531813.057   -38271371.375 7 -29475478.683 9
  17976818.690   -24260526.344 6 -18627118.279 7
 95  2 16 20 51 59.9860000  0  8 28 31 18 16  2 29 19 27
  19374198.525   -18514921.005 5  -4536767.692 5
  17585732.916   -25076133.061 6 -19441638.368 7
  16237282.166   -42079708.313 7 -32523971.345 8
  20280836.010    -2912258.829 3  -2028338.113 1
  19120055.908   -11793691.443 5  -8978049.815 5
  17986939.744   -28402403.267 6 -22059288.564 6
  16521982.916   -38323035.606 7 -29515736.521 9
  17957050.791   -24364409.863 6 -18708066.433 7
 95  2 16 20 52 29.9860000  0  8 28 31 18 16  2 29 19 27
  19374810.736   -18511702.326 5  -4534259.610 5
  17574491.252   -25135214.142 6 -19487675.534 7
  16236434.104   -42084158.449 7 -32527439.002 8
  20263708.736    -3002261.780 3  -2098470.233 1
  19097470.682   -11912396.492 5  -9070547.154 5
  17994525.846   -28362533.502 6 -22028221.284 6
  16512184.135   -38374521.072 7 -29555855.065 9
  17937301.322   -24468191.753 6 -18788935.391 7
 95  2 16 20 52 59.9860000  0  8 28 31 18 16  2 29 19 27
  19375519.424   -18507975.622 5  -4531355.661 5
  17563362.791   -25193703.351 6 -19533251.512 7
  16235685.877   -42088098.454 7 -32530509.155 8
  20246675.018    -3091772.722 3  -2168218.947 2
  19074933.541   -12030834.657 5  -9162836.540 5
  18002185.400   -28322290.069 6 -21996862.834 6
  16502422.572   -38425814.360 7 -29595823.855 9
  17917572.221   -24571857.398 6 -18869713.777 7
 95  2 16 20 53 29.9860000  0  8 28 31 18 16  2 29 19 27
  19376321.471   -18503756.840 5  -4528068.267 5
  17552341.275   -25251602.102 6 -19578367.382 7
  16235025.908   -42091569.316 7 -32533213.736 8
  20229734.572    -3180797.834 3  -2237589.128 1
  19052441.635   -12149013.568 5  -9254923.916 6
  18009913.338   -28281671.631 6 -21965212.184 6
  16492696.705   -38476935.245 7 -29635658.308 9
  17897867.869   -24675412.433 6 -18950405.977 6
 95  2 16 20 53 59.9860000  0  8 28 31 18 16  2 29 19 27
  19377217.752   -18499052.311 5  -4524402.374 5
  17541435.557   -25308913.078 6 -19623025.248 7
  16234450.963   -42094576.900 7 -32535557.331 8
  20212880.260    -3269352.622 3  -2306592.769 1
  19030000.713   -12266933.680 5  -9346809.619 5
  18017711.408   -28240688.674 6 -21933277.479 6
  16483002.283   -38527883.894 7 -29675358.545 9
  17878180.932   -24778874.269 6 -19031025.540 6
 95  2 16 20 54 29.9860000  0  8 28 31 18 16  2 29 19 27
  19378206.525   -18493846.924 5  -4520346.198 5
  17530642.432   -25365628.871 6 -19667219.348 7
  16233975.182   -42097086.683 7 -32537513.026 8
  20196117.666    -3357434.445 3  -2375227.931 2
  19007611.088   -12384607.726 5  -9438503.587 5
  18025581.877   -28199335.429 6 -21901054.237 6
  16473341.400   -38578640.732 7 -29714909.320 9
  17858510.104   -24882244.813 6 -19111573.977 7
 95  2 16 20 54 59.9860000  0  8 28 31 18 16  2 29 19 27
  19379291.908   -18488158.596 5  -4515913.706 5
  17519959.916   -25421784.343 6 -19710976.834 7
  16233588.307   -42099122.416 7 -32539099.338 8
  20179444.635    -3445073.633 3  -2443518.181 2
  18985256.166   -12502077.180 5  -9530038.144 5
  18033515.635   -28157642.919 6 -21868566.652 6
  16463715.322   -38629223.966 7 -29754324.814 9
  17838847.252   -24985562.969 6 -19192081.606 6
 95  2 16 20 55 29.9860000  0  8 28 31 18 16  2 29 19 27
  19380469.260   -18481976.184 5  -4511096.231 5
  17509380.385   -25477357.494 6 -19754280.556 7
  16233292.510   -42100674.522 7 -32540308.791 8
  20162852.143    -3532270.281 3  -2511463.567 2
  18962941.354   -12619348.458 5  -9621418.271 5
  18041512.690   -28115620.071 6 -21835821.650 6
  16454125.994   -38679623.987 7 -29793597.544 9
  17819196.150   -25088831.658 6 -19272550.676 7
 95  2 16 20 55 59.9850000  0  8 28 31 18 16  2 29 19 27
  19381737.114   -18475306.928 5  -4505899.381 5
  17498914.653   -25532360.697 6 -19797140.161 7
  16233091.153   -42101731.090 7 -32541132.109 8
  20146344.661    -3619019.269 3  -2579060.142 2
  18940660.685   -12736434.791 5  -9712654.285 5
  18049565.630   -28073300.034 6 -21802845.078 6
  16444571.091   -38729839.325 7 -29832726.367 9
  17799552.255   -25192061.394 6 -19352989.401 7
 95  2 16 20 56 29.9850000  0  8 28 31 18 16  2 29 19 27
  19383098.192   -18468143.755 5  -4500317.676 5
  17488557.638   -25586789.034 6 -19839551.831 7
  16232982.286   -42102301.036 7 -32541576.244 8
  20129930.185    -3705288.059 3  -2646282.535 3
  18918419.599   -12853320.870 5  -9803734.276 6
  18057675.044   -28030685.471 6 -21769639.003 6
  16435049.653   -38779870.825 7 -29871711.939 9
  17779919.036   -25295241.197 6 -19433389.221 7
 95  2 16 20 56 59.9850000  0  8 28 31 18 16  2 29 19 27
  19384552.333   -18460494.280 5  -4494357.047 5
  17478314.028   -25640632.473 6 -19881507.729 7
  16232966.364   -42102399.993 7
  20113603.833    -3791068.164 3  -2713124.131 2
  18896218.474   -12969977.814 5  -9894635.700 6
  18065837.966   -27987791.350 6 -21736215.091 6
  16425560.888   -38829735.460 7 -29910567.487 9
  17760295.739   -25398352.384 6 -19513735.566 7
 95  2 16 20 57 29.9850000  0  8 28 31 18 16  2 29 19 27
  19386104.786   -18452359.893 5  -4488018.577 5
  17468178.192   -25693887.033 6 -19923004.768 7
  16233039.122   -42102010.768 7
  20097370.661    -3876340.515 3  -2779570.047 2
  18874063.622   -13086384.718 5  -9985342.290 6
  18074052.091   -27944618.236 6 -21702573.777 6
  16416102.349   -38879431.758 7 -29949291.863 9
  17740692.614   -25501370.763 6 -19594009.594 7
 95  2 16 20 57 59.9850000  0  8 28 31 18 16  2 29 19 27
  19387744.942   -18443746.434 5  -4481306.815 5
  17458153.630   -25746563.788 6 -19964051.569 7
  16233204.536   -42101127.505 7 -32540661.874 8
  20081245.607    -3961100.376 3  -2845616.639 2
  18851961.716   -13202533.556 6 -10075847.783 5
  18082321.685   -27901172.249 6 -21668719.833 6
  16406677.442   -38928963.271 7 -29987887.843 9
  17721108.583   -25604290.160 6 -19674206.493 7
 95  2 16 20 58 29.9850000  0  8 28 31 18 16  2 29 19 27
  19389474.325   -18434650.154 5  -4474218.823 5
  17448245.560   -25798646.977 6 -20004635.852 7
  16233469.232   -42099744.990 7 -32539584.619 8
  20065214.591    -4045351.311 3  -2911266.681 3
  18829912.888   -13318415.364 6 -10166145.204 6
  18090643.544   -27857433.563 6 -21634637.833 6
  16397284.146   -38978324.546 7 -30026351.171 9
  17701547.575   -25707087.026 6 -19754307.912 7
 95  2 16 20 58 59.9850000  0  8 28 31 18 16  2 29 19 27
  19391293.396   -18425068.091 5  -4466752.300 5
  17438444.442   -25850123.117 6 -20044747.120 7
  16233831.888   -42097841.667 7 -32538101.537 8
  20049274.192    -4129112.485 3  -2976535.078 1
  18807907.044   -13434038.730 5 -10256241.236 6
  18099023.927   -27813388.415 6 -21600317.023 6
  16387929.575   -39027488.465 7 -30064660.709 9
  17682009.192   -25809756.280 6 -19834309.894 7
 95  2 16 20 59 29.9850000  0  8 28 31 18 16  2 29 19 27
  19393211.122   -18415004.978 5  -4458910.938 5
  17428768.333   -25900986.682 6 -20084381.047 7
  16234293.372   -42095421.623 7 -32536215.820 8
  20033429.974    -4212385.937 3  -3041423.455 2
  18785953.653   -13549416.785 6 -10346146.113 6
  18107467.099   -27769032.728 6 -21565754.220 6
  16378613.974   -39076447.560 7 -30102810.653 9
  17662491.310   -25912320.266 6 -19914229.852 7
 95  2 16 20 59 59.9850000  0  8 28 31 18 16  2 29 19 27
  19395217.442   -18404463.225 5  -4450696.596 5
  17419208.036   -25951221.735 6 -20123525.224 7
  16234847.505   -42092498.487 7 -32533938.081 8
  20017676.005    -4295175.284 3  -3105934.601 3
  18764045.060   -13664547.075 6 -10435857.918 6
  18115966.724   -27724361.209 6 -21530945.321 6
  16369334.232   -39125211.219 7 -30140808.309 9
  17642990.442   -26014795.019 6 -19994080.270 7
 95  2 16 21  0 29.9850000  0  8 28 31 18 16  2 29 19 27
  19397312.661   -18393449.030 5  -4442114.127 5
  17409766.325   -26000834.267 6 -20162184.313 7
  16235498.567   -42089090.647 7 -32531282.646 8
  20002012.310    -4377489.391 3  -3170075.440 1
  18742183.849   -13779435.013 6 -10525380.885 6
  18124530.560   -27679362.878 6 -21495881.776 6
  16360090.380   -39173788.294 7 -30178660.577 9
  17623505.739   -26117192.030 6 -20073870.112 7
 95  2 16 21  0 59.9850000  0  8 28 31 18 16  2 29 19 27
  19399500.802   -18381959.489 5  -4433161.261 5
  17400445.052   -26049824.942 6 -20200358.841 7
  16236237.075   -42085203.995 7 -32528254.123 8
  19986437.982    -4459320.291 4  -3233839.735 2
  18720368.075   -13894074.700 6 -10614710.395 6
  18133157.817   -27634026.672 6 -21460554.929 6
  16350879.599   -39222187.333 7 -30216374.116 9
  17604032.841   -26219524.232 6 -20153609.451 7
 95  2 16 21  1 29.9850000  0  8 28 31 18 16  2 29 19 27
  19401773.669   -18370013.369 5  -4423852.612 5
  17391237.153   -26098227.217 6
  16237065.239   -42080852.836 7 -32524863.638 8
  19970962.450    -4540669.845 4  -3297228.986 1
  18698594.435   -14008486.600 6 -10703862.435 6
  18141845.817   -27588363.195 6 -21424973.085 6
  16341694.771   -39270454.238 7
  17584568.810   -26321806.762 6 -20233310.083 7
 95  2 16 21  1 59.9850000  0  8 28 31 18 16  2 29 19 27
  19404137.567   -18357592.944 5  -4414174.342 5
  17382131.419   -26146054.604 6 -20275342.937 7
  16237985.966   -42076017.925 7 -32521096.206 8
  19955574.364    -4621523.936 4  -3360232.140 2
  18676867.130   -14122659.151 6 -10792827.944 6
  18150600.880   -27542363.660 6 -21389129.374 6
  16332538.747   -39318569.775 7 -30291477.321 9
  17565120.739   -26424005.415 6 -20312945.362 7
 95  2 16 21  2 29.9850000  0  8 28 31 18 16  2 29 19 27
  19406587.693   -18344696.189 5  -4404124.928 5
  17373137.997   -26193325.458 6 -20312177.344 7
  16238997.763   -42070690.227 7 -32516944.778 9
  19940282.505    -4701884.179 4  -3422850.474 2
  18655184.153   -14236603.688 6 -10881615.816 6
  18159416.630   -27496041.272 6 -21353034.097 6
  16323414.724   -39366513.393 7 -30328835.986 9
  17545691.278   -26526107.617 6 -20392505.485 7
 95  2 16 21  2 59.9850000  0  8 28 31 18 16  2 29 19 27
  19409126.263   -18331337.248 5  -4393715.360 5
  17364245.208   -26240051.565 6 -20348587.267 7
  16240104.599   -42064877.375 7 -32512415.311 8
  19925085.075    -4781752.398 5  -3485085.405 3
  18633541.521   -14350341.659 6 -10970242.709 5
  18168282.911   -27449430.842 6 -21316714.362 6
  16314326.114   -39414287.096 7 -30366062.250 9
  17526279.997   -26628119.562 6 -20471995.271 7
 95  2 16 21  3 29.9850000  0  8 28 31 18 16  2 29 19 27
  19411766.513   -18317509.020 5  -4382940.109 5
  17355457.224   -26286228.471 6 -20384569.242 7
  16241307.146   -42058564.174 7 -32507495.956 9
  19909981.927    -4861120.272 4  -3546930.481 3
  18611936.208   -14463864.669 6 -11058702.110 6
  18177208.169   -27402551.131 6 -21280184.795 6
  16305272.005   -39461860.618 7 -30403132.534 9
  17506888.911   -26730020.382 6 -20551398.462 7
 95  2 16 21  3 59.9850000  0  8 28 31 18 16  2 29 19 27
  19414480.927   -18303223.201 5  -4371808.310 5
  17346775.489   -26331854.283 6 -20420121.792 7
  16242598.489   -42051773.806 7 -32502204.788 8
  19894974.036    -4940002.651 4  -3608397.239 2
  18590378.497   -14577168.486 6 -11146990.715 6
  18186173.208   -27355437.273 6 -21243472.783 6
  16296258.560   -39509228.481 7 -30440042.558 9
  17487515.685   -26831831.588 6 -20630731.835 7
 95  2 16 21  4 29.9850000  0  8 28 31 18 16  2 29 19 27
  19417293.161   -18288454.785 5  -4360300.445 5
  17338213.091   -26376862.337 6 -20455192.973 7
  16243985.747   -42044483.762 7 -32496524.259 8
  19880052.536    -5018378.961 4  -3669469.649 1
  18568867.810   -14690200.049 6 -11235067.162 6
  18195190.341   -27308051.438 6 -21206548.851 6
  16287284.669   -39556373.090 7 -30476778.613 9
  17468161.755   -26933526.556 6 -20709974.624 7
 95  2 16 21  4 59.9850000  0  8 28 31 18 16  2 29 19 27
  19420187.778   -18273221.777 5  -4348430.578 5
  17329762.724   -26421249.217 6 -20489780.118 7
  16245462.599   -42036717.656 7 -32490472.771 8
  19865230.482    -5096263.071 5  -3730158.571 2
  18547410.232   -14802958.563 6 -11322930.865 6
  18204257.208   -27260395.670 6 -21169414.565 6
  16278352.146   -39603327.590 7 -30513366.533 9
  17448829.771   -27035127.036 6 -20789143.787 7
 95  2 16 21  5 29.9850000  0  8 28 31 18 16  2 29 19 27
  19423177.833   -18257534.937 5  -4336207.073 5
  17321434.458   -26465018.931 6 -20523886.353 7
  16247030.349   -42028485.916 7 -32484058.464 8
  19850497.489    -5173679.186 4  -3790482.788 2
  18526005.130   -14915435.419 6 -11410575.090 6
  18213377.716   -27212465.292 6 -21132066.289 6
  16269449.505   -39650109.244 7 -30549819.769 9
  17429510.646   -27136648.878 6 -20868251.680 7
 95  2 16 21  5 59.9850000  0  8 28 31 18 16  2 29 19 27
  19426244.732   -18241389.166 5  -4323625.955 5
  17313228.317   -26508150.913 6 -20557495.659 7
  16248685.122   -42019791.933 7 -32477283.959 8
  19835860.536    -5250622.270 4  -3850438.416 3
  18504658.950   -15027624.577 6 -11497995.132 6
  18222555.021   -27164234.216 6 -21094483.725 6
  16260577.919   -39696718.889 7 -30586138.969 9
  17410206.036   -27238088.308 6 -20947295.355 7
 95  2 16 21  6 29.9850000  0  8 28 31 18 16  2 29 19 27
  19429408.341   -18224787.504 5  -4310689.627 5
  17305141.810   -26550648.467 6 -20590610.596 7
  16250428.067   -42010631.692 7 -32470146.129 8
  19821309.083    -5327086.621 3  -3910020.958 2
  18483361.989   -15139536.686 6 -11585199.303 6
  18231799.255   -27115680.741 6 -21056649.943 6
  16251743.724   -39743153.244 7 -30622321.574 9
  17390921.185   -27339434.503 6 -21026266.375 7
 95  2 16 21  6 59.9850000  0  8 28 31 18 16  2 29 19 27
  19432652.583   -18207730.116 5  -4297398.172 5
  17297171.724   -26592535.543 6 -20623249.836 7
  16252262.247   -42000994.090 7 -32462636.336 8
  19806853.896    -5403050.330 4  -3969213.424 3
  18462115.505   -15251198.633 6 -11672208.544 6
  18241092.724   -27066814.880 6 -21018572.714 6
  16242944.966   -39789390.853 7 -30658350.868 9
  17371652.825   -27440693.090 6 -21105169.128 7
 95  2 16 21  7 29.9850000  0  8 28 31 18 16  2 29 19 27
  19435987.169   -18190220.793 5  -4283754.566 5
  17289313.513   -26633826.447 6 -20655424.533 7
  16254187.435   -41990871.240 7 -32454748.420 8
  19792498.216    -5478510.051 4  -4028013.159 2
  18440912.661   -15362625.529 6 -11759034.617 6
  18250451.700   -27017646.697 6 -20980259.935 6
  16234185.474   -39835421.994 7 -30694219.285 9
  17352398.732   -27541861.659 6 -21184001.737 7
 95  2 16 21  7 59.9850000  0  8 28 31 18 16  2 29 19 27
  19439408.396   -18172255.346 5  -4269755.551 5
  17281569.161   -26674516.092 6 -20687130.719 7
  16256207.857   -41980258.969 7 -32446479.143 8
  19778238.325    -5553435.826 4  -4086396.849 3
  18419751.286   -15473821.333 6 -11845680.611 6
  18259867.255   -26968180.384 6 -20941714.851 6
  16225465.536   -39881250.871 7 -30729930.085 9
  17333169.169   -27642925.695 6 -21262752.896 7
 95  2 16 21  8 29.9850000  0  8 28 31 18 16  2 29 19 27
  19442906.177   -18153840.039 5  -4255406.015 5
  17273941.630   -26714613.354 6 -20718375.301 7
  16258321.122   -41969154.496 7 -32437826.333 8
  19764082.638    -5627824.637 4  -4144362.128 3
  18398632.497   -15584789.772 6 -11932149.446 6
  18269333.177   -26918430.423 6 -20902948.742 6
  16216779.255   -39926887.229 7 -30765490.870 9
  17313953.646   -27743897.164 6 -21341431.919 7
 95  2 16 21  8 59.9850000  0  8 28 31 18 16  2 29 19 27
  19446490.091   -18134973.778 5  -4240705.053 5
  17266425.177   -26754113.215 6 -20749154.388 7
  16260527.607   -41957564.607 7 -32428795.277 8
  19750028.833    -5701684.562 3  -4201915.283 2
  18377562.685   -15695520.980 6 -12018433.425 6
  18278848.966   -26868413.811 6 -20863974.848 5
  16208131.528   -39972333.890 7 -30800903.844 9
  17294757.700   -27844775.089 6 -21420038.050 7
 95  2 16 21  9 29.9850000  0  8 28 31 18 16  2 29 19 27
  19450174.825   -18115660.015 5  -4225655.397 5
  17259023.450   -26793007.539 6 -20779461.627 7
  16262820.278   -41945505.430 7 -32419398.544 8
  19736067.005    -5775026.331 4  -4259064.663 2
  18356536.138   -15806006.043 6 -12104525.589 6
  18288420.786   -26818123.551 6 -20824787.736 5
  16199514.669   -40017610.591 7 -30836184.379 9
  17275580.364   -27945554.184 6 -21498567.167 7
 95  2 16 21  9 59.9850000  0  8 28 31 18 16  2 29 19 27
  19453929.896   -18095907.466 5  -4210263.821 5
  17251733.989   -26831300.733 6 -20809300.468 7
  16265203.560   -41932992.611 7 -32409648.318 8
  19722207.958    -5847869.029 4  -4315825.179 3
  18335561.107   -15916238.504 6 -12190420.929 6
  18298040.872   -26767562.434 6 -20785389.549 6
  16190930.974   -40062729.094 7 -30871341.647 9
  17256419.997   -28046240.948 6 -21577024.344 7
 95  2 16 21 10 29.9850000  0  8 28 31 18 16  2 29 19 27
  19457774.372   -18075716.123 5  -4194530.341 5
  17244561.521   -26869000.362 6 -20838676.776 7
  16267671.841   -41920018.640 7 -32399538.759 8
  19708440.653    -5920229.980 5  -4372210.303 4
  18314635.622   -16026204.594 6 -12276108.709 6
  18307712.771   -26716731.058 6 -20745780.778 5
  16182379.341   -40107667.571 7 -30906358.633 9
  17237275.794   -28146838.517 6 -21655412.021 7
 95  2 16 21 10 59.9850000  0  8 28 31 18 16  2 29 19 27
  19461701.411   -18055083.521 5  -4178453.023 5
  17237497.521   -26906113.677 6 -20867596.219 7
  16270227.427   -41906584.526 7 -32389070.641 8
  19694760.669    -5992107.691 5  -4428218.886 3
  18293760.036   -16135898.466 6 -12361584.374 6
  18317439.192   -26665624.459 5 -20705957.548 6
  16173861.560   -40152423.268 7 -30941233.193 9
  17218153.427   -28247327.791 6 -21733715.316 7
 95  2 16 21 11 29.9850000  0  8 28 31 18 16  2 29 19 27
  19465708.333   -18034018.637 5  -4162038.847 5
  17230544.638   -26942652.211 6 -20896067.776 7
  16272871.708   -41892689.411 7 -32378243.314 8
  19681172.544    -6063508.329 5  -4483855.721 4
  18272934.786   -16245331.677 6 -12446856.917 6
  18327215.271   -26614251.686 5 -20665926.919 5
  16165379.388   -40197000.786 7 -30975968.911 9
  17199052.036   -28347713.782 7 -21811938.126 7
 95  2 16 21 11 59.9850000  0  8 28 31 18 16  2 29 19 27
  19469798.825   -18012516.734 5  -4145284.141 5
  17223703.794   -26978611.901 6 -20924088.285 7
  16275606.083   -41878318.753 7 -32367045.424 8
  19667675.403    -6134415.007 4  -4539107.640 3
  18252162.825   -16354492.069 6 -12531916.889 6
  18337040.489   -26562624.247 5 -20625697.848 5
  16156931.693   -40241381.101 7 -31010550.977 9
  17179968.935   -28447993.118 6 -21890077.834 7
 95  2 16 21 12 29.9850000  0  8 28 31 18 16  2 29 19 27
  19473978.263   -17990587.533 5  -4128196.470 5
  17216969.021   -27013992.654 6 -20951657.678 7
  16278430.317   -41863474.745 7 -32355478.694 8
  19654279.169    -6204820.775 3  -4593969.246 3
  18231437.724   -16463409.514 6 -12616787.543 6
  18346912.333   -26510750.251 5 -20585276.665 5
  16148527.857   -40285554.578 7 -31044971.866 9
  17160904.810   -28548174.523 7 -21968141.225 7
 95  2 16 21 12 59.9850000  0  8 28 31 18 16  2 29 19 27
  19478229.075   -17968235.949 5  -4110779.647 5
  17210348.192   -27048782.839 6 -20978766.880 7
  16281344.489   -41848166.017 7 -32343549.843 8
  19640979.427    -6274723.519 3  -4648438.857 3
  18210754.919   -16572101.308 6 -12701482.373 6
  18356830.794   -26458627.385 6 -20544661.548 5
  16140160.513   -40329526.589 7 -31079235.771 9
  17141858.950   -28648258.514 7 -22046128.710 7
 95  2 16 21 13 29.9850000  0  8 28 31 18 16  2 29 19 27
  19482565.833   -17945450.714 5  -4093024.929 5
  17203847.278   -27082954.747 6 -21005394.312 7
  16284347.888   -41832379.183 7 -32331248.435 8
  19627778.794    -6344104.687 4  -4702502.081 1
  18190115.357   -16680554.219 6 -12785991.067 6
  18366799.755   -26406235.239 6 -20503836.597 5
  16131835.771   -40373269.101 7 -31113320.839 9
  17122834.278   -28748238.940 7 -22124035.506 7
 95  2 16 21 13 59.9840000  0  8 28 31 18 16  2 29 19 27
  19486981.742   -17922230.805 5  -4074931.491 5
  17197464.649   -27116494.801 6 -21031529.397 7
  16287442.375   -41816112.143 7 -32318572.858 8
  19614675.703    -6412955.815 3  -4756152.297 2
  18169525.414   -16788755.354 6 -12870303.562 6
  18376823.313   -26353561.301 5 -20462792.077 5
  16123557.742   -40416774.831 7 -31147221.413 9
  17103826.859   -28848117.563 6 -22201862.963 7
 95  2 16 21 14 29.9840000  0  8 28 31 18 16  2 29 19 27
  19491486.820   -17898590.380 5  -4056510.415 5
  17191202.797   -27149413.532 6 -21057180.330 7
  16290625.406   -41799390.940 7 -32305543.375 8
  19601670.688    -6481309.219 4  -4809414.652 3
  18148979.945   -16896727.568 6 -12954437.693 6
  18386898.664   -26300611.950 5 -20421532.958 5
  16115319.844   -40460063.148 7 -31180952.566 9
  17084836.539   -28947909.622 7 -22279622.972 7
 95  2 16 21 14 59.9840000  0  8 28 31 18 16  2 29 19 27
  19496058.883   -17874516.126 5  -4037751.274 4
  17185058.828   -27181697.911 6 -21082336.971 7
  16293894.164   -41782214.069 7 -32292158.823 8
  19588759.055    -6549154.876 4  -4862281.380 3
  18128486.656   -17004421.934 6 -13038355.310 6
  18397026.375   -26247391.006 6 -20380062.207 5
  16107121.695   -40503138.160 7 -31214517.512 9
  17065869.617   -29047588.843 7 -22357295.060 8
 95  2 16 21 15 29.9840000  0  8 28 31 18 16  2 29 19 27
  19500722.172   -17850016.641 5  -4018660.768 5
  17179031.328   -27213358.669 6 -21107007.668 7
  16297248.250   -41764589.292 7 -32278425.265 8
  19575938.414    -6616505.708 4  -4914762.525 2
  18108045.328   -17111837.361 6 -13122055.570 6
  18407203.688   -26193907.526 5 -20338386.879 5
  16098963.320   -40546019.615 7 -31247931.633 9
  17046921.242   -29147158.792 7 -22434882.001 7
 95  2 16 21 15 59.9840000  0  8 28 31 18 16  2 29 19 27
  19505462.774   -17825103.952 5  -3999248.316 5
  17173123.977   -27244408.628 6 -21131202.415 7
  16300685.414   -41746527.822 7 -32264351.430 8
  19563213.828    -6683380.081 5  -4966872.396 2
  18087655.055   -17218986.970 6 -13205548.716 6
  18417425.789   -26140190.145 5 -20296529.293 5
  16090834.016   -40588731.609 7 -31281213.712 9
  17027994.453   -29246622.772 7 -22512386.369 7
 95  2 16 21 16 29.9840000  0  8 28 31 18 16  2 29 19 27
  19510289.094   -17799771.902 5  -3979509.086 5
  17167332.914   -27274844.151 6 -21154918.399 7
  16304206.609   -41728020.959 7 -32249930.527 8
  19550583.266    -6749762.734 4  -5018599.107 3
  18067319.086   -17325864.406 6 -13288829.764 6
  18427691.844   -26086247.060 5 -20254495.836 5
  16082737.938   -40631279.111 7 -31314367.604 9
  17009090.352   -29345956.990 7 -22589789.630 8
 95  2 16 21 16 59.9840000  0  8 28 31 18 16  2 29 19 27
  19515183.219   -17774011.847 5  -3959436.347 5
  17161659.688   -27304660.242 6 -21178151.701 7
  16307819.867   -41709041.665 7 -32235141.499 8
  19538049.156    -6815638.415 4  -5069930.776 3
  18047030.953   -17432468.896 6 -13371898.132 6
  18438003.063   -26032066.930 6 -20212277.663 5
  16074669.867   -40673667.055 7 -31347397.173 9
  16990213.227   -29445160.484 7 -22667091.028 7
 95  2 16 21 17 29.9840000  0  8 28 31 18 16  2 29 19 27
  19520171.117   -17747832.682 5  -3939037.039 5
  17156095.594   -27333874.973 6 -21200916.407 7
  16311519.117   -41689592.591 7 -32219986.410 8
  19525608.547    -6881000.381 4  -5120862.165 3
  18026792.281   -17538826.908 6 -13454774.439 6
  18448359.117   -25977648.497 5 -20169873.794 5
  16066639.328   -40715886.993 7 -31380295.821 9
  16971358.719   -29544247.910 7 -22744301.981 7
 95  2 16 21 17 59.9840000  0  8 28 31 18 16  2 29 19 27
  19525232.625   -17721231.694 5  -3918309.034 5
  17150654.805   -27362483.823 6 -21223209.014 7
  16315312.742   -41669663.716 7 -32204457.449 8
  19513275.617    -6945827.749 4  -5171376.979 2
  18006601.680   -17644930.409 6 -13537452.426 6
  18458758.961   -25922996.879 5 -20127288.231 5
  16058638.688   -40757914.754 7 -31413044.728 9
  16952525.063   -29643215.450 7 -22821419.523 8
 95  2 16 21 18 29.9840000  0  8 28 31 18 16  2 29 19 27
  19530367.664   -17694229.159 5  -3897268.155 4
  17145324.383   -27390507.159 6 -21245045.367 7
  16319190.289   -41649281.962 7 -32188575.600 8
  19501028.391    -7010132.228 4  -5221484.374 2
  17986456.586   -17750795.757 6 -13619944.843 6
  18469202.266   -25868113.265 5 -20084521.883 5
  16050675.164   -40799766.925 7 -31445656.796 9
  16933709.125   -29742087.984 7 -22898463.029 8
 95  2 16 21 18 59.9840000  0  8 28 31 18 16  2 29 19 27
  19535585.594   -17666801.161 4  -3875895.751 3
  17140104.844   -27417918.118 6 -21266404.556 7
  16323158.289   -41628432.234 7 -32172329.091 8
  19488903.375    -7073889.730 5  -5271165.535 3
  17966358.883   -17856399.295 6 -13702233.245 6
  18479698.172   -25812956.253 5 -20041542.519 5
  16042753.508   -40841401.736 7 -31478099.502 9
  16914918.734   -29840838.700 7 -22975411.610 8
 95  2 16 21 19 29.9840000  0  8 28 31 18 16  2 29 19 27
  19540885.703   -17638956.803 4  -3854198.890 4
  17135005.141   -27444722.355 6 -21287290.971 7
  16327213.016   -41607130.226 7 -32155730.158 8
  19476876.594    -7137104.985 5  -5320424.180 2
  17946313.930   -17961729.786 6 -13784308.872 6
  18490244.883   -25757535.727 5 -19998357.800 5
  16034873.399   -40882808.633 7 -31510364.612 9
  16896150.820   -29939456.850 7 -23052256.897 8
 95  2 16 21 19 59.9840000  0  8 28 31 18 16  2 29 19 27
  19546256.453   -17610729.472 4  -3832203.598 3
  17130014.102   -27470933.630 6 -21307715.348 7
  16331346.016   -41585408.439 7 -32138804.127 8
  19464942.211    -7199822.068 4  -5369294.616 3
  17926321.047   -18066802.804 6 -13866183.893 6
  18500833.117   -25701889.317 5 -19954997.100 5
  16027030.625   -40924027.553 7 -31542483.249 9
  16877407.305   -30037964.371 7 -23129015.979 7
 95  2 16 21 20 29.9840000  0  8 28 31 18 16  2 29 19 27
  19551706.109   -17582105.392 5  -3809899.157 3
  17125141.508   -27496544.876 6 -21327672.158 7
  16335559.328   -41563264.353 7 -32121549.035 8
  19453102.617    -7262032.772 4  -5417770.513 2
  17906376.852   -18171609.654 6 -13947851.505 6
  18511465.805   -25646010.199 5 -19911455.021 5
  16019224.945   -40965049.241 7 -31574448.199 9
  16858686.625   -30136338.992 7 -23205671.498 8
 95  2 16 21 20 59.9840000  0  8 28 31 18 16  2 29 19 27
  19557227.906   -17553085.867 5  -3787286.551 3
  17120383.313   -27521563.442 6 -21347167.160 7
  16339855.774   -41540685.693 7 -32103955.310 8
  19441357.547    -7323734.390 4  -5465849.704 3
  17886483.500   -18276144.247 6 -14029306.955 6
  18522139.906   -25589918.562 5 -19867747.372 5
  16011459.102   -41005852.894 7 -31606243.251 9
  16839991.203   -30234583.678 7 -23282225.772 8
 95  2 16 21 21 29.9840000  0  8 28 31 18 16  2 29 19 27
  19562824.539   -17523669.491 5  -3764364.753 4
  17115732.570   -27545992.115 6 -21366202.493 7
  16344238.133   -41517663.928 7 -32086016.306 8
  19429715.016    -7384932.939 4  -5513536.892 3
  17866644.695   -18380397.764 6 -14110543.395 6
  18532853.219   -25533626.510 5 -19823883.576 5
  16003736.586   -41046436.094 7 -31637866.526 9
  16821316.969   -30332713.014 7 -23358690.155 8
 95  2 16 21 21 59.9840000  0  8 28 31 18 16  2 29 19 27
  19568496.453   -17493864.288 4  -3741139.943 4
  17111198.899   -27569831.683 6 -21384778.785 7
  16348700.977   -41494210.040 7 -32067740.581 8
  19418162.070    -7445631.979 4  -5560834.849 4
  17846856.555   -18484399.819 6 -14191583.876 6
  18543600.195   -25477137.081 5 -19779865.958 5
  15996054.586   -41086796.914 7 -31669316.517 9
  16802661.742   -30430748.252 7 -23435081.217 8
 95  2 16 21 22 29.9840000  0  8 28 31 18 16  2 29 19 27
  19574246.094   -17463670.320 4  -3717612.201 4
  17106773.086   -27593087.828 6 -21402900.455 7
  16353246.211   -41470318.215 7 -32049123.607 8
  19406713.734    -7505822.344 5  -5607736.453 3
  17827110.445   -18588160.060 6 -14272435.938 6
  18554391.711   -25420432.234 5 -19735680.476 4
  15988417.063   -41126932.034 7 -31700590.634 9
  16784023.750   -30528694.351 7 -23511402.814 8
 95  2 16 21 22 59.9840000  0  8 28 31 18 16  2 29 19 27
  19580067.117   -17433096.583 4  -3693788.538 4
  17102457.578   -27615758.967 6 -21420566.278 7
  16357876.320   -41445993.732 7 -32030169.500 8
  19395350.899    -7565510.531 4  -5654246.715 2
  17807410.570   -18691671.161 6 -14353093.873 6
  18565228.524   -25363501.508 5 -19691318.980 5
  15980821.961   -41166850.448 7 -31731695.902 9
  16765398.891   -30626568.460 7 -23587668.318 8
 95  2 16 21 23 29.9840000  0  8 28 31 18 16  2 29 19 27
  19585957.336   -17402146.141 4  -3669671.335 4
  17098255.609   -27637833.429 6 -21437767.147 7
  16362583.508   -41421248.950 7 -32010887.884 8
  19384085.242    -7624701.408 4  -5700369.489 2
  17787763.492   -18794934.401 6 -14433558.665 6
  18576108.805   -25306331.795 5 -19646771.279 5
  15973265.594   -41206565.829 7 -31762642.946 9
  16746788.844   -30724358.693 7 -23663868.460 8
 95  2 16 21 23 59.9840000  0  8 28 31 18 16  2 29 19 27
  19591920.195   -17370822.703 5  -3645263.501 4
  17094169.859   -27659305.620 6 -21454498.714 7
  16367372.906   -41396083.504 7 -31991278.479 8
  19372917.024    -7683393.238 4  -5746103.376 3
  17768158.469   -18897948.624 6 -14513829.425 6
  18587029.899   -25248923.888 5 -19602037.978 5
  15965746.633   -41246075.958 7 -31793430.055 9
  16728201.688   -30822048.978 7 -23739990.722 8
 95  2 16 21 24 29.9840000  0  8 28 31 18 16  2 29 19 27
  19597940.242   -17339111.431 4  -3620553.430 4
  17090198.375   -27680175.090 6 -21470760.623 7
  16372244.297   -41370480.766 7 -31971328.336 8
  19361847.078    -7741574.098 3  -5791439.126 2
  17748611.500   -19000673.492 6 -14593874.716 6
  18598002.766   -25191273.927 5 -19557116.054 5
  15958265.859   -41285383.408 7 -31824059.231 9
  16709634.172   -30919614.383 7 -23816015.670 8
 95  2 16 21 24 59.9840000  0  8 28 31 18 16  2 29 19 27
  19604051.961   -17307031.567 4  -3595556.196 4
  17086339.820   -27700452.860 6 -21486561.471 7
  16377198.633   -41344459.938 7 -31951052.392 8
  19350869.063    -7799266.199 4  -5836394.016 4
  17729115.820   -19103125.721 6 -14673707.552 6
  18609006.961   -25133422.521 5 -19512037.173 3
  15950823.727   -41324497.479 7 -31854537.724 9
  16691090.203   -31017064.093 7 -23891950.469 8
 95  2 16 21 25 29.9840000  0  8 28 31 18 16  2 29 19 27
  19610229.742   -17274594.196 5  -3570280.331 4
  17082592.875   -27720151.685 6 -21501911.185 7
  16382229.055   -41318014.837 7 -31930445.859 8
  19339986.508    -7856478.638 4  -5880975.169 2
  17709664.000   -19205331.681 6 -14753348.503 6
  18620053.180   -25075391.874 5 -19466818.627 4
  15943415.594   -41363420.477 7 -31884867.327 9
  16672568.031   -31114392.341 7 -23967790.625 8
 95  2 16 21 25 59.9840000  0  8 28 31 18 16  2 29 19 27
  19616466.133   -17241767.152 5  -3544700.840 4
  17078957.820   -27739250.093 6 -21516793.035 7
  16387349.234   -41291108.860 7 -31909480.193 8
  19329193.953    -7913175.171 4  -5925154.290 3
  17690266.164   -19307265.723 6 -14832777.584 6
  18631132.328   -25017165.220 5 -19421447.325 4
  15936050.984   -41402120.355 7 -31915023.075 9
  16654078.836   -31211565.178 7 -24043509.686 8
 95  2 16 21 26 29.9840000  0  8 28 31 18 16  2 29 19 27
  19622782.711   -17208573.541 5  -3518835.716 4
  17075433.891   -27757769.909 6 -21531224.041 7
  16392552.758   -41263772.244 7 -31888178.969 8
  19318500.570    -7969370.535 4  -5968942.892 2
  17670914.484   -19408958.680 6 -14912018.791 7
  18642246.078   -24958769.055 5 -19375943.951 5
  15928721.102   -41440636.115 7 -31945035.350 9
  16635613.234   -31308600.904 7 -24119121.906 8
 95  2 16 21 26 59.9840000  0  8 28 31 18 16  2 29 19 27
  19629171.359   -17175020.370 5  -3492690.412 5
  17072022.602   -27775702.186 6 -21545197.223 7
  16397834.508   -41236012.584 7 -31866548.099 8
  19307894.609    -8025070.681 4  -6012345.618 2
  17651607.703   -19510429.393 6 -14991086.828 7
  18653389.711   -24900199.694 5 -19330305.633 5
  15921429.063   -41478958.694 7 -31974897.097 9
  16617173.219   -31405500.464 7 -24194628.023 8
 95  2 16 21 27 29.9840000  0  8 28 31 18 16  2 29 19 27
  19635631.219   -17141088.917 5  -3466250.349 4
  17068721.203   -27793037.876 6 -21558705.524 7
  16403199.281   -41207824.929 7 -31844583.727 8
  19297397.211    -8080257.438 4  -6055348.311 2
  17632344.406   -19611651.406 6 -15069961.076 6
  18664575.367   -24841429.292 5 -19284510.649 5
  15914178.578   -41517073.157 7 -32004596.671 9
  16598762.727   -31502246.402 7 -24270014.436 8
 95  2 16 21 27 59.9840000  0  8 28 31 18 16  2 29 19 27
  19642154.227   -17106803.947 4  -3439534.798 5
  17065533.414   -27809796.945 6 -21571764.518 7
  16408635.578   -41179253.717 7 -31822320.486 7
  19286984.031    -8134955.973 3  -6097970.544 2
  17613129.711   -19712636.981 6 -15148651.089 6
  18675796.969   -24782478.236 5 -19238574.910 4
  15906956.719   -41555012.429 7 -32034159.733 9
  16580374.117   -31598869.677 7 -24345305.265 8
 95  2 16 21 28 29.9840000  0  8 28 31 18 16  2 29 19 27
  19648742.524   -17072167.835 4  -3412545.648 5
  17062454.414   -27825975.081 6 -21584370.838 7
  16414144.141   -41150298.091 7 -31799757.693 7
  19276676.359    -8189162.496 4  -6140209.413 2
  17593958.500   -19813384.406 6 -15227155.526 6
  18687048.649   -24723333.200 5 -19192487.997 3
  15899773.000   -41592766.270 7 -32063578.307 9
  16562009.016   -31695380.873 7 -24420508.768 8
 95  2 16 21 28 59.9840000  0  8 28 31 18 16  2 29 19 27
  19655400.649   -17037172.628 4  -3385276.679 5
  17059485.469   -27841573.154 6 -21596525.157 7
  16419732.109   -41120931.542 7 -31776874.710 8
  19266454.430    -8242866.851 4  -6182056.971 2
  17574832.047   -19913882.168 6 -15305465.426 7
  18698344.859   -24663975.781 5 -19146235.607 5
  15892630.938   -41630300.936 7 -32092826.093 9
  16543668.242   -31791775.550 7 -24495621.481 8
 95  2 16 21 29 29.9840000  0  8 28 31 18 16  2 29 19 27
  19662133.094   -17001812.807 4  -3357723.605 5
  17056630.219   -27856594.742 6 -21608230.272 7
  16425404.227   -41091135.784 7 -31753657.270 8
  19256334.555    -8296058.960 4  -6223505.371 2
  17555759.664   -20014121.219 6 -15383573.723 7
  18709679.469   -24604405.935 5 -19099817.688 5
  15885530.141   -41667613.001 7 -32121900.422 9
  16525346.055   -31888047.489 7 -24570638.549 8
 95  2 16 21 29 59.9840000  0  8 28 31 18 16  2 29 19 27
  19668930.641   -16966097.957 3  -3329893.880 5
  17053878.250   -27871032.039 6 -21619480.105 7
  16431155.234   -41060908.450 7 -31730103.544 8
  19246308.617    -8348744.175 5  -6264558.820 1
  17536730.344   -20114103.123 6 -15461481.659 7
  18721057.406   -24544625.755 5 -19053235.872 4
  15878469.852   -41704714.925 7 -32150811.013 9
  16507050.672   -31984198.082 7 -24645561.067 8
 95  2 16 21 30 29.9840000  0  8 28 31 18 16  2 29 19 27
  19675790.719   -16930036.924 3  -3301794.398 4
  17051242.852   -27884881.564 6 -21630271.928 7
  16436990.047   -41030247.408 7 -31706211.862 8
  19236376.774    -8400930.530 4  -6305223.531 2
  17517755.445   -20213835.063 6 -15539194.790 7
  18732465.875   -24484643.831 5 -19006496.885 5
  15871450.078   -41741603.208 7 -32179555.126 9
  16488775.320   -32080225.769 7 -24720387.813 8
 95  2 16 21 30 59.9840000  0  8 28 31 18 16  2 29 19 27
  19682719.852   -16893628.393 3  -3273424.146 4
  17048723.641   -27898133.487 6 -21640598.096 7
  16442905.250   -40999165.067 7 -31681991.902 7
  19226538.102    -8452621.924 5  -6345502.523 1
  17498824.922   -20313302.780 6 -15616702.061 7
  18743923.938   -24424466.780 5 -18959605.819 4
  15864471.352   -41778278.368 7 -32208133.174 9
  16470529.797   -32176116.111 7 -24795107.531 8
 95  2 16 21 31 29.9840000  0  8 28 31 18 16  2 29 19 27
  19689722.664   -16856855.369 3  -3244769.870 2
  17046319.852   -27910759.469 6 -21650436.516 7
  16448898.477   -40967670.963 7 -31657451.087 8
  19216798.609    -8503805.709 4  -6385385.967 3
  17479954.203   -20412467.098 6 -15693972.894 7
  18755412.320   -24364088.562 5 -18912558.018 4
  15857535.047   -41814733.224 7 -32236539.550 9
  16452311.125   -32271859.543 7 -24869712.776 8
 95  2 16 21 31 59.9840000  0  8 28 31 18 16  2 29 19 27
  19696792.086   -16819695.529 3  -3215814.188 4
  17044043.047   -27922732.171 6 -21659765.895 7
  16454969.883   -40935755.410 7 -31632581.870 8
  19207158.539    -8554451.366 4  -6424850.141 2
  17461146.500   -20511304.514 6 -15770989.008 7
  18766942.867   -24303493.772 5 -18865341.435 4
  15850645.406   -41850938.114 7 -32264751.151 9
  16434124.977   -32367429.700 7 -24944183.002 8
 95  2 16 21 32 29.9830000  0  8 28 31 18 16  2 29 19 27
  19703918.691   -16782191.938 3  -3186590.630 3
  17041877.667   -27934117.853 6 -21668637.848 7
  16461116.339   -40903464.070 7 -31607419.831 8
  19197622.644    -8604591.580 4  -6463920.465 2
  17442391.042   -20609865.263 6 -15847789.531 7
  18778500.948   -24242740.902 5 -18818001.689 5
  15843799.370   -41886908.630 7 -32292780.122 9
  16415962.237   -32462872.239 7 -25018553.779 8
 95  2 16 21 32 59.9830000  0  8 28 31 18 16  2 29 19 27
  19711126.362   -16744364.468 3  -3157114.664 3
  17039810.011   -27944964.902 6 -21677090.091 7
  16467326.401   -40870833.000 7 -31581993.069 8
  19188173.159    -8654249.838 5  -6502615.219 1
  17423682.151   -20708173.173 6 -15924393.025 7
  18790089.026   -24181846.387 5 -18770551.569 5
  15836992.987   -41922679.790 7 -32320653.750 9
  16397816.878   -32558222.821 7 -25092852.901 8
 95  2 16 21 33 29.9830000  0  8 28 31 18 16  2 29 19 27
  19718390.651   -16706199.407 3  -3127375.647 3
  17037850.339   -27955268.018 6 -21685118.493 7
  16473606.550   -40837828.301 7 -31556275.168 8
  19178810.026    -8703410.556 4  -6540922.290 2
  17405025.589   -20806214.069 6 -16000788.478 7
  18801709.003   -24120801.302 5 -18722984.110 5
  15830226.761   -41958238.073 7 -32348361.498 9
  16379694.706   -32653458.542 7 -25167062.520 8
 95  2 16 21 33 59.9830000  0  8 28 31 18 16  2 29 19 27
  19725715.323   -16667703.001 3  -3097378.457 3
  17035993.784   -27965028.798 6 -21692724.288 7
  16479961.612   -40804432.629 7 -31530252.613 8
  19169556.206    -8752076.211 4  -6578843.564 2
  17386417.378   -20904016.908 6 -16076998.421 7
  18813355.526   -24059605.038 5 -18675298.871 5
  15823501.526   -41993581.206 7 -32375901.601 9
  16361595.464   -32748566.096 7 -25241172.268 8
 95  2 16 21 34 29.9830000  0  8 28 31 18 16  2 29 19 27
  19733105.644   -16628871.485 3  -3067120.177 2
  17034243.058   -27974238.372 6 -21699900.570 7
  16486392.401   -40770636.851 7 -31503918.288 8
  19160392.370    -8800239.514 4  -6616373.441 2
  17367853.198   -21001569.213 6 -16153013.149 7
  18825029.784   -23998237.056 5 -18627479.828 4
  15816816.628   -42028704.142 7 -32403270.119 9
  16343521.839   -32843543.040 7 -25315180.247 8
 95  2 16 21 34 59.9830000  0  8 28 31 18 16  2 29 19 27
  19740555.691   -16589710.587 4  -3036605.219 1
  17032596.917   -27982877.003 6 -21706631.962 7
  16492902.987   -40736431.333 7 -31477264.681 8
  19151321.245    -8847898.765 4  -6653510.533 1
  17349335.823   -21098868.597 6 -16228830.791 7
  18836742.417   -23936691.438 5 -18579522.341 5
  15810169.901   -42063629.566 7 -32430484.730 9
  16325476.792   -32938375.254 7 -25389075.443 8
 95  2 16 21 35 29.9830000  0  8 28 31 18 16  2 29 19 27
  19748064.276   -16550219.554 3  -3005833.010 2
  17031064.745   -27990919.497 6 -21712898.829 7
  16499494.644   -40701793.848 7 -31450274.479 8
  19142351.839    -8895041.024 5  -6690244.774 2
  17330870.269   -21195920.581 6 -16304455.653 7
  18848490.948   -23874965.399 5 -18531424.277 4
  15803567.776   -42098330.309 7 -32457524.269 9
  16307461.495   -33033046.345 7 -25462845.087 8
 95  2 16 21 35 59.9830000  0  8 28 31 18 16  2 29 19 27
  19755644.917   -16510408.988 4  -2974811.803 2
  17029652.300   -27998364.736 6 -21718700.303 7
  16506163.566   -40666745.181 7 -31422963.884 7
  19133477.730    -8941665.294 5  -6726575.394 1
  17312445.097   -21292726.751 6 -16379888.970 7
  18860271.831   -23813050.636 5 -18483179.154 4
  15797005.792   -42132806.400 7 -32484388.751 8
  16289475.769   -33127569.341 7 -25536499.339 8
 95  2 16 21 36 29.9830000  0  8 28 31 18 16  2 29 19 27
  19763279.886   -16470280.994 4  -2943543.252 2
  17028346.550   -28005216.900 6 -21724039.635 7
  16512906.144   -40631303.040 7 -31395346.671 7
  19124702.659    -8987782.158 5  -6762510.651 1
  17294077.245   -21389270.849 6 -16455118.077 7
  18872087.589   -23750946.229 5 -18434786.275 3
  15790486.972   -42167065.043 7 -32511083.779 9
  16271514.456   -33221941.131 7 -25610035.771 8
 95  2 16 21 36 59.9830000  0  8 28 31 18 16  2 29 19 27
  19770976.222   -16429836.241 4  -2912027.860 1
  17027154.323   -28011481.045 6 -21728920.772 7
  16519725.956   -40595472.678 7 -31367426.958 8
  19116019.534    -9033403.145 4  -6798059.490 2
  17275752.042   -21485550.698 6 -16530141.274 7
  18883940.886   -23688667.294 5 -18386257.386 3
  15784010.706   -42201104.632 7 -32537608.125 9
  16253587.222   -33316152.616 7 -25683447.287 8
 95  2 16 21 37 29.9830000  0  7 31 18 16  2 29 19 27
  17026074.651   -28017162.850 6 -21733348.125 7
  16526619.105   -40559253.868 7 -31339204.543 7
  19107434.691    -9078528.777 5  -6833222.332 2
  17257483.456   -21581547.523 6 -16604943.941 7
  18895823.808   -23626213.314 5 -18337592.108 2
  15777576.886   -42234909.038 7 -32563949.219 9
  16235693.206   -33410201.710 7 -25756732.264 8
 95  2 16 21 37 59.9830000  0  7 31 18 16  2 29 19 27
  17025096.456   -28022295.833 6 -21737347.824 7
  16533579.136   -40522676.172 6 -31310702.492 7
  19098935.816    -9123183.474 4  -6868018.206 2
  17239267.644   -21677281.249 6 -16679541.588 7
  18907736.448   -23563615.780 5 -18288814.989 1
  15771183.847   -42268514.196 7 -32590135.049 9
  16217820.456   -33504117.096 7 -25829913.053 8
 95  2 16 21 38 29.9830000  0  7 31 18 16  2 29 19 27
  17024222.831   -28026883.586 6 -21740922.667 7
  16540607.737   -40485728.761 7 -31281912.343 7
  19090528.550    -9167360.323 4  -6902441.720 1
  17221099.120   -21772764.102 6 -16753943.750 7
  18919673.120   -23500894.845 5 -18239941.709 2
  15764829.167   -42301907.708 7 -32616155.961 9
  16199978.237   -33597873.000 7 -25902969.572 8
 95  2 16 21 38 59.9830000  0  7 31 18 16  2 29 19 27
  17023456.081   -28030912.540 6 -21744062.089 7
  16547717.019   -40448380.766 6 -31252810.052 7
  19082220.542    -9211026.011 4  -6936466.980 3
  17202978.073   -21867993.637 6 -16828148.529 7
  18931633.620   -23438045.141 5 -18190968.084 1
  15758519.300   -42335060.259 7 -32641989.107 9
  16182165.261   -33691470.639 7 -25975902.769 8
 95  2 16 21 39 29.9830000  0  7 31 18 16  2 29 19 27
  17022791.261   -28034398.354 6 -21746778.279 7
  16554896.464   -40410656.729 6 -31223414.744 7
  19074002.198    -9254202.345 4  -6970110.897 1
  17184897.972   -21962994.565 6 -16902175.162 7
  18943614.839   -23375081.857 5 -18141905.924 3
  15752254.480   -42367990.977 7 -32667649.404 9
  16164383.058   -33784932.278 7 -26048729.992 8
 95  2 16 21 39 59.9830000  0  7 31 18 16  2 29 19 27
  17022236.987   -28037321.592 6 -21749056.108 7
  16562145.362   -40372555.387 6 -31193725.436 7
  19065882.214    -9296887.482 4  -7003372.062 2
  17166865.636   -22057768.636 6 -16976025.021 7
  18955620.448   -23311996.710 5 -18092748.840 3
  15746030.495   -42400688.657 7 -32693128.112 9
  16146625.464   -33878244.745 7 -26121440.974 9
 95  2 16 21 40 29.9830000  0  7 31 18 16  2 29 19 27
  17021792.558   -28039668.493 6 -21750884.850 7
  16569467.526   -40334078.555 6 -31163743.527 7
  19057854.550    -9339080.357 4  -7036249.655 3
  17148873.206   -22152304.215 6 -17049689.049 7
  18967650.120   -23248778.778 5 -18043488.293 4
  15739853.800   -42433145.567 7 -32718419.202 9
  16128897.526   -33971409.145 7 -26194036.585 8
 95  2 16 21 40 59.9830000  0  7 31 18 16  2 29 19 27
  17021455.706   -28041435.346 6 -21752261.612 7
  16576858.394   -40295232.438 6 -31133473.870 7
  19049915.972    -9380779.278 4  -7068742.303 2
  17130932.886   -22246575.708 6 -17123147.288 7
  18979712.737   -23185397.001 4 -17994100.064 4
  15733721.284   -42465372.894 7 -32743531.396 8
  16111198.472   -34064421.587 7 -26266513.774 9
 95  2 16 21 41 29.9830000  0  7 31 18 16  2 29 19 27
  17021224.433   -28042637.450 6 -21753198.302 7
  16584317.730   -40256039.169 6 -31102933.710 7
  19042076.698    -9421995.811 4  -7100859.099 2
  17113045.667   -22340580.980 6 -17196398.085 7
  18991802.909   -23121858.358 4 -17944589.606 4
  15727629.808   -42497388.980 7 -32768478.992 9
  16093527.378   -34157276.264 7 -26338868.033 8
 95  2 16 21 41 59.9830000  0  7 31 18 16  2 29 19 27
  17021105.253   -28043273.586 6 -21753693.989 7
  16591844.378   -40216487.917 6 -31072114.594 7
  19034324.503    -9462721.383 4  -7132593.326 2
  17095207.878   -22434322.462 6 -17269443.332 7
  19003918.987   -23058164.606 4 -17894958.302 2
  15721577.987   -42529188.557 7 -32793257.873 9
  16075885.972   -34249970.198 7 -26411097.041 9
 95  2 16 21 42 29.9830000  0  7 31 18 16  2 29 19 27
  17021087.714   -28043353.616 6
  16599437.597   -40176583.360 6 -31041020.186 7
  19026666.394    -9502957.323 4  -7163946.025 1
  17077417.972   -22527791.763 6 -17342276.484 7
  19016073.136   -22994317.862 4 -17845207.723 2
  15715567.644   -42560770.459 7 -32817867.146 9
  16058280.183   -34342503.615 7 -26483200.969 9
 95  2 16 21 42 59.9830000  0  7 31 18 16  2 29 19 27
  17021177.456   -28042889.998 6
  16607099.066   -40136332.863 6 -31009656.205 7
  19019101.222    -9542722.914 5  -7194932.204 2
  17059685.558   -22620997.857 6 -17414904.535 7
  19028249.605   -22930329.217 5 -17795346.598 3
  15709599.698   -42592133.481 7 -32842305.861 9
  16040700.261   -34434880.673 7 -26555183.056 9
 95  2 16 21 43 29.9830000  0  7 31 18 16  2 29 19 27
  17021367.901   -28041882.039 6 -21752609.654 7
  16614820.441   -40095735.279 6 -30978021.780 7
  19011618.800    -9582029.387 4  -7225560.630 2
  17041995.073   -22713951.927 6 -17487336.205 7
  19040448.597   -22866233.658 5 -17745402.142 1
  15703675.948   -42623269.550 7 -32866567.728 9
  16023150.042   -34527115.302 7 -26627054.159 9
 95  2 16 21 43 59.9830000  0  7 31 18 16  2 29 19 27
  17021664.636   -28040312.625 6 -21751386.731 7
  16622617.831   -40054777.024 6 -30946106.306 7
  19004227.159    -9620875.126 4  -7255830.054 2
  17024359.120   -22806645.328 6 -17559564.761 7
  19052668.464   -22802017.326 5 -17695363.614 2
  15697796.511   -42654159.414 7 -32890637.751 9
  16005625.519   -34619197.710 7 -26698806.652 9
 95  2 16 21 44 29.9830000  0  7 31 18 16  2 29 19 27
  17022066.683   -28038196.770 6 -21749738.003 7
  16630476.066   -40013473.808 6 -30913922.025 7
  18996924.417    -9659253.447 4  -7285735.263 2
  17006766.167   -22899077.818 6 -17631590.002 7
  19064911.886   -22737677.668 5 -17645228.963 2
  15691963.995   -42684813.331 7 -32914523.911 9
  15988131.120   -34711136.634 7 -26770447.326 9
 95  2 16 21 44 59.9830000  0  7 31 18 16  2 29 19 27
  17022577.534   -28035536.437 6 -21747665.017 7
  16638402.089   -39971820.806 6 -30881465.192 7
  18989714.425    -9697144.521 3  -7315260.806 4
  16989224.542   -22991258.317 6 -17703418.905 7
  19077175.089   -22673221.986 4 -17595003.913 2
  15686174.519   -42715239.067 7 -32938232.267 8
  15970664.472   -34802928.012 7 -26841973.035 9
 95  2 16 21 45 29.9830000  0  7 31 18 16  2 29 19 27
  17023184.620   -28032337.451 6 -21745172.304 6
  16646397.862   -39929810.700 6 -30848730.098 7
  18982602.362    -9734534.943 4  -7344396.208 2
  16971732.581   -23083183.112 6 -17775048.552 7
  19089462.089   -22608659.200 3 -17544695.423 3
  15680428.073   -42745436.539 7 -32961762.757 8
  15953224.995   -34894568.363 7 -26913381.065 9
 95  2 16 21 45 59.9830000  0  7 31 18 16  2 29 19 27
  17023898.198   -28028580.429 6 -21742244.757 7
  16654462.487   -39887427.995 6 -30815704.659 7
  18975583.441    -9771401.331 4  -7373123.274 2
  16954295.112   -23174828.051 6
  19101776.464   -22543952.037 4 -17494274.438 1
  15674727.566   -42775393.917 7 -32985106.156 8
  15935821.097   -34986022.778 7
 95  2 16 21 46 29.9830000  0  7 31 18 16  2 29 19 27
  17024715.066   -28024288.793 6 -21738900.630 7
  16662594.034   -39844696.299 6 -30782407.290 7
  18968665.308    -9807769.135 4  -7401461.815 1
  16936905.894   -23266211.910 6
  19114107.300   -22479142.893 4 -17443773.954 2
  15669067.050   -42805136.304 7 -33008282.033 8
  15918449.753   -35077313.683 7
 95  2 16 21 46 59.9830000  0  7 31 18 16  2 29 19 27
  17025639.995   -28019447.795 6 -21735128.418 7
  16670797.362   -39801591.136 6 -30748818.898 7
  18961837.816    -9843649.680 3  -7429420.690 2
  16919567.691   -23357321.272 6
  19126459.659   -22414234.448 4 -17393196.125 3
  15663449.276   -42834647.612 7 -33031277.847 8
  15901111.441   -35168417.555 7
 95  2 16 21 47 29.9830000  0  7 31 18 16  2 29 19 27
  17026660.894   -28014074.262 6 -21730941.248 6
  16679066.566   -39758134.216 6 -30714956.409 7
  18955097.198    -9879078.636 4  -7457027.694 2
  16902279.058   -23448166.586 6
  19138829.136   -22349231.758 4 -17342544.833 2
  15657877.456   -42863943.892 7 -33054106.107 9
  15883806.167   -35259364.207 7
 95  2 16 21 47 59.9830000  0  7 31 18 16  2 29 19 27
  17027789.222   -28008139.751 6 -21726316.951 7
  16687404.776   -39714321.957 6 -30680817.038 7
  18948441.112    -9914047.126 4  -7484275.885 3
  16885042.448   -23538739.931 6 -18130027.614 7
  19151219.542   -22284107.013 3 -17291798.439 2
  15652346.050   -42893010.901 7 -33076755.709 9
  15866532.691   -35350140.059 7 -27268371.818 8
 95  2 16 21 48 29.9830000  0  7 31 18 16  2 29 19 27
  17029026.089   -28001638.424 6 -21721250.978 7
  16695808.089   -39670154.448 6 -30646400.845 7
  18941875.323    -9948535.342 4  -7511149.826 3
  16867857.605   -23629041.337 6 -18200392.299 7
  19163638.089   -22218852.925 3 -17240951.242 1
  15646864.550   -42921812.967 7 -33099198.861 9
  15849293.730   -35440742.046 7 -27338970.732 9
 95  2 16 21 48 59.9830000  0  7 31 18 16  2 29 19 27
  17030371.870   -27994569.205 6 -21715742.496 7
  16704280.120   -39625640.230 6 -30611714.492 7
  18935411.776    -9982531.455 4  -7537640.312 2
  16850725.651   -23719075.792 6 -18270548.966 7
  19176087.855   -22153446.635 3 -17189985.476 1
  15641435.972   -42950337.122 7 -33121425.465 9
  15832085.378   -35531161.875 7 -27409427.713 9
 95  2 16 21 49 29.9830000  0  7 31 18 16  2 29 19 27
  17031822.769   -27986940.557 6 -21709798.092 7
  16712808.026   -39580818.544 6 -30576788.552 7
  18929035.550   -10016035.943 4  -7563747.707 1
  16833642.933   -23808861.010 6 -18340511.426 7
  19188555.136   -22087900.247 3 -17138910.538 2
  15636060.480   -42978594.986 7 -33143444.565 9
  15814908.816   -35621416.812 7 -27479756.199 9
 95  2 16 21 49 59.9830000  0  7 31 18 16  2 29 19 27
  17033381.566   -27978756.016 6 -21703420.537 6
  16721395.417   -39535689.879 6 -30541623.396 7
  18922753.261   -10049044.029 4  -7589468.296 3
  16816598.651   -23898411.637 6 -18410291.089 7
  19201056.558   -22022226.379 3 -17087736.270 1
  15630733.651   -43006577.146 7 -33165248.831 8
  15797770.691   -35711490.902 7 -27549943.762 9
 95  2 16 21 50 29.9820000  0  7 31 18 16  2 29 19 27
  17035038.467   -27970048.836 6 -21696635.722 6
  16730040.443   -39490260.604 6 -30506224.019 7
  18916563.803   -10081569.883 4  -7614813.098 2
  16799604.311   -23987726.350 6 -18479886.923 7
  19213573.842   -21956450.075 3 -17036482.141 1
  15625459.467   -43034298.654 7 -33186850.002 8
  15780663.592   -35801380.335 7 -27619987.448 9
 95  2 16 21 50 59.9820000  0  7 31 18 16  2 29 19 27
  17036792.842   -27960821.194 6 -21689445.351 6
  16738748.631   -39444507.051 6 -30470571.950 7
  18910465.334   -10113617.602 4  -7639785.344 3
  16782655.803   -24076799.674 6 -18549294.661 7
  19226114.889   -21890558.304 4 -16985138.080 1
  15620229.639   -43061778.160 7 -33208262.589 8
  15763594.381   -35891075.816 7 -27689879.996 9
 95  2 16 21 51 29.9820000  0  7 31 18 16  2 29 19 27
  17038644.990   -27951086.239 6 -21681859.672 7
  16747516.889   -39398425.365 6 -30434664.196 7
  18904451.990   -10145205.393 4  -7664399.208 2
  16765746.131   -24165634.468 6 -18618516.523 7
  19238669.475   -21824576.879 4 -16933724.136 2
  15615044.397   -43089032.024 7 -33229499.351 8
  15746565.608   -35980578.811 7 -27759622.556 9
 95  2 16 21 51 59.9820000  0  7 31 18 16  2 29 19 27
  17040591.717   -27940854.905 6 -21673887.198 7
  16756349.850   -39351999.230 6 -30398488.036 7
  18898526.623   -10176342.231 4  -7688661.689 3
  16748891.662   -24254222.915 6 -18687546.429 7
  19251243.147   -21758507.767 3 -16882241.874 1
  15609901.615   -43116051.601 7 -33250553.556 8
  15729567.193   -36069881.237 7 -27829208.831 9
 95  2 16 21 52 29.9820000  0  8  7 31 18 16  2 29 19 27
  19308947.795          -0.93213
  17042632.514   -27930139.794 6 -21665537.755 7
  16765249.404   -39305242.708 6 -30362054.423 7
  18892683.061   -10207046.396 4  -7712587.031 2
  16732080.498   -24342563.401 6 -18756383.110 7
  19263829.326   -21692362.978 3 -16830700.615 1
  15604801.436   -43142846.640 7 -33271432.798 8
  15712613.342   -36158991.425 7 -27898645.316 9
 95  2 16 21 52 59.9820000  0  8  7 31 18 16  2 29 19 27
  19280079.569     -151682.187 2        -0.36311
  17044769.029   -27918906.458 6 -21656784.497 6
  16774211.475   -39258150.691 6 -30325359.404 6
  18886926.858   -10237294.759 5  -7736157.182 4
  16715319.295   -24430646.869 6 -18825019.525 7
  19276433.420   -21626133.531 3 -16779093.403 2
  15599749.623   -43169402.811 7 -33292125.910 8
  15695691.920   -36247903.783 7 -27967927.647 9
 95  2 16 21 53 29.9820000  0  8  7 31 18 16  2 29 19 27
  19251215.881     -303362.461 3   -118192.332 1
  17047011.303   -27907130.008 6 -21647608.034 6
  16783234.873   -39210722.695 6 -30288402.563 6
  18881259.779   -10267074.751 5  -7759362.346 2
  16698606.897   -24518460.773 6 -18893445.880 7
  19289048.295   -21559828.812 3 -16727427.582 2
  15594742.233   -43195709.244 7 -33312624.427 8
  15678814.358   -36336609.848 7 -28037049.225 9
 95  2 16 21 53 59.9820000  0  8  7 31 18 16  2 29 19 27
  19222354.881     -455048.220 3   -236388.674 2
  17049353.858   -27894822.678 6 -21638017.897 7
  16792319.006   -39162985.047 6 -30251204.445 7
  18875679.342   -10296395.136 5  -7782209.424 2
  16681947.678   -24606019.193 6 -18961673.155 7
  19301679.459   -21493457.538 3 -16675709.909 3
  15589782.248   -43221783.371 7 -33332941.920 8
  15661966.561   -36425133.969 7 -28106029.036 9
 95  2 16 21 54 29.9820000  0  8  7 31 18 16  2 29 19 27
  19193488.889     -606710.188 2   -354566.430 2
  17051801.670   -27881960.107 6 -21627995.111 6
  16801463.178   -39114930.490 6 -30213759.386 6
  18870192.147   -10325220.624 4  -7804670.867 3
  16665337.053   -24693307.293 6 -19029689.804 7
  19314326.897   -21427004.308 3 -16623928.360 2
  15584866.326   -43247624.502 7 -33353077.865 8
  15645158.443   -36513462.840 7 -28174856.705 9
 95  2 16 21 54 59.9820000  0  8  7 31 18 16  2 29 19 27
  19164636.662     -758353.321 3   -472729.538 2
  17054351.217   -27868558.990 6 -21617552.682 6
  16810668.592   -39066566.574 6 -30176073.274 6
  18864801.381   -10353553.685 4  -7826748.587 3
  16648774.381   -24780331.209 6 -19097500.589 7
  19326983.373   -21360476.954 4 -16572089.009 1
  15579989.873   -43273241.026 7 -33373038.788 8
  15628385.397   -36601607.287 7 -28243540.668 9
 95  2 16 21 55 29.9820000  0  8  7 31 18 16  2 29 19 27
  19135783.654     -909963.618 3   -590867.052 2
  17057000.529   -27854628.681 6 -21606697.890 6
  16819935.373   -39017873.040 6 -30138130.307 6
  18859506.498   -10381410.143 5  -7848454.961 2
  16632264.615   -24867084.260 6 -19165100.318 7
  19339663.787   -21293863.960 3 -16520182.940 2
  15575162.303   -43298606.155 7 -33392803.824 8
  15611650.131   -36689560.919 7 -28312075.943 9
 95  2 16 21 55 59.9820000  0  8  7 31 18 16  2 29 19 27
  19106932.389    -1061550.868 2   -708986.599 2
  17059748.529   -27840199.750 6 -21595454.578 6
  16829259.623   -38968870.291 6 -30099946.387 6
  18854285.537   -10408813.693 5  -7869808.341 2
  16615807.623   -24953574.992 6 -19232495.634 7
  19352353.873   -21227166.132 3 -16468210.793 3
  15570384.100   -43323714.572 7 -33412368.820 8
  15594945.162   -36777345.159 7 -28380479.227 9
 95  2 16 21 56 29.9820000  0  8  7 31 18 16  2 29 19 27
  19078091.139    -1213109.850 3   -827084.127 3
  17062587.123   -27825277.202 6 -21583826.622 6
  16838642.404   -38919558.530 6 -30061521.682 6
  18849159.834   -10435773.106 4  -7890815.697 2
  16599399.662   -25039802.325 6 -19299685.710 7
  19365057.428   -21160389.926 3 -16416177.587 2
  15565658.264   -43348551.404 7 -33431722.191 8
  15578274.084   -36864945.072 7 -28448738.877 9
 95  2 16 21 56 59.9820000  0  7  7 31 18 16  2 19 27
  19049260.436    -1364643.616 3   -945161.996 4
  17065520.295   -27809860.988 6 -21571813.989 7
  16848085.139   -38869937.162 6 -30022855.734 6
  18844110.850   -10462306.611 4  -7911491.153 4
  16583043.404   -25125760.479 6 -19366666.031 7
  15560986.295   -43373101.181 7 -33450851.886 8
  15561641.092   -36952355.374 7 -28516850.788 9
 95  2 16 21 57 29.9820000  0  7  7 31 18 16  2 19 27
  19020429.537    -1516150.397 3  -1063218.801 3
  17068552.217   -27793932.039 6 -21559401.827 6
  16857584.545   -38820013.306 6 -29983954.084 6
  18839141.576   -10488399.654 3  -7931823.397 4
  16566739.436   -25211441.644 7 -19433430.523 7
  15556368.662   -43397367.405 7 -33469760.632 8
  15545044.053   -37039560.400 7 -28584802.736 9
 95  2 16 21 57 59.9820000  0  7  7 31 18 16  2 19 27
  18991600.459    -1667636.460 3  -1181259.527 3
  17071677.623   -27777497.451 6 -21546595.665 6
  16867137.451   -38769812.579 6 -29944836.682 6
  18834267.358   -10514032.450 4  -7951797.011 3
  16550486.350   -25296851.245 7 -19499983.407 7
  15551799.365   -43421374.664 7 -33488467.588 8
  15528491.873   -37126546.096 7 -28652583.781 9
 95  2 16 21 58 29.9820000  0  7  7 31 18 16  2 19 27
  18962777.569    -1819098.211 3  -1299281.268 3
  17074902.725   -27760556.376 6 -21533394.830 6
  16876746.631   -38719326.097 6 -29905496.609 6
  18829479.600   -10539193.204 4  -7971402.825 3
  16534282.576   -25381997.372 7 -19566330.982 8
  15547276.733   -43445143.222 7 -33506988.538 8
  15511984.990   -37213300.121 7 -28720184.302 9
 95  2 16 21 58 59.9820000  0  7  7 31 18 16  2 19 27
  18933958.545    -1970540.896 4  -1417288.188 2
  17078222.998   -27743111.051 6 -21519801.073 6
  16886408.654   -38668548.793 6 -29865929.932 6
  18824784.654   -10563877.504 5  -7990637.347 4
  16518127.858   -25466882.189 6 -19632474.946 8
  15542796.506   -43468682.504 7 -33525330.838 8
  15495516.983   -37299834.931 7 -28787614.007 9
 95  2 16 21 59 29.9820000  0  7  7 31 18 16  2 19 27
  18905149.693    -2121944.875 4  -1535264.985 2
  17081641.842   -27725145.338 6 -21505801.836 6
  16896130.740   -38617453.617 6 -29826115.567 6
  18820176.873   -10588061.610 5  -8009482.122 2
  16502026.029   -25551498.357 6 -19698409.567 8
  15538366.873   -43491964.619 7 -33543472.750 8
  15479095.779   -37386134.790 7 -28854860.633 9
 95  2 16 21 59 59.9820000  0  7  7 31 18 16  2 19 27
  18876342.678    -2273325.921 4  -1653223.910 2
  17085154.076   -27706689.249 6 -21491420.479 6
  16905913.709   -38566047.368 6 -29786058.795 6
  18815666.936   -10611787.846 4  -8027970.123 2
  16485966.834   -25635880.602 7 -19764161.925 8
  15533984.326   -43514997.416 7 -33561420.383 8
  15462712.240   -37472233.224 7 -28921950.297 9
 95  2 16 22  0 29.9820000  0  7  7 31 18 16  2 19 27
  18847545.967    -2424668.934 4  -1771153.196 4
  17088764.865   -27687719.175 6 -21476638.604 6
  16915757.998   -38514311.106 6 -29745744.887 6
  18811238.076   -10635059.439 5  -8046103.838 4
  16469958.115   -25720011.548 7 -19829718.460 8
  15529655.553   -43537742.358 7 -33579143.707 8
  15446368.068   -37558117.682 7 -28988873.239 9
 95  2 16 22  0 59.9820000  0  7  7 31 18 16  2 19 27
  18818748.436    -2575990.013 5  -1889065.397 2
  17092470.545   -27668246.135 6 -21461464.813 6
  16925661.647   -38462269.417 6 -29705192.973 6
  18806886.858   -10657905.962 5  -8063906.345 3
  16453995.428   -25803910.311 7 -19895094.079 8
  15525381.303   -43560201.325 7 -33596644.200 8
  15430060.147   -37643809.002 7 -29055645.674 9
 95  2 16 22  1 29.9820000  0  7  7 31 18 16  2 19 27
  18789953.147    -2727285.596 3  -2006957.758 2
  17096268.264   -27648281.531 6 -21445907.989 6
  16935618.248   -38409948.831 6 -29664423.735 6
  18802618.475   -10680340.686 4
  16438075.311   -25887584.236 7 -19960294.499 8
  15521161.076   -43582384.493 7
  15413789.342   -37729301.250 7 -29122262.988 9
 95  2 16 22  1 59.9820000  0  7  7 31 18 16  2 19 27
  18761172.193    -2878530.551 3  -2124810.647 1
  17100160.756   -27627826.936 6 -21429969.354 6
  16945624.748   -38357357.525 6 -29623443.544 6
  18798427.045   -10702360.741 3
  16422196.225   -25971018.548 7 -20025308.213 8
  15516990.295   -43604303.142 7
  15397564.076   -37814581.178 7 -29188714.862 9
 95  2 16 22  2 29.9820000  0  7  7 31 18 16  2 19 27
  18732406.381    -3029708.672 3  -2242611.502 2
  17104149.068   -27606872.574 6 -21413641.288 6
  16955685.100   -38304495.767 6 -29582252.617 6
  18794322.936   -10723946.917 4
  16406365.818   -26054192.458 7 -20090119.007 8
  15512869.537   -43625956.388 7
  15381379.264   -37899631.702 7 -29254987.976 9
 95  2 16 22  2 59.9820000  0  7  7 31 18 16  2 19 27
  18703652.459    -3180815.592 3  -2360356.810 2
  17108228.725   -27585423.819 6 -21396927.980 6
  16965796.834   -38251368.210 6 -29540854.577 6
  18790298.311   -10745085.486 5  -8131838.535 3
  16390590.787   -26137090.174 7 -20154714.597 8
  15508796.670   -43647357.153 7 -33664557.840 9
  15365240.850   -37984440.092 7 -29321072.415 9
 95  2 16 22  3 29.9820000  0  7  7 31 18 16  2 19 27
  18674907.818    -3331860.169 3  -2478053.564 2
  17112403.451   -27563493.103 6 -21379839.122 6
  16975957.014   -38197968.213 6 -29499244.243 6
  18786364.600   -10765768.834 5  -8147955.447 4
  16374869.108   -26219717.896 7 -20219099.792 8
  15504773.326   -43668507.550 7 -33681038.679 8
  15349146.295   -38069009.535 7 -29386970.659 9
 95  2 16 22  3 59.9820000  0  7  7 31 18 16  2 19 27
  18646171.201    -3482855.212 3  -2595711.679 2
  17116667.318   -27541086.526 6 -21362379.462 6
  16986172.693   -38144286.819 6 -29457414.633 6
  18782514.850   -10785992.041 5  -8163713.839 4
  16359196.959   -26302080.811 7 -20283278.644 8
  15500795.483   -43689401.649 7 -33697319.798 8
  15333100.076   -38153337.938 7 -29452681.084 9
 95  2 16 22  4 29.9820000  0  7  7 31 18 16  2 19 27
  18617443.990    -3633818.614 3  -2713345.134 1
  17121022.834   -27518201.108 6 -21344546.676 6
  16996439.022   -38090327.728 6 -29415368.663 6
  18778753.459   -10805759.794 4  -8179117.301 3
  16343569.623   -26384188.024 7 -20347258.251 8
  15496871.084   -43710026.495 7 -33713391.113 8
  15317099.568   -38237427.215 7 -29518205.172 9
 95  2 16 22  4 59.9820000  0  7  7 31 18 16  2 19 27
  18588725.983    -3784753.420 4  -2830956.303 3
  17125465.553   -27494842.114 6 -21326344.873 6
  17006760.295   -38036092.605 6 -29373107.579 6
  18775075.967   -10825073.447 4  -8194166.931 4
  16327992.873   -26466044.327 7 -20411042.341 7
  15493000.850   -43730371.321 7 -33729244.225 8
  15301139.256   -38321294.198 7 -29583556.044 9
 95  2 16 22  5 29.9820000  0  7  7 31 18 16  2 19 27
  18560008.600    -3935660.630 4  -2948545.984 2
  17130001.256   -27471017.042 6 -21307779.897 6
  17017131.943   -37981594.820 6 -29330641.807 6
  18771486.256   -10843957.831 5  -8208882.037 3
  16312463.451   -26547670.587 7 -20474647.185 7
  15489181.404   -43750438.642 7 -33744881.103 8
  15285214.803   -38404973.226 7 -29648760.459 9
 95  2 16 22  5 59.9820000  0  7  7 31 18 16  2 19 27
  18531305.459    -4086507.937 4  -3066088.959 2
  17134627.959   -27446703.936 6 -21288834.629 6
  17027551.998   -37926829.484 6 -29287967.588 6
  18767972.686   -10862416.391 5  -8223265.351 4
  16296975.264   -26629045.790 7 -20538056.385 8
  15485416.373   -43770223.074 7 -33760297.552 8
  15269332.217   -38488453.696 7 -29713810.155 9
 95  2 16 22  6 29.9820000  0  7  7 31 18 16  2 19 27
  18502611.014    -4237297.116 4  -3183586.629 3
  17139344.709   -27421916.108 6 -21269519.448 6
  17038022.342   -37871821.279 6 -29245104.096 6
  18764532.725   -10880470.107 5  -8237333.184 4
  16281538.951   -26710168.565 7 -20601268.896 8
  15481702.639   -43789740.321 7 -33775505.795 8
  15253476.272   -38571755.276 7 -29778720.458 9
 95  2 16 22  6 59.9820000  0  7  7 31 18 16  2 19 27
  18473929.459    -4387997.328 5  -3301015.000 4
  17144156.217   -27396637.318 6 -21249821.702 6
  17048538.365   -37816549.461 6 -29202035.198 6
  18761183.451   -10898102.417 5  -8251072.684 4
  16266154.873   -26791007.048 7 -20664259.867 8
  15478041.904   -43808977.149 7 -33790495.533 8
  15237666.717   -38654852.485 7 -29843471.509 9
 95  2 16 22  7 29.9820000  0  7  7 31 18 16  2 19 27
  18445270.568    -4538597.269 5  -3418365.244 3
  17149057.428   -27370870.729 6 -21229743.841 6
  17059107.279   -37761019.671 6 -29158765.282 6
  18757903.576   -10915312.998 4  -8264483.545 2
  16250825.412   -26871568.985 7 -20727035.350 8
  15474433.420   -43827942.144 7 -33805273.455 8
  15221898.186   -38737710.761 7 -29908036.381 9
 95  2 16 22  7 59.9820000  0  7  7 31 18 16  2 19 27
  18416633.443    -4689096.842 5  -3535637.283 4
  17154048.045   -27344638.646 6 -21209303.266 6
  17069719.225   -37705242.904 6 -29115302.923 6
  18754714.615   -10932088.233 5  -8277555.188 4
  16235545.350   -26951861.924 7 -20789601.215 8
  15470873.873   -43846641.496 7 -33819844.376 9
  15206181.811   -38820303.562 7 -29972394.389 9
 95  2 16 22  8 29.9810000  0  7  7 31 18 16  2 19 27
  18388009.423    -4839505.588 5  -3652838.553 3
  17159123.728   -27317967.548 6 -21188520.591 6
  17080376.704   -37649238.701 6 -29071663.330 6
  18751604.431   -10948436.680 5  -8290294.270 4
  16220314.017   -27031909.391 7 -20851975.819 7
  15467366.868   -43865077.558 7 -33834210.145 8
  15190511.712   -38902637.629 7 -30036550.784 9
 95  2 16 22  8 59.9810000  0  7  7 31 18 16  2 19 27
  18359406.618    -4989824.429 4  -3769969.804 3
  17164284.587   -27290849.869 6 -21167389.946 6
  17091081.181   -37592992.323 6 -29027835.032 6
  18748575.032   -10964353.084 4  -8302696.659 3
  16205123.157   -27111728.546 7 -20914172.516 8
  15463909.392   -43883241.026 7 -33848363.500 8
  15174897.142   -38984707.498 7 -30100501.316 9
 95  2 16 22  9 29.9810000  0  7  7 31 18 16  2 19 27
  18330819.212    -5140046.433 4  -3887025.584 4
  17169527.665   -27263297.448 6 -21145920.537 6
  17101830.212   -37536503.004 6 -28983817.426 6
  18745628.525   -10979836.020 4  -8314761.316 2
  16189976.150   -27191324.679 7 -20976195.433 8
  15460505.400   -43901132.883 7 -33862305.209 8
  15159328.821   -39066515.491 7 -30164247.785 9
 95  2 16 22  9 59.9810000  0  7  7 31 18 16  2 19 27
  18302249.290    -5290172.169 4  -4004006.362 5
  17174856.540   -27235309.155 6 -21124111.494 6
  17112629.868   -37479754.601 6 -28939597.958 6
  18742760.923   -10994896.543 4  -8326496.822 4
  16174877.712   -27270682.117 7 -21038032.358 8
  15457152.314   -43918749.285 7 -33876032.281 8
  15143806.056   -39148080.496 7 -30227804.914 9
 95  2 16 22 10 29.9810000  0  7  7 31 18 16  2 19 27
  18273696.650    -5440222.886 5  -4120928.713 4
  17180266.298   -27206869.348 6 -21101950.612 6
  17123480.032   -37422742.716 6 -28895173.172 6
  18739974.087   -11009565.343 5  -8337927.044 3
  16159818.400   -27349799.940 7 -21099682.573 8
  15453850.235   -43936104.893 7 -33889556.135 8
  15128330.376   -39229418.823 7 -30291185.408 9
 95  2 16 22 10 59.9810000  0  7  7 31 18 16  2 19 27
  18245155.517    -5590201.467 5  -4237794.871 3
  17185768.228   -27177964.752 6 -21079427.569 6
  17134376.095   -37365473.950 6 -28850548.207 6
  18737255.853   -11023842.910 5  -8349052.451 4
  16144813.782   -27428676.712 7 -21161144.949 8
  15450594.485   -43953210.973 7 -33902885.550 8
  15112893.767   -39310527.249 7 -30354386.760 9
 95  2 16 22 11 29.9810000  0  7  7 31 18 16  2 19 27
  18216631.923    -5740101.512 5  -4354599.829 2
  17191355.462   -27148598.208 6 -21056544.545 6
  17145321.337   -37307952.963 6 -28805726.699 6
  18734612.821   -11037728.826 4  -8359872.650 2
  16129847.165   -27507296.776 7 -21222407.296 8
  15447387.509   -43970064.505 7 -33916018.176 8
  15097506.212   -39391409.097 7 -30417411.554 9
 95  2 16 22 11 59.9810000  0  7  7 31 18 16  2 19 27
  18188121.321    -5889923.375 4  -4471343.860 3
  17197034.032   -27118761.774 6 -21033295.392 6
  17156313.892   -37250188.594 6 -28760715.574 6
  18732042.525   -11051220.657 5  -8370385.782 3
  16114940.915   -27585656.559 7 -21283466.826 8
  15444230.696   -43986654.037 7 -33928945.091 9
  15082155.220   -39472056.322 7 -30480253.529 9
 95  2 16 22 12 29.9810000  0  7  7 31 18 16  2 19 27
  18159625.439    -6039668.596 4  -4588028.213 4
  17202799.259   -27088457.710 6 -21009681.850 6
  17167350.814   -37192195.287 6 -28715526.039 6
  18729553.064   -11064310.343 4  -8380585.577 4
  16100072.650   -27663767.067 7 -21344332.124 8
  15441125.681   -44002968.661 7 -33941657.793 8
  15066857.298   -39552462.058 7 -30542907.325 9
 95  2 16 22 12 59.9810000  0  7  7 31 18 16  2 19 27
  18131148.220    -6189324.111 5  -4704642.651 4
  17208646.329   -27057731.359 6 -20985739.244 6
  17178424.978   -37133993.810 6 -28670174.281 6
  18727138.126   -11077003.398 4  -8390476.332 1
  16085257.712   -27741637.890 7 -21405010.651 8
  15438075.134   -44018998.604 7 -33954148.664 8
  15051597.603   -39632634.190 7 -30605379.090 9
 95  2 16 22 13 29.9810000  0  7  7 31 18 16  2 19 27
  18102682.868    -6338891.921 5  -4821188.752 4
  17214568.235   -27026610.323 6 -20961489.100 6
  17189539.704   -37075576.701 6 -28624654.525 6
  18724791.165   -11089305.121 4  -8400062.073 2
  16070480.610   -27819269.682 7 -21465502.927 8
  15435082.407   -44034734.274 7 -33966410.236 8
  15036389.868   -39712572.870 7 -30667668.944 9
 95  2 16 22 13 59.9810000  0  7  7 31 18 16  2 19 27
  18074236.884    -6488385.973 5  -4937677.384 3
  17220565.837   -26995093.575 6 -20936930.622 6
  17200699.157   -37016955.027 6 -28578975.369 6
  18722525.564   -11101221.428 3  -8409347.510 2
  16055753.110   -27896683.716 7 -21525825.515 8
  15432139.400   -44050192.809 7 -33978455.857 8
  15021220.134   -39792267.560 7 -30729768.677 9
 95  2 16 22 14 29.9810000  0  7  7 31 18 16  2 19 27
  18045804.048    -6637792.200 5  -5054097.573 4
  17226639.321   -26963173.878 6 -20912058.143 6
  17211890.556   -36958129.301 6 -28533137.194 5
  18720333.110   -11112757.057 3  -8418336.360 2
  16041060.681   -27973880.138 7 -21585978.547 8
  15429250.970   -44065373.001 7 -33990284.591 8
  15006107.243   -39871706.801 7 -30791669.362 9
 95  2 16 22 14 59.9810000  0  7  7 31 18 16  2 19 27
  18017386.353    -6787103.135 5  -5170443.529 4
  17232791.009   -26930849.927 6 -20886870.663 6
  17223122.360   -36899105.422 6 -28487144.626 6
  18718208.392   -11123916.293 3  -8427031.882 3
  16026414.946   -28050853.212 7 -21645957.544 8
  15426414.056   -44080286.459 7 -34001905.474 8
  14991036.454   -39950889.562 7 -30853370.185 9
 95  2 16 22 15 29.9810000  0  7  7 31 18 16  2 19 27
  17988999.228    -6936307.055 5  -5286706.087 4
  17239024.720   -26898078.940 6 -20861334.849 6
  17234394.884   -36839870.523 6 -28440987.612 6
  18716165.892   -11134676.569 4  -8435416.553 2
  16011811.564   -28127590.323 7 -21705752.668 8
  15423626.587   -44094932.463 7 -34013317.941 8
  14976019.923   -40029802.950 7 -30914861.115 9
 95  2 16 22 15 59.9810000  0  7  7 31 18 16  2 19 27
  17960630.446    -7085389.328 5  -5402873.822 4
  17245348.384   -26864851.619 6 -20835443.448 6
  17245707.634   -36780430.080 6 -28394670.465 6
  18714191.907   -11145042.155 3  -8443493.644 1
  15997254.118   -28204082.849 7 -21765357.201 8
  15420889.142   -44109311.919 7 -34024522.723 8
  14961054.657   -40108451.371 7 -30976145.590 9
 95  2 16 22 16 29.9810000  0  7  7 31 18 16  2 19 27
  17932285.806    -7234339.809 5  -5518938.890 5
  17251755.259   -26831193.832 6 -20809216.623 6
  17257057.931   -36720780.926 6 -28348190.670 6
  18712285.712   -11155032.188 3  -8451278.128 3
  15982748.306   -28280326.560 7 -21824767.862 8
  15418205.071   -44123420.928 7 -34035516.757 8
  14946131.165   -40186862.079 7 -31037244.812 9
 95  2 16 22 16 59.9810000  0  7  7 31 18 16  2 19 27
  17903964.048    -7383159.517 5  -5634902.037 5
  17258237.392   -26797117.274 6 -20782663.479 6
  17268448.439   -36660914.783 6 -28301541.791 5
  18710462.025   -11164639.281 3  -8458764.181 3
  15968283.173   -28356317.484 7 -21883981.540 8
  15415571.939   -44137256.335 7 -34046297.597 8
  14931256.150   -40265049.469 7 -31098170.028 9
 95  2 16 22 17 29.9810000  0  7  7 31 18 16  2 19 27
  17875669.259    -7531842.951 5  -5750759.012 4
  17264803.821   -26762624.051 6 -20755785.670 6
  17279885.743   -36600816.522 6 -28254712.026 5
  18708702.767   -11173868.322 3  -8465955.656 2
  15953874.720   -28432060.617 7 -21943002.137 8
  15412993.782   -44150806.252 7 -34056855.975 8
  14916418.939   -40342998.572 7 -31158909.570 9
 95  2 16 22 17 59.9810000  0  7  7 31 18 16  2 19 27
  17847399.478    -7680403.221 5  -5866519.999 4
  17271442.673   -26727736.544 6 -20728600.617 6
  17291363.103   -36540493.861 6 -28207707.417 6
  18707015.798   -11182735.319 3  -8472865.064 2
  15939504.228   -28507563.638 7 -22001835.632 8
  15410470.392   -44164070.079 7 -34067191.427 9
  14901635.618   -40420704.025 7 -31219459.250 9
 95  2 16 22 18 29.9810000  0  7  7 31 18 16  2 19 27
  17819155.978    -7828839.653 5  -5982184.485 5
  17278157.720   -26692440.472 6 -20701097.217 6
  17302886.267   -36479948.321 6 -28160529.135 5
  18705397.829   -11191236.287 3  -8479489.219 2
  15925181.095   -28582832.252 7 -22060486.475 8
  15408000.345   -44177043.622 7 -34077300.682 8
  14886898.923   -40498140.179 7 -31279799.091 9
 95  2 16 22 18 59.9810000  0  7  7 31 18 16  2 19 27
  17790930.923    -7977161.815 5  -6097759.941 5
  17284953.384   -26656722.619 6 -20673265.140 6
  17314449.165   -36419195.216 6 -28113189.105 5
  18703852.470   -11199367.397 3  -8485825.222 1
  15910904.173   -28657874.089 7 -22118960.602 8
  15405587.509   -44189729.803 7 -34087186.008 9
  14872217.704   -40575283.146 7 -31339910.462 9
 95  2 16 22 19 29.9810000  0  7  7 31 18 16  2 19 27
  17762724.923    -8125371.065 5  -6213247.399 5
  17291831.321   -26620584.709 6 -20645105.745 6
  17326042.368   -36358249.845 6 -28065699.262 5
  18702368.290   -11207138.348 3  -8491880.516 2
  15896661.134   -28732693.524 7 -22177261.428 8
  15403226.212   -44202134.135 7 -34096851.725 8
  14857597.993   -40652122.777 7 -31399785.478 9
 95  2 16 22 19 59.9810000  0  7  7 31 18 16  2 19 27
  17734541.970    -8273486.387 5  -6328661.685 5
  17298784.767   -26584045.051 6 -20616633.295 6
  17337667.532   -36297159.423 6 -28018096.394 5
  18700960.931   -11214561.077 3  -8497664.508 1
  15882463.618   -28807310.737 7 -22235404.680 8
  15400914.900   -44214276.672 7 -34106313.442 8
  14843027.329   -40728694.186 7 -31459451.487 9
 95  2 16 22 20 29.9810000  0  7  7 31 18 16  2 19 27
  17706378.454    -8421489.353 5  -6443988.413 5
  17305816.751   -26547098.622 6 -20587843.892 6
  17349323.298   -36235928.384 6 -27970383.954 5
  18699614.798   -11221625.280 3  -8503169.117 4
  15868305.735   -28881725.641 7 -22293390.283 8
  15398654.470   -44226160.247 7 -34115573.364 8
  14828502.235   -40805003.716 7 -31518913.439 9
 95  2 16 22 20 59.9810000  0  7  7 31 18 16  2 19 27
  17678240.431    -8569348.146 5  -6559202.835 5
  17312922.345   -26509750.589 6 -20558741.549 6
  17361004.689   -36174536.229 6 -27922545.959 5
  18698349.860   -11228294.738 3  -8508366.144 2
  15854187.571   -28955914.548 7 -22351199.790 8
  15396447.314   -44237755.998 7 -34124609.012 8
  14814033.235   -40881046.973 7 -31578167.898 9
 95  2 16 22 21 29.9810000  0  7  7 31 18 16  2 19 27
  17650133.345    -8717039.711 5  -6674286.948 5
  17320103.900   -26472012.261 6 -20529335.082 6
  17372721.595   -36112964.173 6 -27874567.795 5
  18697161.025   -11234555.208 3  -8513244.450 1
  15840113.517   -29029863.230 7 -22408822.100 8
  15394299.064   -44249051.112 7 -34133410.399 8
  14799614.454   -40956828.119 7 -31637218.128 9
 95  2 16 22 21 59.9810000  0  7  7 31 18 16  2 19 27
  17622062.485    -8864555.697 5  -6789234.235 5
  17327361.368   -26433878.495 6 -20499620.483 6
  17384475.228   -36051195.376 5 -27826436.311 5
  18696042.298   -11240405.633 3  -8517803.283 1
  15826087.204   -29103565.668 7 -22466252.537 8
  15392204.821   -44260050.094 7 -34141981.039 8
  14785247.821   -41032335.566 7 -31696055.071 9
 95  2 16 22 22 29.9810000  0  7  7 31 18 16  2 19 27
  17594025.095    -9011901.796 5  -6904049.175 5
  17334689.314   -26395369.979 6 -20469613.875 6
  17396271.392   -35989213.708 6 -27778138.983 5
  18695001.978   -11245865.379 3  -8522057.685 1
  15812110.306   -29177026.525 7 -22523494.724 8
  15390165.775   -44270765.603 7 -34150330.781 8
  14770929.173   -41107569.271 7 -31754678.709 9
 95  2 16 22 22 59.9810000  0  7  7 31 18 16  2 19 27
  17566016.087    -9159085.224 5  -7018737.358 5
  17342087.181   -26356496.205 6 -20439322.646 6
  17408107.267   -35927012.450 6 -27729670.526 5
  18694033.759   -11250952.677 3  -8526021.832 2
  15798177.634   -29250242.241 7 -22580545.884 8
  15388183.095   -44281184.025 7 -34158449.031 8
  14756661.806   -41182531.350 7 -31813090.694 9
 95  2 16 22 23 29.9810000  0  7  7 31 18 16  2 19 27
  17538033.048    -9306132.268 5  -7133319.283 5
  17349551.571   -26317261.890 6 -20408750.473 6
  17419979.181   -35864611.346 5 -27681046.344 5
  18693131.595   -11255708.031 3  -8529727.347 1
  15784288.931   -29323229.594 7 -22637419.102 8
  15386253.173   -44291327.321 7 -34166352.897 8
  14742447.259   -41257230.076 7 -31871297.467 9
 95  2 16 22 23 59.9810000  0  7  7 31 18 16  2 19 27
  17510077.618    -9453039.706 5  -7247792.387 5
  17357090.954   -26277654.881 6 -20377887.909 5
  17431889.743   -35802030.502 5 -27632282.104 5
  18692285.110   -11260137.998 3  -8533179.322 1
  15770444.821   -29395986.379 7 -22694112.654 8
  15384378.243   -44301182.916 7 -34174032.583 8
  14728284.142   -41331648.702 7 -31929285.981 9
 95  2 16 22 24 29.9810000  0  7  7 31 18 16  2 19 27
  17482148.939    -9599805.573 5  -7362155.203 5
  17364694.548   -26237690.261 6 -20346746.670 5
  17443830.509   -35739294.166 5 -27583396.706 5
  18691511.095   -11264245.480 4  -8536380.042 2
  15756641.689   -29468517.964 7 -22750630.738 8
  15382560.360   -44310733.344 7 -34181474.473 8
  14714177.275   -41405791.539 7 -31987059.590 9
 95  2 16 22 24 59.9810000  0  7  7 31 18 16  2 19 27
  17454251.196    -9746417.706 5  -7476398.226 5
  17372371.431   -26197344.984 6 -20315308.818 5
  17455794.829   -35676407.925 5 -27534394.486 5
  18690791.978   -11268015.023 3  -8539317.342 2
  15742886.704   -29540807.386 7 -22806960.117 8
  15380804.743   -44319959.178 7 -34188663.439 8
  14700124.900   -41479634.332 7 -32044599.399 9
 95  2 16 22 25 29.9810000  0  7  7 31 18 16  2 19 27
  17426375.743    -9892889.346 5  -7590531.778 5
  17380120.087   -26156628.237 6 -20283581.510 5
  17467784.321   -35613405.085 6 -27485301.432 5
  18690136.173   -11271463.860 3  -8542004.813 1
  15729174.806   -29612867.816 7 -22863111.066 8
  15379104.689   -44328896.027 7 -34195627.216 8
  14686130.446   -41553172.194 7 -32101901.608 9
 95  2 16 22 25 59.9810000  0  7  7 31 18 16  2 19 27
  17398533.907   -10039198.105 5  -7704538.395 5
  17387940.907   -26115527.859 6 -20251555.264 6
  17479799.353   -35550269.042 5 -27436104.566 5
  18689540.642   -11274579.702 3  -8544432.770 1
  15715506.720   -29684687.139 7 -22919074.129 8
  15377459.400   -44337546.170 7 -34202367.588 8
  14672197.775   -41626391.534 7 -32158955.612 9
 95  2 16 22 26 29.9800000  0  7  7 31 18 16  2 19 27
  17370729.035   -10185325.896 5  -7818403.999 5
  17395835.348   -26074040.504 6 -20219227.484 6
  17491844.801   -35486970.272 5 -27386780.934 5
  18689007.863   -11277357.426 3  -8546597.291 1
  15701885.824   -29756254.641 7 -22974840.976 8
  15375865.309   -44345916.226 7 -34208889.705 8
  14658325.856   -41699289.722 7 -32215759.379 9
 95  2 16 22 26 59.9800000  0  7  7 31 18 16  2 19 27
  17342954.957   -10331263.201 5  -7932121.183 5
  17403807.410   -26032148.850 6 -20186584.681 5
  17503926.395   -35423476.586 5 -27337305.392 5
  18688553.965   -11279797.740 3  -8548498.858 2
  15688314.348   -29827560.768 7 -23030404.155 9
  15374324.379   -44354004.379 7 -34215192.168 8
  14644519.520   -41771863.028 7 -32272309.979 9
 95  2 16 22 27 29.9800000  0  7  7 31 18 16  2 19 27
  17315222.926   -10477006.597 5  -8045687.282 5
  17411849.574   -25989882.269 5 -20153649.702 5
  17516042.449   -35359794.852 5 -27287683.324 5
  18688145.762   -11281916.539 4  -8550149.930 1
  15674790.957   -29898629.264 7 -23085782.160 8
  15372837.442   -44361831.760 7 -34221291.418 8
  14630767.832   -41844127.341 7 -32328619.816 9
 95  2 16 22 27 59.9800000  0  7  7 31 18 16  2 19 27
  17287524.277   -10622558.446 5  -8159104.095 6
  17419962.652   -25947257.170 6 -20120435.368 5
  17528202.113   -35295917.070 5 -27237908.501 5
  18687798.356   -11283707.721 3  -8551545.672 1
  15661311.762   -29969483.483 7 -23140993.205 8
  15371401.402   -44369377.251 7 -34227171.016 8
  14617067.020   -41916105.597 7 -32384706.753 9
 95  2 16 22 28 29.9800000  0  7  7 31 18 16  2 19 27
  17259865.692   -10767922.770 5  -8272374.785 5
  17428142.379   -25904272.206 6 -20086940.614 5
  17540388.254   -35231861.716 5 -27187995.310 5
  18687524.254   -11285163.064 3  -8552679.749 1
  15647867.035   -30040123.398 7 -23196037.254 8
  15370022.777   -44376613.973 7 -34232810.021 8
  14603425.293   -41987799.220 7 -32440571.900 9
